<?xml version="1.0" encoding="UTF-8" standalone="no" ?>
<gpx xmlns="http://www.topografix.com/GPX/1/1" xmlns:xsi="http://www.w3.org/2001/XMLSchema-instance" xsi:schemaLocation="http://www.topografix.com/GPX/1/1 http://www.topografix.com/GPX/1/1/gpx.xsd" version="1.1" creator="VisuGPX - https://www.visugpx.com">
  <metadata>
    <name>Plateau d'Ambel</name>
    <desc><![CDATA[Tour du plateau d'Ambel en passant par le Roc de Toulau 

Il existe des grottes dans le Roc de Toulau en contrebas des crêtes. Le jour de la sortie, le vent était violent et imprévisible. Il aurait été très dangereux de flirter avec les crêtes dans ces conditions. 
Le tour du plateau est sublime, la randonnée est longue et on reste un peu sur sa faim avant de rebrousser chemin en face du Pas de L'infernet. Pour pouvoir monter tout en haut, il est conseillé de commencer la randonnée assez tôt. ]]></desc>
  </metadata>
  <trk>
    <name><![CDATA[24 mai 2017 14:10:14]]></name>
    <trkseg>
      <trkpt lat="44.89712" lon="5.2347">
        <ele>1403.74</ele>
        <time>2017-05-24T12:10:15.999Z</time>
      </trkpt>
      <trkpt lat="44.89702" lon="5.23475">
        <ele>1401.62</ele>
        <time>2017-05-24T12:10:57.999Z</time>
      </trkpt>
      <trkpt lat="44.89692" lon="5.23483">
        <ele>1402.11</ele>
        <time>2017-05-24T12:11:26.999Z</time>
      </trkpt>
      <trkpt lat="44.89681" lon="5.23491">
        <ele>1401.11</ele>
        <time>2017-05-24T12:11:43.999Z</time>
      </trkpt>
      <trkpt lat="44.89671" lon="5.23498">
        <ele>1401.24</ele>
        <time>2017-05-24T12:12:00.999Z</time>
      </trkpt>
      <trkpt lat="44.89663" lon="5.23505">
        <ele>1400.14</ele>
        <time>2017-05-24T12:12:10.999Z</time>
      </trkpt>
      <trkpt lat="44.89654" lon="5.23503">
        <ele>1400.2</ele>
        <time>2017-05-24T12:12:32.999Z</time>
      </trkpt>
      <trkpt lat="44.89646" lon="5.2351">
        <ele>1400.96</ele>
        <time>2017-05-24T12:12:42.999Z</time>
      </trkpt>
      <trkpt lat="44.89637" lon="5.23518">
        <ele>1402.91</ele>
        <time>2017-05-24T12:12:51.999Z</time>
      </trkpt>
      <trkpt lat="44.89628" lon="5.2352">
        <ele>1405.99</ele>
        <time>2017-05-24T12:13:04.999Z</time>
      </trkpt>
      <trkpt lat="44.89619" lon="5.23523">
        <ele>1407.26</ele>
        <time>2017-05-24T12:13:12.999Z</time>
      </trkpt>
      <trkpt lat="44.89611" lon="5.2353">
        <ele>1410.46</ele>
        <time>2017-05-24T12:13:35.999Z</time>
      </trkpt>
      <trkpt lat="44.89602" lon="5.23533">
        <ele>1412.26</ele>
        <time>2017-05-24T12:13:44.999Z</time>
      </trkpt>
      <trkpt lat="44.89593" lon="5.23534">
        <ele>1413.74</ele>
        <time>2017-05-24T12:13:53.999Z</time>
      </trkpt>
      <trkpt lat="44.89584" lon="5.23538">
        <ele>1415.74</ele>
        <time>2017-05-24T12:14:14.999Z</time>
      </trkpt>
      <trkpt lat="44.89576" lon="5.23544">
        <ele>1416.85</ele>
        <time>2017-05-24T12:14:21.999Z</time>
      </trkpt>
      <trkpt lat="44.89566" lon="5.23545">
        <ele>1417.73</ele>
        <time>2017-05-24T12:14:29.999Z</time>
      </trkpt>
      <trkpt lat="44.89557" lon="5.23549">
        <ele>1418.4</ele>
        <time>2017-05-24T12:14:38.999Z</time>
      </trkpt>
      <trkpt lat="44.89547" lon="5.23548">
        <ele>1419.55</ele>
        <time>2017-05-24T12:14:47.999Z</time>
      </trkpt>
      <trkpt lat="44.89538" lon="5.23549">
        <ele>1420.69</ele>
        <time>2017-05-24T12:14:58.999Z</time>
      </trkpt>
      <trkpt lat="44.89529" lon="5.23549">
        <ele>1421.86</ele>
        <time>2017-05-24T12:15:13.999Z</time>
      </trkpt>
      <trkpt lat="44.89519" lon="5.2355">
        <ele>1422.26</ele>
        <time>2017-05-24T12:15:24.999Z</time>
      </trkpt>
      <trkpt lat="44.8951" lon="5.23547">
        <ele>1422.1</ele>
        <time>2017-05-24T12:15:34.999Z</time>
      </trkpt>
      <trkpt lat="44.895" lon="5.23547">
        <ele>1421.55</ele>
        <time>2017-05-24T12:15:46.999Z</time>
      </trkpt>
      <trkpt lat="44.89491" lon="5.23552">
        <ele>1421.75</ele>
        <time>2017-05-24T12:15:53.999Z</time>
      </trkpt>
      <trkpt lat="44.89482" lon="5.23556">
        <ele>1422.23</ele>
        <time>2017-05-24T12:16:04.999Z</time>
      </trkpt>
      <trkpt lat="44.89473" lon="5.23558">
        <ele>1422.5</ele>
        <time>2017-05-24T12:16:13.999Z</time>
      </trkpt>
      <trkpt lat="44.89463" lon="5.23558">
        <ele>1422.84</ele>
        <time>2017-05-24T12:16:20.999Z</time>
      </trkpt>
      <trkpt lat="44.89452" lon="5.23558">
        <ele>1424.28</ele>
        <time>2017-05-24T12:16:31.999Z</time>
      </trkpt>
      <trkpt lat="44.89443" lon="5.23559">
        <ele>1424.69</ele>
        <time>2017-05-24T12:16:39.999Z</time>
      </trkpt>
      <trkpt lat="44.89434" lon="5.23556">
        <ele>1424.36</ele>
        <time>2017-05-24T12:16:51.999Z</time>
      </trkpt>
      <trkpt lat="44.89425" lon="5.23553">
        <ele>1424.5</ele>
        <time>2017-05-24T12:16:56.999Z</time>
      </trkpt>
      <trkpt lat="44.89416" lon="5.23553">
        <ele>1425.06</ele>
        <time>2017-05-24T12:17:02.999Z</time>
      </trkpt>
      <trkpt lat="44.89405" lon="5.23555">
        <ele>1425.26</ele>
        <time>2017-05-24T12:17:08.999Z</time>
      </trkpt>
      <trkpt lat="44.89396" lon="5.23556">
        <ele>1425.98</ele>
        <time>2017-05-24T12:17:16.999Z</time>
      </trkpt>
      <trkpt lat="44.89405" lon="5.23556">
        <ele>1425.5</ele>
        <time>2017-05-24T12:17:36.999Z</time>
      </trkpt>
      <trkpt lat="44.89415" lon="5.23553">
        <ele>1425.7</ele>
        <time>2017-05-24T12:17:42.999Z</time>
      </trkpt>
      <trkpt lat="44.89424" lon="5.23555">
        <ele>1426.26</ele>
        <time>2017-05-24T12:17:50.999Z</time>
      </trkpt>
      <trkpt lat="44.89433" lon="5.23549">
        <ele>1426.2</ele>
        <time>2017-05-24T12:17:58.999Z</time>
      </trkpt>
      <trkpt lat="44.89443" lon="5.23549">
        <ele>1426.68</ele>
        <time>2017-05-24T12:18:08.999Z</time>
      </trkpt>
      <trkpt lat="44.89451" lon="5.23541">
        <ele>1426.84</ele>
        <time>2017-05-24T12:18:14.999Z</time>
      </trkpt>
      <trkpt lat="44.89453" lon="5.23554">
        <ele>1425.93</ele>
        <time>2017-05-24T12:18:34.999Z</time>
      </trkpt>
      <trkpt lat="44.89444" lon="5.23557">
        <ele>1428.53</ele>
        <time>2017-05-24T12:18:56.999Z</time>
      </trkpt>
      <trkpt lat="44.89453" lon="5.23559">
        <ele>1428.41</ele>
        <time>2017-05-24T12:19:06.999Z</time>
      </trkpt>
      <trkpt lat="44.89462" lon="5.23557">
        <ele>1428.93</ele>
        <time>2017-05-24T12:19:21.999Z</time>
      </trkpt>
      <trkpt lat="44.89472" lon="5.23557">
        <ele>1429.32</ele>
        <time>2017-05-24T12:19:36.999Z</time>
      </trkpt>
      <trkpt lat="44.89462" lon="5.23558">
        <ele>1429.17</ele>
        <time>2017-05-24T12:19:57.999Z</time>
      </trkpt>
      <trkpt lat="44.89451" lon="5.23557">
        <ele>1429.03</ele>
        <time>2017-05-24T12:20:06.999Z</time>
      </trkpt>
      <trkpt lat="44.89441" lon="5.23558">
        <ele>1428.65</ele>
        <time>2017-05-24T12:20:13.999Z</time>
      </trkpt>
      <trkpt lat="44.89432" lon="5.23556">
        <ele>1428.41</ele>
        <time>2017-05-24T12:20:20.999Z</time>
      </trkpt>
      <trkpt lat="44.89422" lon="5.23554">
        <ele>1428.22</ele>
        <time>2017-05-24T12:20:27.999Z</time>
      </trkpt>
      <trkpt lat="44.89412" lon="5.23554">
        <ele>1428.04</ele>
        <time>2017-05-24T12:20:34.999Z</time>
      </trkpt>
      <trkpt lat="44.89402" lon="5.23557">
        <ele>1428.02</ele>
        <time>2017-05-24T12:20:42.999Z</time>
      </trkpt>
      <trkpt lat="44.89392" lon="5.23555">
        <ele>1428.31</ele>
        <time>2017-05-24T12:20:50.999Z</time>
      </trkpt>
      <trkpt lat="44.89383" lon="5.23554">
        <ele>1428.22</ele>
        <time>2017-05-24T12:20:59.999Z</time>
      </trkpt>
      <trkpt lat="44.89373" lon="5.23553">
        <ele>1428.02</ele>
        <time>2017-05-24T12:21:05.999Z</time>
      </trkpt>
      <trkpt lat="44.89363" lon="5.23552">
        <ele>1428.13</ele>
        <time>2017-05-24T12:21:11.999Z</time>
      </trkpt>
      <trkpt lat="44.89353" lon="5.23554">
        <ele>1428.36</ele>
        <time>2017-05-24T12:21:15.999Z</time>
      </trkpt>
      <trkpt lat="44.89344" lon="5.23559">
        <ele>1428.31</ele>
        <time>2017-05-24T12:21:21.999Z</time>
      </trkpt>
      <trkpt lat="44.89335" lon="5.23561">
        <ele>1428.4</ele>
        <time>2017-05-24T12:21:27.999Z</time>
      </trkpt>
      <trkpt lat="44.89325" lon="5.23563">
        <ele>1428.65</ele>
        <time>2017-05-24T12:21:34.999Z</time>
      </trkpt>
      <trkpt lat="44.89316" lon="5.23565">
        <ele>1429.15</ele>
        <time>2017-05-24T12:21:42.999Z</time>
      </trkpt>
      <trkpt lat="44.89306" lon="5.23566">
        <ele>1429.9</ele>
        <time>2017-05-24T12:21:50.999Z</time>
      </trkpt>
      <trkpt lat="44.89297" lon="5.23571">
        <ele>1430.42</ele>
        <time>2017-05-24T12:21:57.999Z</time>
      </trkpt>
      <trkpt lat="44.89287" lon="5.23575">
        <ele>1431.37</ele>
        <time>2017-05-24T12:22:04.999Z</time>
      </trkpt>
      <trkpt lat="44.89278" lon="5.23577">
        <ele>1431.76</ele>
        <time>2017-05-24T12:22:08.999Z</time>
      </trkpt>
      <trkpt lat="44.89268" lon="5.2358">
        <ele>1432.15</ele>
        <time>2017-05-24T12:22:15.999Z</time>
      </trkpt>
      <trkpt lat="44.89259" lon="5.23582">
        <ele>1432.7</ele>
        <time>2017-05-24T12:22:21.999Z</time>
      </trkpt>
      <trkpt lat="44.8925" lon="5.23581">
        <ele>1433.18</ele>
        <time>2017-05-24T12:22:27.999Z</time>
      </trkpt>
      <trkpt lat="44.8924" lon="5.2358">
        <ele>1433.12</ele>
        <time>2017-05-24T12:22:33.999Z</time>
      </trkpt>
      <trkpt lat="44.89229" lon="5.23584">
        <ele>1433.16</ele>
        <time>2017-05-24T12:22:40.999Z</time>
      </trkpt>
      <trkpt lat="44.8922" lon="5.23589">
        <ele>1433.73</ele>
        <time>2017-05-24T12:22:48.999Z</time>
      </trkpt>
      <trkpt lat="44.89211" lon="5.23591">
        <ele>1434.37</ele>
        <time>2017-05-24T12:22:54.999Z</time>
      </trkpt>
      <trkpt lat="44.89201" lon="5.23589">
        <ele>1434.87</ele>
        <time>2017-05-24T12:23:02.999Z</time>
      </trkpt>
      <trkpt lat="44.89191" lon="5.23589">
        <ele>1435.4</ele>
        <time>2017-05-24T12:23:08.999Z</time>
      </trkpt>
      <trkpt lat="44.89181" lon="5.23593">
        <ele>1435.97</ele>
        <time>2017-05-24T12:23:14.999Z</time>
      </trkpt>
      <trkpt lat="44.89171" lon="5.23595">
        <ele>1436.38</ele>
        <time>2017-05-24T12:23:21.999Z</time>
      </trkpt>
      <trkpt lat="44.89162" lon="5.23598">
        <ele>1437.26</ele>
        <time>2017-05-24T12:23:28.999Z</time>
      </trkpt>
      <trkpt lat="44.89153" lon="5.23598">
        <ele>1437.69</ele>
        <time>2017-05-24T12:23:33.999Z</time>
      </trkpt>
      <trkpt lat="44.89143" lon="5.23596">
        <ele>1438.43</ele>
        <time>2017-05-24T12:23:39.999Z</time>
      </trkpt>
      <trkpt lat="44.89134" lon="5.23598">
        <ele>1438.96</ele>
        <time>2017-05-24T12:23:48.999Z</time>
      </trkpt>
      <trkpt lat="44.89124" lon="5.236">
        <ele>1438.78</ele>
        <time>2017-05-24T12:23:53.999Z</time>
      </trkpt>
      <trkpt lat="44.89115" lon="5.23605">
        <ele>1438.97</ele>
        <time>2017-05-24T12:23:59.999Z</time>
      </trkpt>
      <trkpt lat="44.89105" lon="5.23609">
        <ele>1439</ele>
        <time>2017-05-24T12:24:04.999Z</time>
      </trkpt>
      <trkpt lat="44.89097" lon="5.23611">
        <ele>1438.98</ele>
        <time>2017-05-24T12:24:10.999Z</time>
      </trkpt>
      <trkpt lat="44.89086" lon="5.23613">
        <ele>1439.06</ele>
        <time>2017-05-24T12:24:16.999Z</time>
      </trkpt>
      <trkpt lat="44.89079" lon="5.23621">
        <ele>1439.8</ele>
        <time>2017-05-24T12:24:23.999Z</time>
      </trkpt>
      <trkpt lat="44.89071" lon="5.23628">
        <ele>1441.05</ele>
        <time>2017-05-24T12:24:31.999Z</time>
      </trkpt>
      <trkpt lat="44.89063" lon="5.23634">
        <ele>1442.06</ele>
        <time>2017-05-24T12:24:37.999Z</time>
      </trkpt>
      <trkpt lat="44.89053" lon="5.23635">
        <ele>1442.51</ele>
        <time>2017-05-24T12:24:43.999Z</time>
      </trkpt>
      <trkpt lat="44.89044" lon="5.23632">
        <ele>1442.79</ele>
        <time>2017-05-24T12:24:50.999Z</time>
      </trkpt>
      <trkpt lat="44.89034" lon="5.23633">
        <ele>1442.98</ele>
        <time>2017-05-24T12:24:56.999Z</time>
      </trkpt>
      <trkpt lat="44.89025" lon="5.23639">
        <ele>1442.94</ele>
        <time>2017-05-24T12:25:02.999Z</time>
      </trkpt>
      <trkpt lat="44.89017" lon="5.23645">
        <ele>1442.98</ele>
        <time>2017-05-24T12:25:09.999Z</time>
      </trkpt>
      <trkpt lat="44.89007" lon="5.23641">
        <ele>1443.32</ele>
        <time>2017-05-24T12:25:17.999Z</time>
      </trkpt>
      <trkpt lat="44.88998" lon="5.23645">
        <ele>1443.56</ele>
        <time>2017-05-24T12:25:24.999Z</time>
      </trkpt>
      <trkpt lat="44.88988" lon="5.23643">
        <ele>1444.09</ele>
        <time>2017-05-24T12:25:31.999Z</time>
      </trkpt>
      <trkpt lat="44.88978" lon="5.23645">
        <ele>1444.7</ele>
        <time>2017-05-24T12:25:44.999Z</time>
      </trkpt>
      <trkpt lat="44.88969" lon="5.23649">
        <ele>1444.7</ele>
        <time>2017-05-24T12:25:52.999Z</time>
      </trkpt>
      <trkpt lat="44.88961" lon="5.23656">
        <ele>1444.52</ele>
        <time>2017-05-24T12:26:01.999Z</time>
      </trkpt>
      <trkpt lat="44.88954" lon="5.23665">
        <ele>1444.16</ele>
        <time>2017-05-24T12:26:09.999Z</time>
      </trkpt>
      <trkpt lat="44.88944" lon="5.23666">
        <ele>1443.86</ele>
        <time>2017-05-24T12:26:15.999Z</time>
      </trkpt>
      <trkpt lat="44.88935" lon="5.23669">
        <ele>1444.09</ele>
        <time>2017-05-24T12:26:22.999Z</time>
      </trkpt>
      <trkpt lat="44.88925" lon="5.23673">
        <ele>1444.4</ele>
        <time>2017-05-24T12:26:27.999Z</time>
      </trkpt>
      <trkpt lat="44.88915" lon="5.23673">
        <ele>1444.56</ele>
        <time>2017-05-24T12:26:33.999Z</time>
      </trkpt>
      <trkpt lat="44.88905" lon="5.23678">
        <ele>1444.34</ele>
        <time>2017-05-24T12:26:42.999Z</time>
      </trkpt>
      <trkpt lat="44.88895" lon="5.23679">
        <ele>1443.8</ele>
        <time>2017-05-24T12:26:47.999Z</time>
      </trkpt>
      <trkpt lat="44.88886" lon="5.23678">
        <ele>1443.44</ele>
        <time>2017-05-24T12:26:51.999Z</time>
      </trkpt>
      <trkpt lat="44.88876" lon="5.23677">
        <ele>1443.57</ele>
        <time>2017-05-24T12:26:57.999Z</time>
      </trkpt>
      <trkpt lat="44.88867" lon="5.23678">
        <ele>1443.41</ele>
        <time>2017-05-24T12:27:03.999Z</time>
      </trkpt>
      <trkpt lat="44.88855" lon="5.23677">
        <ele>1443.23</ele>
        <time>2017-05-24T12:27:08.999Z</time>
      </trkpt>
      <trkpt lat="44.88845" lon="5.23678">
        <ele>1442.67</ele>
        <time>2017-05-24T12:27:13.999Z</time>
      </trkpt>
      <trkpt lat="44.88836" lon="5.23684">
        <ele>1441.79</ele>
        <time>2017-05-24T12:27:22.999Z</time>
      </trkpt>
      <trkpt lat="44.88827" lon="5.23689">
        <ele>1441.77</ele>
        <time>2017-05-24T12:27:29.999Z</time>
      </trkpt>
      <trkpt lat="44.88819" lon="5.23694">
        <ele>1442.09</ele>
        <time>2017-05-24T12:27:36.999Z</time>
      </trkpt>
      <trkpt lat="44.88808" lon="5.23693">
        <ele>1441.68</ele>
        <time>2017-05-24T12:27:43.999Z</time>
      </trkpt>
      <trkpt lat="44.888" lon="5.23698">
        <ele>1438.52</ele>
        <time>2017-05-24T12:28:17.999Z</time>
      </trkpt>
      <trkpt lat="44.88796" lon="5.2371">
        <ele>1437.12</ele>
        <time>2017-05-24T12:28:24.999Z</time>
      </trkpt>
      <trkpt lat="44.88785" lon="5.23711">
        <ele>1436.19</ele>
        <time>2017-05-24T12:28:31.999Z</time>
      </trkpt>
      <trkpt lat="44.88776" lon="5.23712">
        <ele>1436.19</ele>
        <time>2017-05-24T12:28:37.999Z</time>
      </trkpt>
      <trkpt lat="44.88767" lon="5.23715">
        <ele>1436.48</ele>
        <time>2017-05-24T12:28:44.999Z</time>
      </trkpt>
      <trkpt lat="44.88757" lon="5.2372">
        <ele>1436.81</ele>
        <time>2017-05-24T12:28:50.999Z</time>
      </trkpt>
      <trkpt lat="44.8875" lon="5.23731">
        <ele>1437.04</ele>
        <time>2017-05-24T12:28:56.999Z</time>
      </trkpt>
      <trkpt lat="44.8874" lon="5.23734">
        <ele>1438.27</ele>
        <time>2017-05-24T12:29:06.999Z</time>
      </trkpt>
      <trkpt lat="44.88731" lon="5.2374">
        <ele>1439.11</ele>
        <time>2017-05-24T12:29:14.999Z</time>
      </trkpt>
      <trkpt lat="44.88722" lon="5.23745">
        <ele>1440.1</ele>
        <time>2017-05-24T12:29:20.999Z</time>
      </trkpt>
      <trkpt lat="44.88712" lon="5.23746">
        <ele>1440.92</ele>
        <time>2017-05-24T12:29:26.999Z</time>
      </trkpt>
      <trkpt lat="44.88703" lon="5.23748">
        <ele>1441.38</ele>
        <time>2017-05-24T12:29:32.999Z</time>
      </trkpt>
      <trkpt lat="44.88695" lon="5.23755">
        <ele>1441.85</ele>
        <time>2017-05-24T12:29:40.999Z</time>
      </trkpt>
      <trkpt lat="44.88687" lon="5.23762">
        <ele>1442.79</ele>
        <time>2017-05-24T12:29:47.999Z</time>
      </trkpt>
      <trkpt lat="44.8868" lon="5.23771">
        <ele>1443.01</ele>
        <time>2017-05-24T12:30:04.999Z</time>
      </trkpt>
      <trkpt lat="44.88672" lon="5.23777">
        <ele>1442.36</ele>
        <time>2017-05-24T12:30:13.999Z</time>
      </trkpt>
      <trkpt lat="44.88664" lon="5.23783">
        <ele>1441.94</ele>
        <time>2017-05-24T12:30:22.999Z</time>
      </trkpt>
      <trkpt lat="44.88655" lon="5.23787">
        <ele>1441.76</ele>
        <time>2017-05-24T12:30:32.999Z</time>
      </trkpt>
      <trkpt lat="44.88644" lon="5.23789">
        <ele>1441.67</ele>
        <time>2017-05-24T12:30:41.999Z</time>
      </trkpt>
      <trkpt lat="44.88635" lon="5.23793">
        <ele>1441.29</ele>
        <time>2017-05-24T12:30:51.999Z</time>
      </trkpt>
      <trkpt lat="44.88627" lon="5.238">
        <ele>1440.44</ele>
        <time>2017-05-24T12:31:00.999Z</time>
      </trkpt>
      <trkpt lat="44.88619" lon="5.23808">
        <ele>1438.95</ele>
        <time>2017-05-24T12:31:10.999Z</time>
      </trkpt>
      <trkpt lat="44.88609" lon="5.23813">
        <ele>1438.01</ele>
        <time>2017-05-24T12:31:19.999Z</time>
      </trkpt>
      <trkpt lat="44.88601" lon="5.23821">
        <ele>1437.44</ele>
        <time>2017-05-24T12:31:26.999Z</time>
      </trkpt>
      <trkpt lat="44.88592" lon="5.23827">
        <ele>1435.98</ele>
        <time>2017-05-24T12:31:34.999Z</time>
      </trkpt>
      <trkpt lat="44.88583" lon="5.23833">
        <ele>1434.82</ele>
        <time>2017-05-24T12:31:40.999Z</time>
      </trkpt>
      <trkpt lat="44.88575" lon="5.23838">
        <ele>1434.06</ele>
        <time>2017-05-24T12:31:45.999Z</time>
      </trkpt>
      <trkpt lat="44.88565" lon="5.2384">
        <ele>1433.23</ele>
        <time>2017-05-24T12:31:52.999Z</time>
      </trkpt>
      <trkpt lat="44.88556" lon="5.23851">
        <ele>1432.58</ele>
        <time>2017-05-24T12:31:58.999Z</time>
      </trkpt>
      <trkpt lat="44.88549" lon="5.2386">
        <ele>1432.53</ele>
        <time>2017-05-24T12:32:06.999Z</time>
      </trkpt>
      <trkpt lat="44.88537" lon="5.23858">
        <ele>1432.32</ele>
        <time>2017-05-24T12:32:14.999Z</time>
      </trkpt>
      <trkpt lat="44.88529" lon="5.23864">
        <ele>1431.86</ele>
        <time>2017-05-24T12:32:18.999Z</time>
      </trkpt>
      <trkpt lat="44.88519" lon="5.23868">
        <ele>1430.79</ele>
        <time>2017-05-24T12:32:28.999Z</time>
      </trkpt>
      <trkpt lat="44.8851" lon="5.23874">
        <ele>1430.43</ele>
        <time>2017-05-24T12:32:36.999Z</time>
      </trkpt>
      <trkpt lat="44.88504" lon="5.23885">
        <ele>1430.38</ele>
        <time>2017-05-24T12:32:46.999Z</time>
      </trkpt>
      <trkpt lat="44.88492" lon="5.23889">
        <ele>1429.96</ele>
        <time>2017-05-24T12:32:53.999Z</time>
      </trkpt>
      <trkpt lat="44.88484" lon="5.23898">
        <ele>1429.05</ele>
        <time>2017-05-24T12:33:02.999Z</time>
      </trkpt>
      <trkpt lat="44.88477" lon="5.23906">
        <ele>1428.23</ele>
        <time>2017-05-24T12:33:08.999Z</time>
      </trkpt>
      <trkpt lat="44.88468" lon="5.23913">
        <ele>1427.87</ele>
        <time>2017-05-24T12:33:16.999Z</time>
      </trkpt>
      <trkpt lat="44.88461" lon="5.23922">
        <ele>1427.88</ele>
        <time>2017-05-24T12:33:23.999Z</time>
      </trkpt>
      <trkpt lat="44.88458" lon="5.23935">
        <ele>1428.73</ele>
        <time>2017-05-24T12:33:39.999Z</time>
      </trkpt>
      <trkpt lat="44.8845" lon="5.2393">
        <ele>1428.24</ele>
        <time>2017-05-24T12:34:09.999Z</time>
      </trkpt>
      <trkpt lat="44.88443" lon="5.2392">
        <ele>1427.8</ele>
        <time>2017-05-24T12:34:15.999Z</time>
      </trkpt>
      <trkpt lat="44.88438" lon="5.23909">
        <ele>1427.7</ele>
        <time>2017-05-24T12:34:23.999Z</time>
      </trkpt>
      <trkpt lat="44.88428" lon="5.23908">
        <ele>1427.78</ele>
        <time>2017-05-24T12:34:32.999Z</time>
      </trkpt>
      <trkpt lat="44.88421" lon="5.23916">
        <ele>1427.72</ele>
        <time>2017-05-24T12:34:46.999Z</time>
      </trkpt>
      <trkpt lat="44.88414" lon="5.23926">
        <ele>1428.32</ele>
        <time>2017-05-24T12:34:54.999Z</time>
      </trkpt>
      <trkpt lat="44.88423" lon="5.23917">
        <ele>1429.95</ele>
        <time>2017-05-24T12:35:08.999Z</time>
      </trkpt>
      <trkpt lat="44.8843" lon="5.23907">
        <ele>1429.95</ele>
        <time>2017-05-24T12:35:16.999Z</time>
      </trkpt>
      <trkpt lat="44.88439" lon="5.2391">
        <ele>1430.1</ele>
        <time>2017-05-24T12:35:31.999Z</time>
      </trkpt>
      <trkpt lat="44.88446" lon="5.23918">
        <ele>1430.34</ele>
        <time>2017-05-24T12:35:42.999Z</time>
      </trkpt>
      <trkpt lat="44.88451" lon="5.2393">
        <ele>1429.67</ele>
        <time>2017-05-24T12:35:50.999Z</time>
      </trkpt>
      <trkpt lat="44.88456" lon="5.23941">
        <ele>1428.98</ele>
        <time>2017-05-24T12:35:57.999Z</time>
      </trkpt>
      <trkpt lat="44.88458" lon="5.23956">
        <ele>1428.24</ele>
        <time>2017-05-24T12:36:05.999Z</time>
      </trkpt>
      <trkpt lat="44.88463" lon="5.23969">
        <ele>1427.29</ele>
        <time>2017-05-24T12:36:12.999Z</time>
      </trkpt>
      <trkpt lat="44.88468" lon="5.23982">
        <ele>1426.45</ele>
        <time>2017-05-24T12:36:19.999Z</time>
      </trkpt>
      <trkpt lat="44.88473" lon="5.23995">
        <ele>1426.27</ele>
        <time>2017-05-24T12:36:26.999Z</time>
      </trkpt>
      <trkpt lat="44.88476" lon="5.24008">
        <ele>1426.85</ele>
        <time>2017-05-24T12:36:33.999Z</time>
      </trkpt>
      <trkpt lat="44.88482" lon="5.24018">
        <ele>1428.25</ele>
        <time>2017-05-24T12:36:45.999Z</time>
      </trkpt>
      <trkpt lat="44.88489" lon="5.24009">
        <ele>1430.08</ele>
        <time>2017-05-24T12:37:01.999Z</time>
      </trkpt>
      <trkpt lat="44.88493" lon="5.23996">
        <ele>1433.09</ele>
        <time>2017-05-24T12:37:17.999Z</time>
      </trkpt>
      <trkpt lat="44.88499" lon="5.23986">
        <ele>1436.7</ele>
        <time>2017-05-24T12:37:31.999Z</time>
      </trkpt>
      <trkpt lat="44.88508" lon="5.23981">
        <ele>1440.78</ele>
        <time>2017-05-24T12:37:47.999Z</time>
      </trkpt>
      <trkpt lat="44.88516" lon="5.23975">
        <ele>1444.95</ele>
        <time>2017-05-24T12:38:05.999Z</time>
      </trkpt>
      <trkpt lat="44.88524" lon="5.2397">
        <ele>1450.2</ele>
        <time>2017-05-24T12:38:25.999Z</time>
      </trkpt>
      <trkpt lat="44.88533" lon="5.23966">
        <ele>1453.99</ele>
        <time>2017-05-24T12:38:40.999Z</time>
      </trkpt>
      <trkpt lat="44.88543" lon="5.23968">
        <ele>1458.24</ele>
        <time>2017-05-24T12:38:54.999Z</time>
      </trkpt>
      <trkpt lat="44.88551" lon="5.23971">
        <ele>1462.09</ele>
        <time>2017-05-24T12:39:07.999Z</time>
      </trkpt>
      <trkpt lat="44.8856" lon="5.23965">
        <ele>1466.68</ele>
        <time>2017-05-24T12:39:22.999Z</time>
      </trkpt>
      <trkpt lat="44.88569" lon="5.23962">
        <ele>1470.28</ele>
        <time>2017-05-24T12:39:33.999Z</time>
      </trkpt>
      <trkpt lat="44.88578" lon="5.23962">
        <ele>1474.03</ele>
        <time>2017-05-24T12:39:48.999Z</time>
      </trkpt>
      <trkpt lat="44.88587" lon="5.23966">
        <ele>1479.53</ele>
        <time>2017-05-24T12:40:09.999Z</time>
      </trkpt>
      <trkpt lat="44.88596" lon="5.2397">
        <ele>1482.1</ele>
        <time>2017-05-24T12:40:19.999Z</time>
      </trkpt>
      <trkpt lat="44.88605" lon="5.23969">
        <ele>1486.27</ele>
        <time>2017-05-24T12:40:33.999Z</time>
      </trkpt>
      <trkpt lat="44.88615" lon="5.2397">
        <ele>1489.38</ele>
        <time>2017-05-24T12:40:44.999Z</time>
      </trkpt>
      <trkpt lat="44.88624" lon="5.23971">
        <ele>1492.34</ele>
        <time>2017-05-24T12:40:55.999Z</time>
      </trkpt>
      <trkpt lat="44.88634" lon="5.23972">
        <ele>1494.07</ele>
        <time>2017-05-24T12:41:04.999Z</time>
      </trkpt>
      <trkpt lat="44.88643" lon="5.23973">
        <ele>1497.83</ele>
        <time>2017-05-24T12:41:18.999Z</time>
      </trkpt>
      <trkpt lat="44.88651" lon="5.23966">
        <ele>1500.91</ele>
        <time>2017-05-24T12:41:34.999Z</time>
      </trkpt>
      <trkpt lat="44.8866" lon="5.23963">
        <ele>1506.26</ele>
        <time>2017-05-24T12:41:51.999Z</time>
      </trkpt>
      <trkpt lat="44.88668" lon="5.23957">
        <ele>1510.87</ele>
        <time>2017-05-24T12:42:08.999Z</time>
      </trkpt>
      <trkpt lat="44.88677" lon="5.23951">
        <ele>1513.8</ele>
        <time>2017-05-24T12:42:24.999Z</time>
      </trkpt>
      <trkpt lat="44.88685" lon="5.23948">
        <ele>1520.2</ele>
        <time>2017-05-24T12:42:46.999Z</time>
      </trkpt>
      <trkpt lat="44.88694" lon="5.23945">
        <ele>1524.23</ele>
        <time>2017-05-24T12:43:07.999Z</time>
      </trkpt>
      <trkpt lat="44.88704" lon="5.23945">
        <ele>1527.84</ele>
        <time>2017-05-24T12:43:24.999Z</time>
      </trkpt>
      <trkpt lat="44.88713" lon="5.23944">
        <ele>1532.98</ele>
        <time>2017-05-24T12:43:45.999Z</time>
      </trkpt>
      <trkpt lat="44.88722" lon="5.23941">
        <ele>1536.86</ele>
        <time>2017-05-24T12:44:00.999Z</time>
      </trkpt>
      <trkpt lat="44.8873" lon="5.23936">
        <ele>1542.63</ele>
        <time>2017-05-24T12:44:20.999Z</time>
      </trkpt>
      <trkpt lat="44.88739" lon="5.23939">
        <ele>1545.72</ele>
        <time>2017-05-24T12:44:33.999Z</time>
      </trkpt>
      <trkpt lat="44.88745" lon="5.23949">
        <ele>1550.07</ele>
        <time>2017-05-24T12:44:47.999Z</time>
      </trkpt>
      <trkpt lat="44.88753" lon="5.23956">
        <ele>1553.06</ele>
        <time>2017-05-24T12:44:57.999Z</time>
      </trkpt>
      <trkpt lat="44.8876" lon="5.23965">
        <ele>1554.95</ele>
        <time>2017-05-24T12:45:05.999Z</time>
      </trkpt>
      <trkpt lat="44.88768" lon="5.23972">
        <ele>1557.23</ele>
        <time>2017-05-24T12:45:16.999Z</time>
      </trkpt>
      <trkpt lat="44.88775" lon="5.23963">
        <ele>1561.74</ele>
        <time>2017-05-24T12:45:36.999Z</time>
      </trkpt>
      <trkpt lat="44.88776" lon="5.23949">
        <ele>1564.95</ele>
        <time>2017-05-24T12:45:49.999Z</time>
      </trkpt>
      <trkpt lat="44.88778" lon="5.23936">
        <ele>1567.12</ele>
        <time>2017-05-24T12:46:00.999Z</time>
      </trkpt>
      <trkpt lat="44.8878" lon="5.23923">
        <ele>1568.74</ele>
        <time>2017-05-24T12:46:08.999Z</time>
      </trkpt>
      <trkpt lat="44.88785" lon="5.23912">
        <ele>1571.49</ele>
        <time>2017-05-24T12:46:21.999Z</time>
      </trkpt>
      <trkpt lat="44.88788" lon="5.23899">
        <ele>1573.29</ele>
        <time>2017-05-24T12:46:29.999Z</time>
      </trkpt>
      <trkpt lat="44.88789" lon="5.23886">
        <ele>1577.08</ele>
        <time>2017-05-24T12:46:45.999Z</time>
      </trkpt>
      <trkpt lat="44.88796" lon="5.23895">
        <ele>1588.76</ele>
        <time>2017-05-24T12:49:00.999Z</time>
      </trkpt>
      <trkpt lat="44.88804" lon="5.23905">
        <ele>1589.2</ele>
        <time>2017-05-24T12:49:07.999Z</time>
      </trkpt>
      <trkpt lat="44.88813" lon="5.23911">
        <ele>1589.59</ele>
        <time>2017-05-24T12:49:16.999Z</time>
      </trkpt>
      <trkpt lat="44.88823" lon="5.23911">
        <ele>1589.44</ele>
        <time>2017-05-24T12:49:21.999Z</time>
      </trkpt>
      <trkpt lat="44.88831" lon="5.23915">
        <ele>1588.53</ele>
        <time>2017-05-24T12:49:28.999Z</time>
      </trkpt>
      <trkpt lat="44.88841" lon="5.2392">
        <ele>1588.1</ele>
        <time>2017-05-24T12:49:33.999Z</time>
      </trkpt>
      <trkpt lat="44.88848" lon="5.2393">
        <ele>1587.74</ele>
        <time>2017-05-24T12:49:38.999Z</time>
      </trkpt>
      <trkpt lat="44.88857" lon="5.23932">
        <ele>1587.89</ele>
        <time>2017-05-24T12:49:46.999Z</time>
      </trkpt>
      <trkpt lat="44.88867" lon="5.2393">
        <ele>1588.61</ele>
        <time>2017-05-24T12:49:55.999Z</time>
      </trkpt>
      <trkpt lat="44.88876" lon="5.23928">
        <ele>1589.58</ele>
        <time>2017-05-24T12:50:02.999Z</time>
      </trkpt>
      <trkpt lat="44.88887" lon="5.23923">
        <ele>1590.4</ele>
        <time>2017-05-24T12:50:12.999Z</time>
      </trkpt>
      <trkpt lat="44.88895" lon="5.23919">
        <ele>1591.69</ele>
        <time>2017-05-24T12:50:21.999Z</time>
      </trkpt>
      <trkpt lat="44.88905" lon="5.23914">
        <ele>1593.73</ele>
        <time>2017-05-24T12:50:34.999Z</time>
      </trkpt>
      <trkpt lat="44.88914" lon="5.23911">
        <ele>1596.09</ele>
        <time>2017-05-24T12:50:45.999Z</time>
      </trkpt>
      <trkpt lat="44.88924" lon="5.23908">
        <ele>1599.09</ele>
        <time>2017-05-24T12:50:57.999Z</time>
      </trkpt>
      <trkpt lat="44.88933" lon="5.23908">
        <ele>1600.73</ele>
        <time>2017-05-24T12:51:07.999Z</time>
      </trkpt>
      <trkpt lat="44.88942" lon="5.23911">
        <ele>1602.77</ele>
        <time>2017-05-24T12:51:18.999Z</time>
      </trkpt>
      <trkpt lat="44.88948" lon="5.23902">
        <ele>1606.59</ele>
        <time>2017-05-24T12:51:36.999Z</time>
      </trkpt>
      <trkpt lat="44.88956" lon="5.2391">
        <ele>1608.3</ele>
        <time>2017-05-24T12:51:48.999Z</time>
      </trkpt>
      <trkpt lat="44.88966" lon="5.23911">
        <ele>1609.6</ele>
        <time>2017-05-24T12:51:57.999Z</time>
      </trkpt>
      <trkpt lat="44.88976" lon="5.23911">
        <ele>1610.77</ele>
        <time>2017-05-24T12:52:05.999Z</time>
      </trkpt>
      <trkpt lat="44.88985" lon="5.2391">
        <ele>1612.88</ele>
        <time>2017-05-24T12:52:15.999Z</time>
      </trkpt>
      <trkpt lat="44.88995" lon="5.23907">
        <ele>1614.44</ele>
        <time>2017-05-24T12:52:24.999Z</time>
      </trkpt>
      <trkpt lat="44.89003" lon="5.239">
        <ele>1616.03</ele>
        <time>2017-05-24T12:52:34.999Z</time>
      </trkpt>
      <trkpt lat="44.89011" lon="5.23893">
        <ele>1617.67</ele>
        <time>2017-05-24T12:52:47.999Z</time>
      </trkpt>
      <trkpt lat="44.89012" lon="5.23906">
        <ele>1624.93</ele>
        <time>2017-05-24T12:53:58.999Z</time>
      </trkpt>
      <trkpt lat="44.89003" lon="5.23905">
        <ele>1626.34</ele>
        <time>2017-05-24T12:55:02.999Z</time>
      </trkpt>
      <trkpt lat="44.88994" lon="5.239">
        <ele>1626</ele>
        <time>2017-05-24T12:55:09.999Z</time>
      </trkpt>
      <trkpt lat="44.88985" lon="5.23903">
        <ele>1625.69</ele>
        <time>2017-05-24T12:55:16.999Z</time>
      </trkpt>
      <trkpt lat="44.88977" lon="5.2391">
        <ele>1625.01</ele>
        <time>2017-05-24T12:55:26.999Z</time>
      </trkpt>
      <trkpt lat="44.88968" lon="5.23906">
        <ele>1623.57</ele>
        <time>2017-05-24T12:55:40.999Z</time>
      </trkpt>
      <trkpt lat="44.88959" lon="5.23908">
        <ele>1623.25</ele>
        <time>2017-05-24T12:55:44.999Z</time>
      </trkpt>
      <trkpt lat="44.8895" lon="5.23907">
        <ele>1622.66</ele>
        <time>2017-05-24T12:55:52.999Z</time>
      </trkpt>
      <trkpt lat="44.8894" lon="5.23905">
        <ele>1620.07</ele>
        <time>2017-05-24T12:56:14.999Z</time>
      </trkpt>
      <trkpt lat="44.88931" lon="5.23902">
        <ele>1618.91</ele>
        <time>2017-05-24T12:56:23.999Z</time>
      </trkpt>
      <trkpt lat="44.88923" lon="5.23897">
        <ele>1618.04</ele>
        <time>2017-05-24T12:56:29.999Z</time>
      </trkpt>
      <trkpt lat="44.88913" lon="5.239">
        <ele>1613.66</ele>
        <time>2017-05-24T12:56:57.999Z</time>
      </trkpt>
      <trkpt lat="44.88904" lon="5.23905">
        <ele>1612.57</ele>
        <time>2017-05-24T12:57:05.999Z</time>
      </trkpt>
      <trkpt lat="44.88895" lon="5.23909">
        <ele>1611.65</ele>
        <time>2017-05-24T12:57:12.999Z</time>
      </trkpt>
      <trkpt lat="44.88886" lon="5.23914">
        <ele>1610.45</ele>
        <time>2017-05-24T12:57:19.999Z</time>
      </trkpt>
      <trkpt lat="44.88876" lon="5.23919">
        <ele>1609.05</ele>
        <time>2017-05-24T12:57:26.999Z</time>
      </trkpt>
      <trkpt lat="44.88866" lon="5.2392">
        <ele>1607.29</ele>
        <time>2017-05-24T12:57:34.999Z</time>
      </trkpt>
      <trkpt lat="44.8886" lon="5.2393">
        <ele>1605.11</ele>
        <time>2017-05-24T12:57:42.999Z</time>
      </trkpt>
      <trkpt lat="44.88853" lon="5.23938">
        <ele>1603.38</ele>
        <time>2017-05-24T12:57:49.999Z</time>
      </trkpt>
      <trkpt lat="44.88846" lon="5.23948">
        <ele>1601.25</ele>
        <time>2017-05-24T12:57:57.999Z</time>
      </trkpt>
      <trkpt lat="44.88837" lon="5.23949">
        <ele>1598.51</ele>
        <time>2017-05-24T12:58:07.999Z</time>
      </trkpt>
      <trkpt lat="44.8883" lon="5.23941">
        <ele>1596.33</ele>
        <time>2017-05-24T12:58:15.999Z</time>
      </trkpt>
      <trkpt lat="44.88823" lon="5.2393">
        <ele>1593.28</ele>
        <time>2017-05-24T12:58:24.999Z</time>
      </trkpt>
      <trkpt lat="44.88816" lon="5.23921">
        <ele>1591.47</ele>
        <time>2017-05-24T12:58:30.999Z</time>
      </trkpt>
      <trkpt lat="44.88811" lon="5.23908">
        <ele>1590.5</ele>
        <time>2017-05-24T12:58:36.999Z</time>
      </trkpt>
      <trkpt lat="44.88803" lon="5.23901">
        <ele>1590.33</ele>
        <time>2017-05-24T12:58:43.999Z</time>
      </trkpt>
      <trkpt lat="44.88796" lon="5.23894">
        <ele>1589.77</ele>
        <time>2017-05-24T12:58:51.999Z</time>
      </trkpt>
      <trkpt lat="44.88789" lon="5.23885">
        <ele>1589.96</ele>
        <time>2017-05-24T12:59:02.999Z</time>
      </trkpt>
      <trkpt lat="44.88787" lon="5.23899">
        <ele>1589.82</ele>
        <time>2017-05-24T12:59:12.999Z</time>
      </trkpt>
      <trkpt lat="44.88783" lon="5.23911">
        <ele>1589.77</ele>
        <time>2017-05-24T12:59:20.999Z</time>
      </trkpt>
      <trkpt lat="44.88781" lon="5.23924">
        <ele>1589.52</ele>
        <time>2017-05-24T12:59:30.999Z</time>
      </trkpt>
      <trkpt lat="44.88787" lon="5.23936">
        <ele>1588.48</ele>
        <time>2017-05-24T12:59:38.999Z</time>
      </trkpt>
      <trkpt lat="44.88792" lon="5.23946">
        <ele>1587.64</ele>
        <time>2017-05-24T12:59:44.999Z</time>
      </trkpt>
      <trkpt lat="44.88789" lon="5.23958">
        <ele>1587.01</ele>
        <time>2017-05-24T12:59:50.999Z</time>
      </trkpt>
      <trkpt lat="44.8878" lon="5.23964">
        <ele>1584.99</ele>
        <time>2017-05-24T13:00:00.999Z</time>
      </trkpt>
      <trkpt lat="44.88772" lon="5.23971">
        <ele>1582.54</ele>
        <time>2017-05-24T13:00:11.999Z</time>
      </trkpt>
      <trkpt lat="44.88763" lon="5.23966">
        <ele>1579.79</ele>
        <time>2017-05-24T13:00:29.999Z</time>
      </trkpt>
      <trkpt lat="44.88754" lon="5.2396">
        <ele>1577.56</ele>
        <time>2017-05-24T13:00:40.999Z</time>
      </trkpt>
      <trkpt lat="44.88746" lon="5.23951">
        <ele>1575.84</ele>
        <time>2017-05-24T13:00:48.999Z</time>
      </trkpt>
      <trkpt lat="44.88738" lon="5.23943">
        <ele>1574.1</ele>
        <time>2017-05-24T13:00:55.999Z</time>
      </trkpt>
      <trkpt lat="44.8873" lon="5.23935">
        <ele>1571.83</ele>
        <time>2017-05-24T13:01:07.999Z</time>
      </trkpt>
      <trkpt lat="44.8872" lon="5.2394">
        <ele>1568.18</ele>
        <time>2017-05-24T13:01:24.999Z</time>
      </trkpt>
      <trkpt lat="44.88712" lon="5.23946">
        <ele>1564.01</ele>
        <time>2017-05-24T13:01:42.999Z</time>
      </trkpt>
      <trkpt lat="44.88703" lon="5.23946">
        <ele>1559.47</ele>
        <time>2017-05-24T13:01:57.999Z</time>
      </trkpt>
      <trkpt lat="44.88693" lon="5.23946">
        <ele>1553.26</ele>
        <time>2017-05-24T13:02:16.999Z</time>
      </trkpt>
      <trkpt lat="44.88684" lon="5.23946">
        <ele>1548.73</ele>
        <time>2017-05-24T13:02:32.999Z</time>
      </trkpt>
      <trkpt lat="44.88676" lon="5.23952">
        <ele>1543.23</ele>
        <time>2017-05-24T13:02:49.999Z</time>
      </trkpt>
      <trkpt lat="44.88667" lon="5.23947">
        <ele>1541.26</ele>
        <time>2017-05-24T13:02:57.999Z</time>
      </trkpt>
      <trkpt lat="44.88657" lon="5.23948">
        <ele>1538.32</ele>
        <time>2017-05-24T13:03:09.999Z</time>
      </trkpt>
      <trkpt lat="44.88647" lon="5.23944">
        <ele>1536.16</ele>
        <time>2017-05-24T13:03:16.999Z</time>
      </trkpt>
      <trkpt lat="44.88637" lon="5.23943">
        <ele>1533.66</ele>
        <time>2017-05-24T13:03:23.999Z</time>
      </trkpt>
      <trkpt lat="44.88628" lon="5.2394">
        <ele>1531.74</ele>
        <time>2017-05-24T13:03:30.999Z</time>
      </trkpt>
      <trkpt lat="44.88621" lon="5.23932">
        <ele>1528.18</ele>
        <time>2017-05-24T13:03:49.999Z</time>
      </trkpt>
      <trkpt lat="44.88612" lon="5.23928">
        <ele>1524.93</ele>
        <time>2017-05-24T13:04:13.999Z</time>
      </trkpt>
      <trkpt lat="44.88611" lon="5.23941">
        <ele>1522.03</ele>
        <time>2017-05-24T13:05:15.999Z</time>
      </trkpt>
      <trkpt lat="44.88611" lon="5.23953">
        <ele>1520.55</ele>
        <time>2017-05-24T13:05:51.999Z</time>
      </trkpt>
      <trkpt lat="44.88602" lon="5.23959">
        <ele>1517.91</ele>
        <time>2017-05-24T13:06:10.999Z</time>
      </trkpt>
      <trkpt lat="44.88594" lon="5.23962">
        <ele>1512.46</ele>
        <time>2017-05-24T13:06:34.999Z</time>
      </trkpt>
      <trkpt lat="44.88584" lon="5.23959">
        <ele>1509.13</ele>
        <time>2017-05-24T13:06:46.999Z</time>
      </trkpt>
      <trkpt lat="44.88575" lon="5.23961">
        <ele>1506.18</ele>
        <time>2017-05-24T13:06:56.999Z</time>
      </trkpt>
      <trkpt lat="44.88566" lon="5.23965">
        <ele>1503.56</ele>
        <time>2017-05-24T13:07:06.999Z</time>
      </trkpt>
      <trkpt lat="44.88557" lon="5.2397">
        <ele>1501.16</ele>
        <time>2017-05-24T13:07:16.999Z</time>
      </trkpt>
      <trkpt lat="44.8855" lon="5.23978">
        <ele>1498.11</ele>
        <time>2017-05-24T13:07:33.999Z</time>
      </trkpt>
      <trkpt lat="44.8854" lon="5.23978">
        <ele>1494.37</ele>
        <time>2017-05-24T13:07:46.999Z</time>
      </trkpt>
      <trkpt lat="44.88531" lon="5.23975">
        <ele>1491.26</ele>
        <time>2017-05-24T13:07:55.999Z</time>
      </trkpt>
      <trkpt lat="44.88522" lon="5.23975">
        <ele>1486.9</ele>
        <time>2017-05-24T13:08:07.999Z</time>
      </trkpt>
      <trkpt lat="44.88513" lon="5.2398">
        <ele>1479.16</ele>
        <time>2017-05-24T13:08:29.999Z</time>
      </trkpt>
      <trkpt lat="44.88504" lon="5.23986">
        <ele>1471.77</ele>
        <time>2017-05-24T13:08:52.999Z</time>
      </trkpt>
      <trkpt lat="44.88499" lon="5.23997">
        <ele>1465.58</ele>
        <time>2017-05-24T13:09:15.999Z</time>
      </trkpt>
      <trkpt lat="44.88493" lon="5.24006">
        <ele>1462.04</ele>
        <time>2017-05-24T13:09:27.999Z</time>
      </trkpt>
      <trkpt lat="44.88487" lon="5.24017">
        <ele>1452.44</ele>
        <time>2017-05-24T13:10:00.999Z</time>
      </trkpt>
      <trkpt lat="44.88477" lon="5.24019">
        <ele>1447.66</ele>
        <time>2017-05-24T13:10:17.999Z</time>
      </trkpt>
      <trkpt lat="44.88474" lon="5.24031">
        <ele>1444.81</ele>
        <time>2017-05-24T13:10:27.999Z</time>
      </trkpt>
      <trkpt lat="44.88465" lon="5.24031">
        <ele>1441.74</ele>
        <time>2017-05-24T13:10:38.999Z</time>
      </trkpt>
      <trkpt lat="44.88458" lon="5.24039">
        <ele>1438.42</ele>
        <time>2017-05-24T13:10:55.999Z</time>
      </trkpt>
      <trkpt lat="44.88449" lon="5.24045">
        <ele>1434.82</ele>
        <time>2017-05-24T13:11:11.999Z</time>
      </trkpt>
      <trkpt lat="44.88442" lon="5.24053">
        <ele>1432.82</ele>
        <time>2017-05-24T13:11:21.999Z</time>
      </trkpt>
      <trkpt lat="44.88433" lon="5.24055">
        <ele>1429.44</ele>
        <time>2017-05-24T13:11:33.999Z</time>
      </trkpt>
      <trkpt lat="44.88432" lon="5.24068">
        <ele>1421.49</ele>
        <time>2017-05-24T13:12:08.999Z</time>
      </trkpt>
      <trkpt lat="44.88433" lon="5.24056">
        <ele>1417.88</ele>
        <time>2017-05-24T13:12:35.999Z</time>
      </trkpt>
      <trkpt lat="44.88423" lon="5.24056">
        <ele>1415.15</ele>
        <time>2017-05-24T13:12:53.999Z</time>
      </trkpt>
      <trkpt lat="44.88414" lon="5.24057">
        <ele>1414.56</ele>
        <time>2017-05-24T13:12:58.999Z</time>
      </trkpt>
      <trkpt lat="44.88405" lon="5.24057">
        <ele>1413.95</ele>
        <time>2017-05-24T13:13:03.999Z</time>
      </trkpt>
      <trkpt lat="44.88395" lon="5.24055">
        <ele>1412.8</ele>
        <time>2017-05-24T13:13:09.999Z</time>
      </trkpt>
      <trkpt lat="44.88386" lon="5.24053">
        <ele>1412.19</ele>
        <time>2017-05-24T13:13:14.999Z</time>
      </trkpt>
      <trkpt lat="44.88376" lon="5.24052">
        <ele>1411.58</ele>
        <time>2017-05-24T13:13:20.999Z</time>
      </trkpt>
      <trkpt lat="44.88366" lon="5.2405">
        <ele>1411.01</ele>
        <time>2017-05-24T13:13:26.999Z</time>
      </trkpt>
      <trkpt lat="44.88355" lon="5.24048">
        <ele>1410.84</ele>
        <time>2017-05-24T13:13:32.999Z</time>
      </trkpt>
      <trkpt lat="44.88346" lon="5.24045">
        <ele>1410.56</ele>
        <time>2017-05-24T13:13:38.999Z</time>
      </trkpt>
      <trkpt lat="44.88336" lon="5.24041">
        <ele>1410.69</ele>
        <time>2017-05-24T13:13:45.999Z</time>
      </trkpt>
      <trkpt lat="44.88325" lon="5.24038">
        <ele>1410.89</ele>
        <time>2017-05-24T13:13:52.999Z</time>
      </trkpt>
      <trkpt lat="44.88316" lon="5.24036">
        <ele>1410.93</ele>
        <time>2017-05-24T13:13:58.999Z</time>
      </trkpt>
      <trkpt lat="44.88308" lon="5.24033">
        <ele>1411.24</ele>
        <time>2017-05-24T13:14:04.999Z</time>
      </trkpt>
      <trkpt lat="44.88298" lon="5.2403">
        <ele>1411.51</ele>
        <time>2017-05-24T13:14:10.999Z</time>
      </trkpt>
      <trkpt lat="44.88289" lon="5.24026">
        <ele>1411.84</ele>
        <time>2017-05-24T13:14:17.999Z</time>
      </trkpt>
      <trkpt lat="44.8828" lon="5.24025">
        <ele>1412.41</ele>
        <time>2017-05-24T13:14:24.999Z</time>
      </trkpt>
      <trkpt lat="44.88271" lon="5.24028">
        <ele>1412.87</ele>
        <time>2017-05-24T13:14:30.999Z</time>
      </trkpt>
      <trkpt lat="44.88261" lon="5.24029">
        <ele>1413.88</ele>
        <time>2017-05-24T13:14:37.999Z</time>
      </trkpt>
      <trkpt lat="44.88251" lon="5.2403">
        <ele>1414.53</ele>
        <time>2017-05-24T13:14:43.999Z</time>
      </trkpt>
      <trkpt lat="44.88242" lon="5.24033">
        <ele>1415.17</ele>
        <time>2017-05-24T13:14:49.999Z</time>
      </trkpt>
      <trkpt lat="44.88232" lon="5.24037">
        <ele>1415.63</ele>
        <time>2017-05-24T13:14:55.999Z</time>
      </trkpt>
      <trkpt lat="44.88223" lon="5.2404">
        <ele>1416.08</ele>
        <time>2017-05-24T13:15:02.999Z</time>
      </trkpt>
      <trkpt lat="44.88213" lon="5.24041">
        <ele>1416.41</ele>
        <time>2017-05-24T13:15:07.999Z</time>
      </trkpt>
      <trkpt lat="44.88204" lon="5.24036">
        <ele>1416.48</ele>
        <time>2017-05-24T13:15:15.999Z</time>
      </trkpt>
      <trkpt lat="44.88194" lon="5.24036">
        <ele>1416.42</ele>
        <time>2017-05-24T13:15:22.999Z</time>
      </trkpt>
      <trkpt lat="44.88185" lon="5.24033">
        <ele>1416.32</ele>
        <time>2017-05-24T13:15:28.999Z</time>
      </trkpt>
      <trkpt lat="44.88175" lon="5.24029">
        <ele>1415.94</ele>
        <time>2017-05-24T13:15:35.999Z</time>
      </trkpt>
      <trkpt lat="44.88166" lon="5.24027">
        <ele>1415.61</ele>
        <time>2017-05-24T13:15:42.999Z</time>
      </trkpt>
      <trkpt lat="44.88158" lon="5.24021">
        <ele>1414.72</ele>
        <time>2017-05-24T13:15:50.999Z</time>
      </trkpt>
      <trkpt lat="44.88147" lon="5.2402">
        <ele>1413.52</ele>
        <time>2017-05-24T13:15:57.999Z</time>
      </trkpt>
      <trkpt lat="44.88138" lon="5.24019">
        <ele>1412.93</ele>
        <time>2017-05-24T13:16:02.999Z</time>
      </trkpt>
      <trkpt lat="44.88129" lon="5.24017">
        <ele>1411.72</ele>
        <time>2017-05-24T13:16:10.999Z</time>
      </trkpt>
      <trkpt lat="44.88119" lon="5.24016">
        <ele>1410.74</ele>
        <time>2017-05-24T13:16:18.999Z</time>
      </trkpt>
      <trkpt lat="44.8811" lon="5.24015">
        <ele>1409.84</ele>
        <time>2017-05-24T13:16:25.999Z</time>
      </trkpt>
      <trkpt lat="44.88101" lon="5.2402">
        <ele>1409.11</ele>
        <time>2017-05-24T13:16:31.999Z</time>
      </trkpt>
      <trkpt lat="44.88091" lon="5.24028">
        <ele>1408.53</ele>
        <time>2017-05-24T13:16:36.999Z</time>
      </trkpt>
      <trkpt lat="44.88082" lon="5.24035">
        <ele>1407.94</ele>
        <time>2017-05-24T13:16:41.999Z</time>
      </trkpt>
      <trkpt lat="44.88072" lon="5.24035">
        <ele>1407.41</ele>
        <time>2017-05-24T13:16:46.999Z</time>
      </trkpt>
      <trkpt lat="44.88063" lon="5.24035">
        <ele>1406.87</ele>
        <time>2017-05-24T13:16:51.999Z</time>
      </trkpt>
      <trkpt lat="44.88054" lon="5.24036">
        <ele>1406.5</ele>
        <time>2017-05-24T13:16:55.999Z</time>
      </trkpt>
      <trkpt lat="44.88044" lon="5.2404">
        <ele>1405.62</ele>
        <time>2017-05-24T13:17:02.999Z</time>
      </trkpt>
      <trkpt lat="44.88034" lon="5.24042">
        <ele>1405.14</ele>
        <time>2017-05-24T13:17:08.999Z</time>
      </trkpt>
      <trkpt lat="44.88026" lon="5.24047">
        <ele>1404.8</ele>
        <time>2017-05-24T13:17:15.999Z</time>
      </trkpt>
      <trkpt lat="44.88017" lon="5.24052">
        <ele>1404.52</ele>
        <time>2017-05-24T13:17:21.999Z</time>
      </trkpt>
      <trkpt lat="44.88008" lon="5.24056">
        <ele>1404.03</ele>
        <time>2017-05-24T13:17:27.999Z</time>
      </trkpt>
      <trkpt lat="44.87998" lon="5.24056">
        <ele>1403.58</ele>
        <time>2017-05-24T13:17:34.999Z</time>
      </trkpt>
      <trkpt lat="44.87989" lon="5.24056">
        <ele>1402.44</ele>
        <time>2017-05-24T13:17:40.999Z</time>
      </trkpt>
      <trkpt lat="44.87978" lon="5.24057">
        <ele>1401.53</ele>
        <time>2017-05-24T13:17:46.999Z</time>
      </trkpt>
      <trkpt lat="44.87969" lon="5.24058">
        <ele>1401.01</ele>
        <time>2017-05-24T13:17:53.999Z</time>
      </trkpt>
      <trkpt lat="44.87959" lon="5.2406">
        <ele>1400.36</ele>
        <time>2017-05-24T13:17:59.999Z</time>
      </trkpt>
      <trkpt lat="44.8795" lon="5.24057">
        <ele>1398.82</ele>
        <time>2017-05-24T13:18:06.999Z</time>
      </trkpt>
      <trkpt lat="44.8794" lon="5.2405">
        <ele>1398.28</ele>
        <time>2017-05-24T13:18:12.999Z</time>
      </trkpt>
      <trkpt lat="44.8793" lon="5.24046">
        <ele>1397.33</ele>
        <time>2017-05-24T13:18:19.999Z</time>
      </trkpt>
      <trkpt lat="44.87922" lon="5.24041">
        <ele>1396.58</ele>
        <time>2017-05-24T13:18:24.999Z</time>
      </trkpt>
      <trkpt lat="44.87913" lon="5.24035">
        <ele>1395.39</ele>
        <time>2017-05-24T13:18:30.999Z</time>
      </trkpt>
      <trkpt lat="44.87906" lon="5.24027">
        <ele>1394.53</ele>
        <time>2017-05-24T13:18:36.999Z</time>
      </trkpt>
      <trkpt lat="44.87896" lon="5.24022">
        <ele>1392.91</ele>
        <time>2017-05-24T13:18:44.999Z</time>
      </trkpt>
      <trkpt lat="44.87888" lon="5.24017">
        <ele>1391.2</ele>
        <time>2017-05-24T13:18:50.999Z</time>
      </trkpt>
      <trkpt lat="44.87879" lon="5.24013">
        <ele>1388.53</ele>
        <time>2017-05-24T13:19:03.999Z</time>
      </trkpt>
      <trkpt lat="44.87884" lon="5.24003">
        <ele>1385.67</ele>
        <time>2017-05-24T13:19:30.999Z</time>
      </trkpt>
      <trkpt lat="44.87876" lon="5.24011">
        <ele>1383.48</ele>
        <time>2017-05-24T13:19:44.999Z</time>
      </trkpt>
      <trkpt lat="44.87866" lon="5.24012">
        <ele>1382.68</ele>
        <time>2017-05-24T13:19:52.999Z</time>
      </trkpt>
      <trkpt lat="44.87856" lon="5.24011">
        <ele>1382.11</ele>
        <time>2017-05-24T13:19:57.999Z</time>
      </trkpt>
      <trkpt lat="44.87846" lon="5.2401">
        <ele>1381.41</ele>
        <time>2017-05-24T13:20:02.999Z</time>
      </trkpt>
      <trkpt lat="44.87836" lon="5.24013">
        <ele>1381.08</ele>
        <time>2017-05-24T13:20:08.999Z</time>
      </trkpt>
      <trkpt lat="44.87827" lon="5.24018">
        <ele>1380.87</ele>
        <time>2017-05-24T13:20:14.999Z</time>
      </trkpt>
      <trkpt lat="44.87818" lon="5.24012">
        <ele>1380.27</ele>
        <time>2017-05-24T13:20:23.999Z</time>
      </trkpt>
      <trkpt lat="44.87815" lon="5.23999">
        <ele>1379.9</ele>
        <time>2017-05-24T13:20:28.999Z</time>
      </trkpt>
      <trkpt lat="44.87804" lon="5.23999">
        <ele>1377.73</ele>
        <time>2017-05-24T13:21:18.999Z</time>
      </trkpt>
      <trkpt lat="44.87796" lon="5.24002">
        <ele>1377.73</ele>
        <time>2017-05-24T13:21:23.999Z</time>
      </trkpt>
      <trkpt lat="44.87786" lon="5.24004">
        <ele>1377.61</ele>
        <time>2017-05-24T13:21:28.999Z</time>
      </trkpt>
      <trkpt lat="44.87776" lon="5.24005">
        <ele>1377.77</ele>
        <time>2017-05-24T13:21:35.999Z</time>
      </trkpt>
      <trkpt lat="44.87766" lon="5.24005">
        <ele>1378.19</ele>
        <time>2017-05-24T13:21:42.999Z</time>
      </trkpt>
      <trkpt lat="44.87756" lon="5.24001">
        <ele>1378.42</ele>
        <time>2017-05-24T13:21:50.999Z</time>
      </trkpt>
      <trkpt lat="44.87747" lon="5.23996">
        <ele>1378.5</ele>
        <time>2017-05-24T13:21:57.999Z</time>
      </trkpt>
      <trkpt lat="44.87738" lon="5.2399">
        <ele>1378.77</ele>
        <time>2017-05-24T13:22:05.999Z</time>
      </trkpt>
      <trkpt lat="44.87732" lon="5.23982">
        <ele>1379.01</ele>
        <time>2017-05-24T13:22:11.999Z</time>
      </trkpt>
      <trkpt lat="44.87721" lon="5.23979">
        <ele>1379.93</ele>
        <time>2017-05-24T13:22:18.999Z</time>
      </trkpt>
      <trkpt lat="44.87712" lon="5.23977">
        <ele>1381.38</ele>
        <time>2017-05-24T13:22:26.999Z</time>
      </trkpt>
      <trkpt lat="44.87702" lon="5.23979">
        <ele>1381.93</ele>
        <time>2017-05-24T13:22:42.999Z</time>
      </trkpt>
      <trkpt lat="44.87693" lon="5.23982">
        <ele>1382.19</ele>
        <time>2017-05-24T13:22:47.999Z</time>
      </trkpt>
      <trkpt lat="44.87682" lon="5.2398">
        <ele>1382.69</ele>
        <time>2017-05-24T13:22:53.999Z</time>
      </trkpt>
      <trkpt lat="44.87677" lon="5.2397">
        <ele>1383</ele>
        <time>2017-05-24T13:22:58.999Z</time>
      </trkpt>
      <trkpt lat="44.8768" lon="5.23983">
        <ele>1384.31</ele>
        <time>2017-05-24T13:23:11.999Z</time>
      </trkpt>
      <trkpt lat="44.87672" lon="5.23985">
        <ele>1383.58</ele>
        <time>2017-05-24T13:24:29.999Z</time>
      </trkpt>
      <trkpt lat="44.8768" lon="5.2398">
        <ele>1382.93</ele>
        <time>2017-05-24T13:25:05.999Z</time>
      </trkpt>
      <trkpt lat="44.87673" lon="5.23988">
        <ele>1383.11</ele>
        <time>2017-05-24T13:25:22.999Z</time>
      </trkpt>
      <trkpt lat="44.87662" lon="5.23994">
        <ele>1383.21</ele>
        <time>2017-05-24T13:25:25.999Z</time>
      </trkpt>
      <trkpt lat="44.87654" lon="5.24003">
        <ele>1383.23</ele>
        <time>2017-05-24T13:25:28.999Z</time>
      </trkpt>
      <trkpt lat="44.87644" lon="5.24">
        <ele>1382.96</ele>
        <time>2017-05-24T13:25:32.999Z</time>
      </trkpt>
      <trkpt lat="44.87644" lon="5.23985">
        <ele>1382.55</ele>
        <time>2017-05-24T13:25:37.999Z</time>
      </trkpt>
      <trkpt lat="44.87636" lon="5.23995">
        <ele>1381.59</ele>
        <time>2017-05-24T13:25:50.999Z</time>
      </trkpt>
      <trkpt lat="44.87629" lon="5.24005">
        <ele>1381.39</ele>
        <time>2017-05-24T13:25:56.999Z</time>
      </trkpt>
      <trkpt lat="44.8762" lon="5.24006">
        <ele>1381.22</ele>
        <time>2017-05-24T13:26:04.999Z</time>
      </trkpt>
      <trkpt lat="44.87611" lon="5.23998">
        <ele>1380.9</ele>
        <time>2017-05-24T13:26:11.999Z</time>
      </trkpt>
      <trkpt lat="44.87602" lon="5.23992">
        <ele>1380.74</ele>
        <time>2017-05-24T13:26:18.999Z</time>
      </trkpt>
      <trkpt lat="44.87597" lon="5.2398">
        <ele>1380.54</ele>
        <time>2017-05-24T13:26:24.999Z</time>
      </trkpt>
      <trkpt lat="44.87587" lon="5.23981">
        <ele>1380.09</ele>
        <time>2017-05-24T13:26:39.999Z</time>
      </trkpt>
      <trkpt lat="44.87578" lon="5.23985">
        <ele>1380.19</ele>
        <time>2017-05-24T13:26:45.999Z</time>
      </trkpt>
      <trkpt lat="44.87569" lon="5.2399">
        <ele>1380.3</ele>
        <time>2017-05-24T13:26:52.999Z</time>
      </trkpt>
      <trkpt lat="44.8756" lon="5.23997">
        <ele>1380.28</ele>
        <time>2017-05-24T13:26:56.999Z</time>
      </trkpt>
      <trkpt lat="44.8755" lon="5.24003">
        <ele>1380.34</ele>
        <time>2017-05-24T13:27:01.999Z</time>
      </trkpt>
      <trkpt lat="44.87544" lon="5.24011">
        <ele>1380.21</ele>
        <time>2017-05-24T13:27:05.999Z</time>
      </trkpt>
      <trkpt lat="44.87536" lon="5.24018">
        <ele>1380.26</ele>
        <time>2017-05-24T13:27:10.999Z</time>
      </trkpt>
      <trkpt lat="44.87527" lon="5.24012">
        <ele>1380.13</ele>
        <time>2017-05-24T13:27:15.999Z</time>
      </trkpt>
      <trkpt lat="44.87517" lon="5.24015">
        <ele>1378.76</ele>
        <time>2017-05-24T13:27:29.999Z</time>
      </trkpt>
      <trkpt lat="44.87511" lon="5.24027">
        <ele>1378.34</ele>
        <time>2017-05-24T13:27:33.999Z</time>
      </trkpt>
      <trkpt lat="44.87504" lon="5.24036">
        <ele>1377.95</ele>
        <time>2017-05-24T13:27:37.999Z</time>
      </trkpt>
      <trkpt lat="44.87495" lon="5.24039">
        <ele>1377.29</ele>
        <time>2017-05-24T13:27:42.999Z</time>
      </trkpt>
      <trkpt lat="44.87485" lon="5.24043">
        <ele>1377.1</ele>
        <time>2017-05-24T13:27:46.999Z</time>
      </trkpt>
      <trkpt lat="44.87474" lon="5.24048">
        <ele>1376.53</ele>
        <time>2017-05-24T13:27:51.999Z</time>
      </trkpt>
      <trkpt lat="44.87468" lon="5.24059">
        <ele>1376.01</ele>
        <time>2017-05-24T13:27:56.999Z</time>
      </trkpt>
      <trkpt lat="44.8746" lon="5.24071">
        <ele>1375.6</ele>
        <time>2017-05-24T13:28:01.999Z</time>
      </trkpt>
      <trkpt lat="44.87452" lon="5.24077">
        <ele>1374.98</ele>
        <time>2017-05-24T13:28:05.999Z</time>
      </trkpt>
      <trkpt lat="44.87444" lon="5.24086">
        <ele>1374.19</ele>
        <time>2017-05-24T13:28:09.999Z</time>
      </trkpt>
      <trkpt lat="44.87434" lon="5.24093">
        <ele>1373.2</ele>
        <time>2017-05-24T13:28:14.999Z</time>
      </trkpt>
      <trkpt lat="44.87425" lon="5.24096">
        <ele>1372.55</ele>
        <time>2017-05-24T13:28:18.999Z</time>
      </trkpt>
      <trkpt lat="44.87416" lon="5.24102">
        <ele>1371.95</ele>
        <time>2017-05-24T13:28:22.999Z</time>
      </trkpt>
      <trkpt lat="44.87407" lon="5.24109">
        <ele>1371.38</ele>
        <time>2017-05-24T13:28:26.999Z</time>
      </trkpt>
      <trkpt lat="44.87398" lon="5.24116">
        <ele>1370.78</ele>
        <time>2017-05-24T13:28:30.999Z</time>
      </trkpt>
      <trkpt lat="44.87389" lon="5.24119">
        <ele>1369.61</ele>
        <time>2017-05-24T13:28:36.999Z</time>
      </trkpt>
      <trkpt lat="44.87379" lon="5.24114">
        <ele>1368.22</ele>
        <time>2017-05-24T13:28:42.999Z</time>
      </trkpt>
      <trkpt lat="44.8737" lon="5.24109">
        <ele>1366.62</ele>
        <time>2017-05-24T13:28:49.999Z</time>
      </trkpt>
      <trkpt lat="44.87368" lon="5.24095">
        <ele>1365.1</ele>
        <time>2017-05-24T13:28:58.999Z</time>
      </trkpt>
      <trkpt lat="44.87365" lon="5.24081">
        <ele>1363.92</ele>
        <time>2017-05-24T13:29:03.999Z</time>
      </trkpt>
      <trkpt lat="44.87368" lon="5.24069">
        <ele>1362</ele>
        <time>2017-05-24T13:29:11.999Z</time>
      </trkpt>
      <trkpt lat="44.87361" lon="5.24079">
        <ele>1359.29</ele>
        <time>2017-05-24T13:29:21.999Z</time>
      </trkpt>
      <trkpt lat="44.87355" lon="5.24093">
        <ele>1358.8</ele>
        <time>2017-05-24T13:29:25.999Z</time>
      </trkpt>
      <trkpt lat="44.87351" lon="5.24106">
        <ele>1358.19</ele>
        <time>2017-05-24T13:29:32.999Z</time>
      </trkpt>
      <trkpt lat="44.87342" lon="5.2411">
        <ele>1358.03</ele>
        <time>2017-05-24T13:29:41.999Z</time>
      </trkpt>
      <trkpt lat="44.87333" lon="5.24108">
        <ele>1357.83</ele>
        <time>2017-05-24T13:29:48.999Z</time>
      </trkpt>
      <trkpt lat="44.87326" lon="5.24098">
        <ele>1357.42</ele>
        <time>2017-05-24T13:29:54.999Z</time>
      </trkpt>
      <trkpt lat="44.87325" lon="5.24085">
        <ele>1357.11</ele>
        <time>2017-05-24T13:30:00.999Z</time>
      </trkpt>
      <trkpt lat="44.87331" lon="5.24072">
        <ele>1356.99</ele>
        <time>2017-05-24T13:30:04.999Z</time>
      </trkpt>
      <trkpt lat="44.87324" lon="5.24082">
        <ele>1357.17</ele>
        <time>2017-05-24T13:30:48.999Z</time>
      </trkpt>
      <trkpt lat="44.87316" lon="5.24088">
        <ele>1357.45</ele>
        <time>2017-05-24T13:30:53.999Z</time>
      </trkpt>
      <trkpt lat="44.87307" lon="5.24092">
        <ele>1357.79</ele>
        <time>2017-05-24T13:31:01.999Z</time>
      </trkpt>
      <trkpt lat="44.87296" lon="5.24094">
        <ele>1357.57</ele>
        <time>2017-05-24T13:31:07.999Z</time>
      </trkpt>
      <trkpt lat="44.87286" lon="5.24096">
        <ele>1357.36</ele>
        <time>2017-05-24T13:31:14.999Z</time>
      </trkpt>
      <trkpt lat="44.87277" lon="5.24097">
        <ele>1357.29</ele>
        <time>2017-05-24T13:31:20.999Z</time>
      </trkpt>
      <trkpt lat="44.87267" lon="5.24101">
        <ele>1357.27</ele>
        <time>2017-05-24T13:31:27.999Z</time>
      </trkpt>
      <trkpt lat="44.87257" lon="5.24102">
        <ele>1357</ele>
        <time>2017-05-24T13:31:33.999Z</time>
      </trkpt>
      <trkpt lat="44.87248" lon="5.24105">
        <ele>1357.01</ele>
        <time>2017-05-24T13:31:39.999Z</time>
      </trkpt>
      <trkpt lat="44.87241" lon="5.24112">
        <ele>1357.07</ele>
        <time>2017-05-24T13:31:44.999Z</time>
      </trkpt>
      <trkpt lat="44.87231" lon="5.24116">
        <ele>1356.91</ele>
        <time>2017-05-24T13:31:51.999Z</time>
      </trkpt>
      <trkpt lat="44.87223" lon="5.24119">
        <ele>1356.51</ele>
        <time>2017-05-24T13:31:58.999Z</time>
      </trkpt>
      <trkpt lat="44.87213" lon="5.2412">
        <ele>1356.47</ele>
        <time>2017-05-24T13:32:02.999Z</time>
      </trkpt>
      <trkpt lat="44.87201" lon="5.24126">
        <ele>1356.35</ele>
        <time>2017-05-24T13:32:06.999Z</time>
      </trkpt>
      <trkpt lat="44.87193" lon="5.2413">
        <ele>1356.55</ele>
        <time>2017-05-24T13:32:10.999Z</time>
      </trkpt>
      <trkpt lat="44.87183" lon="5.24132">
        <ele>1356.82</ele>
        <time>2017-05-24T13:32:15.999Z</time>
      </trkpt>
      <trkpt lat="44.87173" lon="5.24126">
        <ele>1357.38</ele>
        <time>2017-05-24T13:32:21.999Z</time>
      </trkpt>
      <trkpt lat="44.87166" lon="5.24117">
        <ele>1358.19</ele>
        <time>2017-05-24T13:32:27.999Z</time>
      </trkpt>
      <trkpt lat="44.87157" lon="5.2411">
        <ele>1359.46</ele>
        <time>2017-05-24T13:32:36.999Z</time>
      </trkpt>
      <trkpt lat="44.87157" lon="5.24124">
        <ele>1362.29</ele>
        <time>2017-05-24T13:33:03.999Z</time>
      </trkpt>
      <trkpt lat="44.87157" lon="5.24138">
        <ele>1363.06</ele>
        <time>2017-05-24T13:33:10.999Z</time>
      </trkpt>
      <trkpt lat="44.87157" lon="5.24151">
        <ele>1363.39</ele>
        <time>2017-05-24T13:33:17.999Z</time>
      </trkpt>
      <trkpt lat="44.87149" lon="5.24159">
        <ele>1364.4</ele>
        <time>2017-05-24T13:33:26.999Z</time>
      </trkpt>
      <trkpt lat="44.8714" lon="5.24159">
        <ele>1365.88</ele>
        <time>2017-05-24T13:33:34.999Z</time>
      </trkpt>
      <trkpt lat="44.87131" lon="5.24158">
        <ele>1367.04</ele>
        <time>2017-05-24T13:33:43.999Z</time>
      </trkpt>
      <trkpt lat="44.87121" lon="5.2416">
        <ele>1368.23</ele>
        <time>2017-05-24T13:33:51.999Z</time>
      </trkpt>
      <trkpt lat="44.87111" lon="5.24159">
        <ele>1369.36</ele>
        <time>2017-05-24T13:33:58.999Z</time>
      </trkpt>
      <trkpt lat="44.87102" lon="5.24161">
        <ele>1371.11</ele>
        <time>2017-05-24T13:34:04.999Z</time>
      </trkpt>
      <trkpt lat="44.87091" lon="5.24164">
        <ele>1372.85</ele>
        <time>2017-05-24T13:34:10.999Z</time>
      </trkpt>
      <trkpt lat="44.87082" lon="5.24165">
        <ele>1374.86</ele>
        <time>2017-05-24T13:34:17.999Z</time>
      </trkpt>
      <trkpt lat="44.87073" lon="5.24166">
        <ele>1376.53</ele>
        <time>2017-05-24T13:34:24.999Z</time>
      </trkpt>
      <trkpt lat="44.87063" lon="5.24165">
        <ele>1377.71</ele>
        <time>2017-05-24T13:34:31.999Z</time>
      </trkpt>
      <trkpt lat="44.87053" lon="5.24165">
        <ele>1378.74</ele>
        <time>2017-05-24T13:34:37.999Z</time>
      </trkpt>
      <trkpt lat="44.87042" lon="5.24164">
        <ele>1379.83</ele>
        <time>2017-05-24T13:34:43.999Z</time>
      </trkpt>
      <trkpt lat="44.87033" lon="5.24166">
        <ele>1381.16</ele>
        <time>2017-05-24T13:34:50.999Z</time>
      </trkpt>
      <trkpt lat="44.87023" lon="5.24165">
        <ele>1382.05</ele>
        <time>2017-05-24T13:34:57.999Z</time>
      </trkpt>
      <trkpt lat="44.87013" lon="5.24164">
        <ele>1383.22</ele>
        <time>2017-05-24T13:35:04.999Z</time>
      </trkpt>
      <trkpt lat="44.87003" lon="5.24165">
        <ele>1384.75</ele>
        <time>2017-05-24T13:35:11.999Z</time>
      </trkpt>
      <trkpt lat="44.86993" lon="5.24166">
        <ele>1386.01</ele>
        <time>2017-05-24T13:35:17.999Z</time>
      </trkpt>
      <trkpt lat="44.86985" lon="5.24169">
        <ele>1387.11</ele>
        <time>2017-05-24T13:35:23.999Z</time>
      </trkpt>
      <trkpt lat="44.86975" lon="5.24173">
        <ele>1387.87</ele>
        <time>2017-05-24T13:35:29.999Z</time>
      </trkpt>
      <trkpt lat="44.86967" lon="5.24177">
        <ele>1388.63</ele>
        <time>2017-05-24T13:35:33.999Z</time>
      </trkpt>
      <trkpt lat="44.86957" lon="5.24181">
        <ele>1390.41</ele>
        <time>2017-05-24T13:35:40.999Z</time>
      </trkpt>
      <trkpt lat="44.86948" lon="5.24185">
        <ele>1392.32</ele>
        <time>2017-05-24T13:35:47.999Z</time>
      </trkpt>
      <trkpt lat="44.86939" lon="5.2419">
        <ele>1394.42</ele>
        <time>2017-05-24T13:35:55.999Z</time>
      </trkpt>
      <trkpt lat="44.8693" lon="5.24194">
        <ele>1395.44</ele>
        <time>2017-05-24T13:36:01.999Z</time>
      </trkpt>
      <trkpt lat="44.8692" lon="5.24198">
        <ele>1396.99</ele>
        <time>2017-05-24T13:36:09.999Z</time>
      </trkpt>
      <trkpt lat="44.8691" lon="5.24201">
        <ele>1398.27</ele>
        <time>2017-05-24T13:36:14.999Z</time>
      </trkpt>
      <trkpt lat="44.86901" lon="5.24208">
        <ele>1399.34</ele>
        <time>2017-05-24T13:36:21.999Z</time>
      </trkpt>
      <trkpt lat="44.86892" lon="5.24212">
        <ele>1400.46</ele>
        <time>2017-05-24T13:36:27.999Z</time>
      </trkpt>
      <trkpt lat="44.86882" lon="5.24218">
        <ele>1401.65</ele>
        <time>2017-05-24T13:36:36.999Z</time>
      </trkpt>
      <trkpt lat="44.86874" lon="5.24224">
        <ele>1402.26</ele>
        <time>2017-05-24T13:36:42.999Z</time>
      </trkpt>
      <trkpt lat="44.86863" lon="5.24229">
        <ele>1402.71</ele>
        <time>2017-05-24T13:36:48.999Z</time>
      </trkpt>
      <trkpt lat="44.86853" lon="5.24233">
        <ele>1403.31</ele>
        <time>2017-05-24T13:36:56.999Z</time>
      </trkpt>
      <trkpt lat="44.86844" lon="5.24239">
        <ele>1403.81</ele>
        <time>2017-05-24T13:37:04.999Z</time>
      </trkpt>
      <trkpt lat="44.86835" lon="5.24242">
        <ele>1404.72</ele>
        <time>2017-05-24T13:37:11.999Z</time>
      </trkpt>
      <trkpt lat="44.86827" lon="5.24238">
        <ele>1405.82</ele>
        <time>2017-05-24T13:37:20.999Z</time>
      </trkpt>
      <trkpt lat="44.86818" lon="5.24238">
        <ele>1407.13</ele>
        <time>2017-05-24T13:37:30.999Z</time>
      </trkpt>
      <trkpt lat="44.86808" lon="5.24237">
        <ele>1408.09</ele>
        <time>2017-05-24T13:37:38.999Z</time>
      </trkpt>
      <trkpt lat="44.86799" lon="5.24237">
        <ele>1408.68</ele>
        <time>2017-05-24T13:37:45.999Z</time>
      </trkpt>
      <trkpt lat="44.86789" lon="5.24238">
        <ele>1409.5</ele>
        <time>2017-05-24T13:37:51.999Z</time>
      </trkpt>
      <trkpt lat="44.8678" lon="5.24235">
        <ele>1411.4</ele>
        <time>2017-05-24T13:38:00.999Z</time>
      </trkpt>
      <trkpt lat="44.86771" lon="5.24231">
        <ele>1412.62</ele>
        <time>2017-05-24T13:38:10.999Z</time>
      </trkpt>
      <trkpt lat="44.86762" lon="5.24227">
        <ele>1413.79</ele>
        <time>2017-05-24T13:38:17.999Z</time>
      </trkpt>
      <trkpt lat="44.86752" lon="5.24225">
        <ele>1414.92</ele>
        <time>2017-05-24T13:38:24.999Z</time>
      </trkpt>
      <trkpt lat="44.86743" lon="5.24226">
        <ele>1416.56</ele>
        <time>2017-05-24T13:38:31.999Z</time>
      </trkpt>
      <trkpt lat="44.86734" lon="5.24226">
        <ele>1418</ele>
        <time>2017-05-24T13:38:42.999Z</time>
      </trkpt>
      <trkpt lat="44.86724" lon="5.2423">
        <ele>1418.98</ele>
        <time>2017-05-24T13:38:48.999Z</time>
      </trkpt>
      <trkpt lat="44.86714" lon="5.24233">
        <ele>1420.63</ele>
        <time>2017-05-24T13:38:55.999Z</time>
      </trkpt>
      <trkpt lat="44.86706" lon="5.2424">
        <ele>1422</ele>
        <time>2017-05-24T13:39:03.999Z</time>
      </trkpt>
      <trkpt lat="44.86699" lon="5.2425">
        <ele>1423.44</ele>
        <time>2017-05-24T13:39:12.999Z</time>
      </trkpt>
      <trkpt lat="44.86691" lon="5.24255">
        <ele>1424.32</ele>
        <time>2017-05-24T13:39:19.999Z</time>
      </trkpt>
      <trkpt lat="44.86682" lon="5.24261">
        <ele>1425.05</ele>
        <time>2017-05-24T13:39:26.999Z</time>
      </trkpt>
      <trkpt lat="44.86672" lon="5.24266">
        <ele>1426.11</ele>
        <time>2017-05-24T13:39:34.999Z</time>
      </trkpt>
      <trkpt lat="44.86663" lon="5.24274">
        <ele>1426.94</ele>
        <time>2017-05-24T13:39:42.999Z</time>
      </trkpt>
      <trkpt lat="44.86655" lon="5.24279">
        <ele>1427.79</ele>
        <time>2017-05-24T13:39:50.999Z</time>
      </trkpt>
      <trkpt lat="44.86644" lon="5.24279">
        <ele>1428.08</ele>
        <time>2017-05-24T13:39:58.999Z</time>
      </trkpt>
      <trkpt lat="44.86635" lon="5.24283">
        <ele>1427.94</ele>
        <time>2017-05-24T13:40:07.999Z</time>
      </trkpt>
      <trkpt lat="44.86626" lon="5.24287">
        <ele>1428.04</ele>
        <time>2017-05-24T13:40:14.999Z</time>
      </trkpt>
      <trkpt lat="44.86615" lon="5.24288">
        <ele>1428.49</ele>
        <time>2017-05-24T13:40:21.999Z</time>
      </trkpt>
      <trkpt lat="44.86607" lon="5.24294">
        <ele>1428.48</ele>
        <time>2017-05-24T13:40:30.999Z</time>
      </trkpt>
      <trkpt lat="44.86603" lon="5.24306">
        <ele>1428.37</ele>
        <time>2017-05-24T13:40:39.999Z</time>
      </trkpt>
      <trkpt lat="44.866" lon="5.2432">
        <ele>1428.37</ele>
        <time>2017-05-24T13:40:46.999Z</time>
      </trkpt>
      <trkpt lat="44.86596" lon="5.24332">
        <ele>1428.21</ele>
        <time>2017-05-24T13:40:56.999Z</time>
      </trkpt>
      <trkpt lat="44.86594" lon="5.24345">
        <ele>1428.48</ele>
        <time>2017-05-24T13:41:05.999Z</time>
      </trkpt>
      <trkpt lat="44.86596" lon="5.24357">
        <ele>1428.53</ele>
        <time>2017-05-24T13:41:13.999Z</time>
      </trkpt>
      <trkpt lat="44.86597" lon="5.24371">
        <ele>1428.39</ele>
        <time>2017-05-24T13:41:20.999Z</time>
      </trkpt>
      <trkpt lat="44.86595" lon="5.24384">
        <ele>1428.42</ele>
        <time>2017-05-24T13:41:28.999Z</time>
      </trkpt>
      <trkpt lat="44.86589" lon="5.24395">
        <ele>1428.67</ele>
        <time>2017-05-24T13:41:37.999Z</time>
      </trkpt>
      <trkpt lat="44.86587" lon="5.24409">
        <ele>1429.03</ele>
        <time>2017-05-24T13:41:44.999Z</time>
      </trkpt>
      <trkpt lat="44.86583" lon="5.24421">
        <ele>1429.55</ele>
        <time>2017-05-24T13:41:51.999Z</time>
      </trkpt>
      <trkpt lat="44.86578" lon="5.24433">
        <ele>1430.1</ele>
        <time>2017-05-24T13:42:03.999Z</time>
      </trkpt>
      <trkpt lat="44.86572" lon="5.24443">
        <ele>1430.7</ele>
        <time>2017-05-24T13:42:12.999Z</time>
      </trkpt>
      <trkpt lat="44.86568" lon="5.24456">
        <ele>1431.33</ele>
        <time>2017-05-24T13:42:19.999Z</time>
      </trkpt>
      <trkpt lat="44.86563" lon="5.24468">
        <ele>1431.65</ele>
        <time>2017-05-24T13:42:27.999Z</time>
      </trkpt>
      <trkpt lat="44.86559" lon="5.24481">
        <ele>1431.9</ele>
        <time>2017-05-24T13:42:34.999Z</time>
      </trkpt>
      <trkpt lat="44.86554" lon="5.24493">
        <ele>1432.16</ele>
        <time>2017-05-24T13:42:41.999Z</time>
      </trkpt>
      <trkpt lat="44.86549" lon="5.24505">
        <ele>1432.47</ele>
        <time>2017-05-24T13:42:48.999Z</time>
      </trkpt>
      <trkpt lat="44.86544" lon="5.24516">
        <ele>1432.7</ele>
        <time>2017-05-24T13:42:55.999Z</time>
      </trkpt>
      <trkpt lat="44.86539" lon="5.24527">
        <ele>1433.23</ele>
        <time>2017-05-24T13:43:01.999Z</time>
      </trkpt>
      <trkpt lat="44.86532" lon="5.24536">
        <ele>1433.65</ele>
        <time>2017-05-24T13:43:08.999Z</time>
      </trkpt>
      <trkpt lat="44.86528" lon="5.24548">
        <ele>1434</ele>
        <time>2017-05-24T13:43:16.999Z</time>
      </trkpt>
      <trkpt lat="44.86522" lon="5.24561">
        <ele>1434.79</ele>
        <time>2017-05-24T13:43:23.999Z</time>
      </trkpt>
      <trkpt lat="44.86518" lon="5.24573">
        <ele>1435.55</ele>
        <time>2017-05-24T13:43:31.999Z</time>
      </trkpt>
      <trkpt lat="44.86513" lon="5.24583">
        <ele>1436.18</ele>
        <time>2017-05-24T13:43:37.999Z</time>
      </trkpt>
      <trkpt lat="44.86508" lon="5.24595">
        <ele>1436.91</ele>
        <time>2017-05-24T13:43:43.999Z</time>
      </trkpt>
      <trkpt lat="44.86505" lon="5.24608">
        <ele>1437.6</ele>
        <time>2017-05-24T13:43:50.999Z</time>
      </trkpt>
      <trkpt lat="44.865" lon="5.2462">
        <ele>1438.35</ele>
        <time>2017-05-24T13:43:57.999Z</time>
      </trkpt>
      <trkpt lat="44.86496" lon="5.24632">
        <ele>1438.5</ele>
        <time>2017-05-24T13:44:04.999Z</time>
      </trkpt>
      <trkpt lat="44.86492" lon="5.24644">
        <ele>1438.75</ele>
        <time>2017-05-24T13:44:10.999Z</time>
      </trkpt>
      <trkpt lat="44.86487" lon="5.24656">
        <ele>1439.46</ele>
        <time>2017-05-24T13:44:16.999Z</time>
      </trkpt>
      <trkpt lat="44.86483" lon="5.24668">
        <ele>1440.21</ele>
        <time>2017-05-24T13:44:23.999Z</time>
      </trkpt>
      <trkpt lat="44.86479" lon="5.2468">
        <ele>1440.47</ele>
        <time>2017-05-24T13:44:29.999Z</time>
      </trkpt>
      <trkpt lat="44.86474" lon="5.24691">
        <ele>1440.76</ele>
        <time>2017-05-24T13:44:35.999Z</time>
      </trkpt>
      <trkpt lat="44.86469" lon="5.24703">
        <ele>1440.77</ele>
        <time>2017-05-24T13:44:42.999Z</time>
      </trkpt>
      <trkpt lat="44.86462" lon="5.24713">
        <ele>1440.79</ele>
        <time>2017-05-24T13:44:51.999Z</time>
      </trkpt>
      <trkpt lat="44.86455" lon="5.24722">
        <ele>1440.68</ele>
        <time>2017-05-24T13:44:58.999Z</time>
      </trkpt>
      <trkpt lat="44.86449" lon="5.24732">
        <ele>1440.69</ele>
        <time>2017-05-24T13:45:04.999Z</time>
      </trkpt>
      <trkpt lat="44.86443" lon="5.24744">
        <ele>1440.8</ele>
        <time>2017-05-24T13:45:11.999Z</time>
      </trkpt>
      <trkpt lat="44.86436" lon="5.24754">
        <ele>1441.17</ele>
        <time>2017-05-24T13:45:18.999Z</time>
      </trkpt>
      <trkpt lat="44.86429" lon="5.24763">
        <ele>1441.46</ele>
        <time>2017-05-24T13:45:30.999Z</time>
      </trkpt>
      <trkpt lat="44.86421" lon="5.24771">
        <ele>1441.66</ele>
        <time>2017-05-24T13:45:38.999Z</time>
      </trkpt>
      <trkpt lat="44.86413" lon="5.2478">
        <ele>1442.26</ele>
        <time>2017-05-24T13:45:45.999Z</time>
      </trkpt>
      <trkpt lat="44.86406" lon="5.24788">
        <ele>1443.22</ele>
        <time>2017-05-24T13:45:50.999Z</time>
      </trkpt>
      <trkpt lat="44.86398" lon="5.24797">
        <ele>1444.29</ele>
        <time>2017-05-24T13:45:57.999Z</time>
      </trkpt>
      <trkpt lat="44.8639" lon="5.24804">
        <ele>1445.62</ele>
        <time>2017-05-24T13:46:06.999Z</time>
      </trkpt>
      <trkpt lat="44.86382" lon="5.24809">
        <ele>1446.85</ele>
        <time>2017-05-24T13:46:14.999Z</time>
      </trkpt>
      <trkpt lat="44.86374" lon="5.24818">
        <ele>1447.6</ele>
        <time>2017-05-24T13:46:18.999Z</time>
      </trkpt>
      <trkpt lat="44.86364" lon="5.24818">
        <ele>1448.69</ele>
        <time>2017-05-24T13:46:26.999Z</time>
      </trkpt>
      <trkpt lat="44.86355" lon="5.24819">
        <ele>1450.65</ele>
        <time>2017-05-24T13:46:35.999Z</time>
      </trkpt>
      <trkpt lat="44.86345" lon="5.24822">
        <ele>1451.56</ele>
        <time>2017-05-24T13:46:41.999Z</time>
      </trkpt>
      <trkpt lat="44.86335" lon="5.24825">
        <ele>1452.11</ele>
        <time>2017-05-24T13:46:46.999Z</time>
      </trkpt>
      <trkpt lat="44.86325" lon="5.24828">
        <ele>1453.18</ele>
        <time>2017-05-24T13:46:54.999Z</time>
      </trkpt>
      <trkpt lat="44.86317" lon="5.24834">
        <ele>1454.02</ele>
        <time>2017-05-24T13:47:00.999Z</time>
      </trkpt>
      <trkpt lat="44.86309" lon="5.24842">
        <ele>1456.08</ele>
        <time>2017-05-24T13:47:12.999Z</time>
      </trkpt>
      <trkpt lat="44.863" lon="5.24846">
        <ele>1457.33</ele>
        <time>2017-05-24T13:47:20.999Z</time>
      </trkpt>
      <trkpt lat="44.86293" lon="5.24855">
        <ele>1458.75</ele>
        <time>2017-05-24T13:47:28.999Z</time>
      </trkpt>
      <trkpt lat="44.86286" lon="5.24865">
        <ele>1460.12</ele>
        <time>2017-05-24T13:47:35.999Z</time>
      </trkpt>
      <trkpt lat="44.86277" lon="5.24872">
        <ele>1463.53</ele>
        <time>2017-05-24T13:47:48.999Z</time>
      </trkpt>
      <trkpt lat="44.86268" lon="5.24878">
        <ele>1465.8</ele>
        <time>2017-05-24T13:47:57.999Z</time>
      </trkpt>
      <trkpt lat="44.8626" lon="5.24886">
        <ele>1467.27</ele>
        <time>2017-05-24T13:48:04.999Z</time>
      </trkpt>
      <trkpt lat="44.86251" lon="5.24895">
        <ele>1469.46</ele>
        <time>2017-05-24T13:48:14.999Z</time>
      </trkpt>
      <trkpt lat="44.86244" lon="5.24903">
        <ele>1472.33</ele>
        <time>2017-05-24T13:48:24.999Z</time>
      </trkpt>
      <trkpt lat="44.86237" lon="5.24911">
        <ele>1474.33</ele>
        <time>2017-05-24T13:48:32.999Z</time>
      </trkpt>
      <trkpt lat="44.86228" lon="5.2492">
        <ele>1477.32</ele>
        <time>2017-05-24T13:48:43.999Z</time>
      </trkpt>
      <trkpt lat="44.8622" lon="5.24929">
        <ele>1479.64</ele>
        <time>2017-05-24T13:48:51.999Z</time>
      </trkpt>
      <trkpt lat="44.86213" lon="5.24939">
        <ele>1481.49</ele>
        <time>2017-05-24T13:48:59.999Z</time>
      </trkpt>
      <trkpt lat="44.86205" lon="5.24947">
        <ele>1483.86</ele>
        <time>2017-05-24T13:49:10.999Z</time>
      </trkpt>
      <trkpt lat="44.86197" lon="5.24957">
        <ele>1486.46</ele>
        <time>2017-05-24T13:49:19.999Z</time>
      </trkpt>
      <trkpt lat="44.8619" lon="5.24964">
        <ele>1488.76</ele>
        <time>2017-05-24T13:49:27.999Z</time>
      </trkpt>
      <trkpt lat="44.8618" lon="5.24972">
        <ele>1490.64</ele>
        <time>2017-05-24T13:49:35.999Z</time>
      </trkpt>
      <trkpt lat="44.86173" lon="5.24979">
        <ele>1492.9</ele>
        <time>2017-05-24T13:49:43.999Z</time>
      </trkpt>
      <trkpt lat="44.86164" lon="5.24986">
        <ele>1495.46</ele>
        <time>2017-05-24T13:49:52.999Z</time>
      </trkpt>
      <trkpt lat="44.86158" lon="5.24997">
        <ele>1497.64</ele>
        <time>2017-05-24T13:49:59.999Z</time>
      </trkpt>
      <trkpt lat="44.86151" lon="5.25006">
        <ele>1500.56</ele>
        <time>2017-05-24T13:50:10.999Z</time>
      </trkpt>
      <trkpt lat="44.86145" lon="5.25015">
        <ele>1502.84</ele>
        <time>2017-05-24T13:50:19.999Z</time>
      </trkpt>
      <trkpt lat="44.86137" lon="5.25023">
        <ele>1505.35</ele>
        <time>2017-05-24T13:50:28.999Z</time>
      </trkpt>
      <trkpt lat="44.86131" lon="5.25032">
        <ele>1508.18</ele>
        <time>2017-05-24T13:50:39.999Z</time>
      </trkpt>
      <trkpt lat="44.86129" lon="5.25046">
        <ele>1510.08</ele>
        <time>2017-05-24T13:50:49.999Z</time>
      </trkpt>
      <trkpt lat="44.86128" lon="5.25061">
        <ele>1511.57</ele>
        <time>2017-05-24T13:50:56.999Z</time>
      </trkpt>
      <trkpt lat="44.86121" lon="5.25068">
        <ele>1514.55</ele>
        <time>2017-05-24T13:51:08.999Z</time>
      </trkpt>
      <trkpt lat="44.86118" lon="5.25081">
        <ele>1524.96</ele>
        <time>2017-05-24T13:52:46.999Z</time>
      </trkpt>
      <trkpt lat="44.86124" lon="5.25092">
        <ele>1525.65</ele>
        <time>2017-05-24T13:52:52.999Z</time>
      </trkpt>
      <trkpt lat="44.86128" lon="5.25104">
        <ele>1525.57</ele>
        <time>2017-05-24T13:52:59.999Z</time>
      </trkpt>
      <trkpt lat="44.86124" lon="5.25117">
        <ele>1525.18</ele>
        <time>2017-05-24T13:53:07.999Z</time>
      </trkpt>
      <trkpt lat="44.86118" lon="5.25127">
        <ele>1524.94</ele>
        <time>2017-05-24T13:53:13.999Z</time>
      </trkpt>
      <trkpt lat="44.86111" lon="5.25137">
        <ele>1525.25</ele>
        <time>2017-05-24T13:53:21.999Z</time>
      </trkpt>
      <trkpt lat="44.86104" lon="5.25148">
        <ele>1526.25</ele>
        <time>2017-05-24T13:53:27.999Z</time>
      </trkpt>
      <trkpt lat="44.86098" lon="5.25159">
        <ele>1527.34</ele>
        <time>2017-05-24T13:53:33.999Z</time>
      </trkpt>
      <trkpt lat="44.86091" lon="5.25169">
        <ele>1528.23</ele>
        <time>2017-05-24T13:53:39.999Z</time>
      </trkpt>
      <trkpt lat="44.86086" lon="5.25181">
        <ele>1529.26</ele>
        <time>2017-05-24T13:53:46.999Z</time>
      </trkpt>
      <trkpt lat="44.86079" lon="5.25191">
        <ele>1530.34</ele>
        <time>2017-05-24T13:53:54.999Z</time>
      </trkpt>
      <trkpt lat="44.86072" lon="5.25201">
        <ele>1531.13</ele>
        <time>2017-05-24T13:54:01.999Z</time>
      </trkpt>
      <trkpt lat="44.86065" lon="5.25212">
        <ele>1531.51</ele>
        <time>2017-05-24T13:54:09.999Z</time>
      </trkpt>
      <trkpt lat="44.86058" lon="5.25221">
        <ele>1531.65</ele>
        <time>2017-05-24T13:54:17.999Z</time>
      </trkpt>
      <trkpt lat="44.8605" lon="5.25228">
        <ele>1531.67</ele>
        <time>2017-05-24T13:54:24.999Z</time>
      </trkpt>
      <trkpt lat="44.86043" lon="5.25236">
        <ele>1531.86</ele>
        <time>2017-05-24T13:54:30.999Z</time>
      </trkpt>
      <trkpt lat="44.86034" lon="5.2524">
        <ele>1532.05</ele>
        <time>2017-05-24T13:54:37.999Z</time>
      </trkpt>
      <trkpt lat="44.86025" lon="5.25248">
        <ele>1532.35</ele>
        <time>2017-05-24T13:54:44.999Z</time>
      </trkpt>
      <trkpt lat="44.86015" lon="5.25254">
        <ele>1533.29</ele>
        <time>2017-05-24T13:54:50.999Z</time>
      </trkpt>
      <trkpt lat="44.86007" lon="5.25257">
        <ele>1534.6</ele>
        <time>2017-05-24T13:54:58.999Z</time>
      </trkpt>
      <trkpt lat="44.85996" lon="5.25259">
        <ele>1535.31</ele>
        <time>2017-05-24T13:55:05.999Z</time>
      </trkpt>
      <trkpt lat="44.85987" lon="5.25258">
        <ele>1535.28</ele>
        <time>2017-05-24T13:55:13.999Z</time>
      </trkpt>
      <trkpt lat="44.85978" lon="5.25259">
        <ele>1534.96</ele>
        <time>2017-05-24T13:55:20.999Z</time>
      </trkpt>
      <trkpt lat="44.85967" lon="5.25261">
        <ele>1535.01</ele>
        <time>2017-05-24T13:55:28.999Z</time>
      </trkpt>
      <trkpt lat="44.85959" lon="5.25263">
        <ele>1535.22</ele>
        <time>2017-05-24T13:55:34.999Z</time>
      </trkpt>
      <trkpt lat="44.85949" lon="5.25264">
        <ele>1535.51</ele>
        <time>2017-05-24T13:55:41.999Z</time>
      </trkpt>
      <trkpt lat="44.85938" lon="5.25265">
        <ele>1535.59</ele>
        <time>2017-05-24T13:55:47.999Z</time>
      </trkpt>
      <trkpt lat="44.85928" lon="5.25267">
        <ele>1535.63</ele>
        <time>2017-05-24T13:56:00.999Z</time>
      </trkpt>
      <trkpt lat="44.85918" lon="5.25268">
        <ele>1535.32</ele>
        <time>2017-05-24T13:56:07.999Z</time>
      </trkpt>
      <trkpt lat="44.85909" lon="5.2527">
        <ele>1534.94</ele>
        <time>2017-05-24T13:56:14.999Z</time>
      </trkpt>
      <trkpt lat="44.859" lon="5.25276">
        <ele>1535.06</ele>
        <time>2017-05-24T13:56:21.999Z</time>
      </trkpt>
      <trkpt lat="44.8589" lon="5.25278">
        <ele>1535.1</ele>
        <time>2017-05-24T13:56:27.999Z</time>
      </trkpt>
      <trkpt lat="44.85881" lon="5.25282">
        <ele>1535.42</ele>
        <time>2017-05-24T13:56:34.999Z</time>
      </trkpt>
      <trkpt lat="44.85871" lon="5.25285">
        <ele>1536.16</ele>
        <time>2017-05-24T13:56:43.999Z</time>
      </trkpt>
      <trkpt lat="44.85862" lon="5.25288">
        <ele>1536.66</ele>
        <time>2017-05-24T13:56:49.999Z</time>
      </trkpt>
      <trkpt lat="44.85852" lon="5.25288">
        <ele>1537.93</ele>
        <time>2017-05-24T13:56:57.999Z</time>
      </trkpt>
      <trkpt lat="44.85843" lon="5.25293">
        <ele>1538.76</ele>
        <time>2017-05-24T13:57:05.999Z</time>
      </trkpt>
      <trkpt lat="44.85833" lon="5.25297">
        <ele>1538.92</ele>
        <time>2017-05-24T13:57:12.999Z</time>
      </trkpt>
      <trkpt lat="44.85824" lon="5.25301">
        <ele>1539.15</ele>
        <time>2017-05-24T13:57:19.999Z</time>
      </trkpt>
      <trkpt lat="44.85814" lon="5.25299">
        <ele>1539.28</ele>
        <time>2017-05-24T13:57:27.999Z</time>
      </trkpt>
      <trkpt lat="44.85804" lon="5.25303">
        <ele>1539.92</ele>
        <time>2017-05-24T13:57:35.999Z</time>
      </trkpt>
      <trkpt lat="44.85795" lon="5.25303">
        <ele>1542.5</ele>
        <time>2017-05-24T13:57:57.999Z</time>
      </trkpt>
      <trkpt lat="44.85788" lon="5.25311">
        <ele>1548.95</ele>
        <time>2017-05-24T13:58:48.999Z</time>
      </trkpt>
      <trkpt lat="44.85778" lon="5.25312">
        <ele>1550.44</ele>
        <time>2017-05-24T13:58:59.999Z</time>
      </trkpt>
      <trkpt lat="44.8577" lon="5.25317">
        <ele>1552.5</ele>
        <time>2017-05-24T13:59:37.999Z</time>
      </trkpt>
      <trkpt lat="44.85761" lon="5.25318">
        <ele>1552.85</ele>
        <time>2017-05-24T13:59:45.999Z</time>
      </trkpt>
      <trkpt lat="44.85751" lon="5.25322">
        <ele>1553.53</ele>
        <time>2017-05-24T13:59:52.999Z</time>
      </trkpt>
      <trkpt lat="44.85741" lon="5.25325">
        <ele>1553.95</ele>
        <time>2017-05-24T13:59:59.999Z</time>
      </trkpt>
      <trkpt lat="44.85732" lon="5.25325">
        <ele>1554.24</ele>
        <time>2017-05-24T14:00:06.999Z</time>
      </trkpt>
      <trkpt lat="44.85722" lon="5.25324">
        <ele>1554.64</ele>
        <time>2017-05-24T14:00:12.999Z</time>
      </trkpt>
      <trkpt lat="44.85712" lon="5.25325">
        <ele>1555.38</ele>
        <time>2017-05-24T14:00:19.999Z</time>
      </trkpt>
      <trkpt lat="44.85702" lon="5.25325">
        <ele>1555.89</ele>
        <time>2017-05-24T14:00:26.999Z</time>
      </trkpt>
      <trkpt lat="44.85693" lon="5.25328">
        <ele>1556.09</ele>
        <time>2017-05-24T14:00:32.999Z</time>
      </trkpt>
      <trkpt lat="44.85684" lon="5.25335">
        <ele>1556.01</ele>
        <time>2017-05-24T14:00:39.999Z</time>
      </trkpt>
      <trkpt lat="44.85676" lon="5.25344">
        <ele>1556.03</ele>
        <time>2017-05-24T14:00:46.999Z</time>
      </trkpt>
      <trkpt lat="44.85668" lon="5.25353">
        <ele>1556.54</ele>
        <time>2017-05-24T14:00:53.999Z</time>
      </trkpt>
      <trkpt lat="44.85659" lon="5.2536">
        <ele>1556.57</ele>
        <time>2017-05-24T14:01:00.999Z</time>
      </trkpt>
      <trkpt lat="44.85651" lon="5.25367">
        <ele>1556.74</ele>
        <time>2017-05-24T14:01:06.999Z</time>
      </trkpt>
      <trkpt lat="44.85644" lon="5.25375">
        <ele>1556.42</ele>
        <time>2017-05-24T14:01:12.999Z</time>
      </trkpt>
      <trkpt lat="44.85637" lon="5.25385">
        <ele>1556.15</ele>
        <time>2017-05-24T14:01:18.999Z</time>
      </trkpt>
      <trkpt lat="44.8563" lon="5.25394">
        <ele>1555.99</ele>
        <time>2017-05-24T14:01:25.999Z</time>
      </trkpt>
      <trkpt lat="44.85622" lon="5.25405">
        <ele>1555.92</ele>
        <time>2017-05-24T14:01:31.999Z</time>
      </trkpt>
      <trkpt lat="44.85616" lon="5.25414">
        <ele>1555.46</ele>
        <time>2017-05-24T14:01:37.999Z</time>
      </trkpt>
      <trkpt lat="44.8561" lon="5.25425">
        <ele>1554.84</ele>
        <time>2017-05-24T14:01:45.999Z</time>
      </trkpt>
      <trkpt lat="44.85605" lon="5.25435">
        <ele>1553.79</ele>
        <time>2017-05-24T14:01:52.999Z</time>
      </trkpt>
      <trkpt lat="44.85599" lon="5.25446">
        <ele>1552.01</ele>
        <time>2017-05-24T14:02:00.999Z</time>
      </trkpt>
      <trkpt lat="44.8559" lon="5.25454">
        <ele>1550.32</ele>
        <time>2017-05-24T14:02:08.999Z</time>
      </trkpt>
      <trkpt lat="44.85582" lon="5.25463">
        <ele>1548.96</ele>
        <time>2017-05-24T14:02:16.999Z</time>
      </trkpt>
      <trkpt lat="44.85576" lon="5.25474">
        <ele>1545.31</ele>
        <time>2017-05-24T14:03:01.999Z</time>
      </trkpt>
      <trkpt lat="44.85573" lon="5.25488">
        <ele>1544.53</ele>
        <time>2017-05-24T14:03:06.999Z</time>
      </trkpt>
      <trkpt lat="44.85569" lon="5.25499">
        <ele>1543.99</ele>
        <time>2017-05-24T14:03:09.999Z</time>
      </trkpt>
      <trkpt lat="44.85563" lon="5.25509">
        <ele>1543.54</ele>
        <time>2017-05-24T14:03:12.999Z</time>
      </trkpt>
      <trkpt lat="44.85558" lon="5.2552">
        <ele>1543.11</ele>
        <time>2017-05-24T14:03:16.999Z</time>
      </trkpt>
      <trkpt lat="44.8555" lon="5.25531">
        <ele>1542.16</ele>
        <time>2017-05-24T14:03:21.999Z</time>
      </trkpt>
      <trkpt lat="44.85544" lon="5.25541">
        <ele>1541.02</ele>
        <time>2017-05-24T14:03:26.999Z</time>
      </trkpt>
      <trkpt lat="44.85537" lon="5.2555">
        <ele>1539.44</ele>
        <time>2017-05-24T14:03:33.999Z</time>
      </trkpt>
      <trkpt lat="44.85529" lon="5.25558">
        <ele>1538.01</ele>
        <time>2017-05-24T14:03:39.999Z</time>
      </trkpt>
      <trkpt lat="44.85519" lon="5.25565">
        <ele>1536.55</ele>
        <time>2017-05-24T14:03:45.999Z</time>
      </trkpt>
      <trkpt lat="44.85511" lon="5.25573">
        <ele>1535.07</ele>
        <time>2017-05-24T14:03:51.999Z</time>
      </trkpt>
      <trkpt lat="44.85502" lon="5.25579">
        <ele>1533.86</ele>
        <time>2017-05-24T14:03:55.999Z</time>
      </trkpt>
      <trkpt lat="44.85493" lon="5.25584">
        <ele>1532.55</ele>
        <time>2017-05-24T14:03:59.999Z</time>
      </trkpt>
      <trkpt lat="44.85484" lon="5.2559">
        <ele>1531.12</ele>
        <time>2017-05-24T14:04:03.999Z</time>
      </trkpt>
      <trkpt lat="44.85473" lon="5.25589">
        <ele>1529.6</ele>
        <time>2017-05-24T14:04:07.999Z</time>
      </trkpt>
      <trkpt lat="44.85462" lon="5.25595">
        <ele>1524.76</ele>
        <time>2017-05-24T14:04:11.999Z</time>
      </trkpt>
      <trkpt lat="44.85454" lon="5.25602">
        <ele>1523.59</ele>
        <time>2017-05-24T14:04:14.999Z</time>
      </trkpt>
      <trkpt lat="44.85447" lon="5.25613">
        <ele>1521.94</ele>
        <time>2017-05-24T14:04:18.999Z</time>
      </trkpt>
      <trkpt lat="44.85439" lon="5.25622">
        <ele>1520.35</ele>
        <time>2017-05-24T14:04:22.999Z</time>
      </trkpt>
      <trkpt lat="44.8543" lon="5.25631">
        <ele>1515.76</ele>
        <time>2017-05-24T14:04:35.999Z</time>
      </trkpt>
      <trkpt lat="44.85423" lon="5.25642">
        <ele>1514.58</ele>
        <time>2017-05-24T14:04:39.999Z</time>
      </trkpt>
      <trkpt lat="44.85417" lon="5.25651">
        <ele>1513.68</ele>
        <time>2017-05-24T14:04:42.999Z</time>
      </trkpt>
      <trkpt lat="44.85408" lon="5.25663">
        <ele>1512.46</ele>
        <time>2017-05-24T14:04:46.999Z</time>
      </trkpt>
      <trkpt lat="44.854" lon="5.25673">
        <ele>1511.21</ele>
        <time>2017-05-24T14:04:50.999Z</time>
      </trkpt>
      <trkpt lat="44.85392" lon="5.25683">
        <ele>1509.84</ele>
        <time>2017-05-24T14:04:54.999Z</time>
      </trkpt>
      <trkpt lat="44.85385" lon="5.25694">
        <ele>1508.61</ele>
        <time>2017-05-24T14:04:58.999Z</time>
      </trkpt>
      <trkpt lat="44.85378" lon="5.25704">
        <ele>1507.5</ele>
        <time>2017-05-24T14:05:02.999Z</time>
      </trkpt>
      <trkpt lat="44.8537" lon="5.25712">
        <ele>1506.61</ele>
        <time>2017-05-24T14:05:05.999Z</time>
      </trkpt>
      <trkpt lat="44.85361" lon="5.25721">
        <ele>1505.6</ele>
        <time>2017-05-24T14:05:09.999Z</time>
      </trkpt>
      <trkpt lat="44.85354" lon="5.25729">
        <ele>1504.42</ele>
        <time>2017-05-24T14:05:13.999Z</time>
      </trkpt>
      <trkpt lat="44.85348" lon="5.2574">
        <ele>1502.66</ele>
        <time>2017-05-24T14:05:19.999Z</time>
      </trkpt>
      <trkpt lat="44.85342" lon="5.25749">
        <ele>1501.04</ele>
        <time>2017-05-24T14:05:25.999Z</time>
      </trkpt>
      <trkpt lat="44.85346" lon="5.25761">
        <ele>1498.81</ele>
        <time>2017-05-24T14:05:35.999Z</time>
      </trkpt>
      <trkpt lat="44.8535" lon="5.25775">
        <ele>1497.71</ele>
        <time>2017-05-24T14:05:39.999Z</time>
      </trkpt>
      <trkpt lat="44.85355" lon="5.25786">
        <ele>1495.84</ele>
        <time>2017-05-24T14:05:45.999Z</time>
      </trkpt>
      <trkpt lat="44.85361" lon="5.25798">
        <ele>1493.44</ele>
        <time>2017-05-24T14:05:53.999Z</time>
      </trkpt>
      <trkpt lat="44.85366" lon="5.2581">
        <ele>1491.52</ele>
        <time>2017-05-24T14:05:59.999Z</time>
      </trkpt>
      <trkpt lat="44.85373" lon="5.2582">
        <ele>1489.48</ele>
        <time>2017-05-24T14:06:05.999Z</time>
      </trkpt>
      <trkpt lat="44.85378" lon="5.25831">
        <ele>1488</ele>
        <time>2017-05-24T14:06:10.999Z</time>
      </trkpt>
      <trkpt lat="44.85383" lon="5.25842">
        <ele>1485.79</ele>
        <time>2017-05-24T14:06:17.999Z</time>
      </trkpt>
      <trkpt lat="44.85389" lon="5.25852">
        <ele>1482.79</ele>
        <time>2017-05-24T14:06:25.999Z</time>
      </trkpt>
      <trkpt lat="44.85395" lon="5.25863">
        <ele>1481.26</ele>
        <time>2017-05-24T14:06:30.999Z</time>
      </trkpt>
      <trkpt lat="44.854" lon="5.25874">
        <ele>1479.21</ele>
        <time>2017-05-24T14:06:36.999Z</time>
      </trkpt>
      <trkpt lat="44.85408" lon="5.25882">
        <ele>1476.57</ele>
        <time>2017-05-24T14:06:44.999Z</time>
      </trkpt>
      <trkpt lat="44.85418" lon="5.25888">
        <ele>1474.95</ele>
        <time>2017-05-24T14:06:50.999Z</time>
      </trkpt>
      <trkpt lat="44.85425" lon="5.25897">
        <ele>1473.84</ele>
        <time>2017-05-24T14:06:56.999Z</time>
      </trkpt>
      <trkpt lat="44.85433" lon="5.25906">
        <ele>1473</ele>
        <time>2017-05-24T14:07:04.999Z</time>
      </trkpt>
      <trkpt lat="44.85441" lon="5.25911">
        <ele>1471.89</ele>
        <time>2017-05-24T14:07:10.999Z</time>
      </trkpt>
      <trkpt lat="44.85449" lon="5.25918">
        <ele>1470.53</ele>
        <time>2017-05-24T14:07:15.999Z</time>
      </trkpt>
      <trkpt lat="44.85457" lon="5.25925">
        <ele>1468.56</ele>
        <time>2017-05-24T14:07:22.999Z</time>
      </trkpt>
      <trkpt lat="44.85466" lon="5.25932">
        <ele>1467.14</ele>
        <time>2017-05-24T14:07:28.999Z</time>
      </trkpt>
      <trkpt lat="44.85475" lon="5.25938">
        <ele>1466.12</ele>
        <time>2017-05-24T14:07:33.999Z</time>
      </trkpt>
      <trkpt lat="44.85483" lon="5.25944">
        <ele>1465.29</ele>
        <time>2017-05-24T14:07:38.999Z</time>
      </trkpt>
      <trkpt lat="44.85492" lon="5.25951">
        <ele>1464.3</ele>
        <time>2017-05-24T14:07:44.999Z</time>
      </trkpt>
      <trkpt lat="44.85501" lon="5.25957">
        <ele>1463.36</ele>
        <time>2017-05-24T14:07:50.999Z</time>
      </trkpt>
      <trkpt lat="44.85508" lon="5.25964">
        <ele>1462.08</ele>
        <time>2017-05-24T14:07:57.999Z</time>
      </trkpt>
      <trkpt lat="44.85517" lon="5.25969">
        <ele>1461.2</ele>
        <time>2017-05-24T14:08:03.999Z</time>
      </trkpt>
      <trkpt lat="44.85526" lon="5.25974">
        <ele>1460.25</ele>
        <time>2017-05-24T14:08:10.999Z</time>
      </trkpt>
      <trkpt lat="44.85535" lon="5.2598">
        <ele>1459.61</ele>
        <time>2017-05-24T14:08:17.999Z</time>
      </trkpt>
      <trkpt lat="44.85543" lon="5.25986">
        <ele>1458.94</ele>
        <time>2017-05-24T14:08:26.999Z</time>
      </trkpt>
      <trkpt lat="44.85551" lon="5.25993">
        <ele>1457.93</ele>
        <time>2017-05-24T14:08:56.999Z</time>
      </trkpt>
      <trkpt lat="44.85557" lon="5.26002">
        <ele>1458.01</ele>
        <time>2017-05-24T14:09:01.999Z</time>
      </trkpt>
      <trkpt lat="44.85564" lon="5.2601">
        <ele>1457.94</ele>
        <time>2017-05-24T14:09:07.999Z</time>
      </trkpt>
      <trkpt lat="44.85572" lon="5.26017">
        <ele>1457.76</ele>
        <time>2017-05-24T14:09:12.999Z</time>
      </trkpt>
      <trkpt lat="44.8558" lon="5.26026">
        <ele>1457.36</ele>
        <time>2017-05-24T14:09:18.999Z</time>
      </trkpt>
      <trkpt lat="44.85589" lon="5.26034">
        <ele>1456.99</ele>
        <time>2017-05-24T14:09:25.999Z</time>
      </trkpt>
      <trkpt lat="44.85598" lon="5.26043">
        <ele>1456.03</ele>
        <time>2017-05-24T14:09:32.999Z</time>
      </trkpt>
      <trkpt lat="44.85605" lon="5.26051">
        <ele>1455.86</ele>
        <time>2017-05-24T14:09:37.999Z</time>
      </trkpt>
      <trkpt lat="44.85614" lon="5.2606">
        <ele>1455.74</ele>
        <time>2017-05-24T14:09:45.999Z</time>
      </trkpt>
      <trkpt lat="44.85621" lon="5.26067">
        <ele>1455.31</ele>
        <time>2017-05-24T14:09:50.999Z</time>
      </trkpt>
      <trkpt lat="44.85629" lon="5.26075">
        <ele>1455.25</ele>
        <time>2017-05-24T14:09:56.999Z</time>
      </trkpt>
      <trkpt lat="44.85634" lon="5.26087">
        <ele>1454.28</ele>
        <time>2017-05-24T14:10:03.999Z</time>
      </trkpt>
      <trkpt lat="44.85637" lon="5.26102">
        <ele>1453.77</ele>
        <time>2017-05-24T14:10:09.999Z</time>
      </trkpt>
      <trkpt lat="44.85643" lon="5.26115">
        <ele>1453.09</ele>
        <time>2017-05-24T14:10:16.999Z</time>
      </trkpt>
      <trkpt lat="44.85646" lon="5.2613">
        <ele>1452.51</ele>
        <time>2017-05-24T14:10:22.999Z</time>
      </trkpt>
      <trkpt lat="44.85648" lon="5.26143">
        <ele>1452.51</ele>
        <time>2017-05-24T14:10:28.999Z</time>
      </trkpt>
      <trkpt lat="44.85652" lon="5.26156">
        <ele>1452.31</ele>
        <time>2017-05-24T14:10:35.999Z</time>
      </trkpt>
      <trkpt lat="44.85657" lon="5.2617">
        <ele>1452.25</ele>
        <time>2017-05-24T14:10:41.999Z</time>
      </trkpt>
      <trkpt lat="44.85661" lon="5.26182">
        <ele>1452.52</ele>
        <time>2017-05-24T14:10:48.999Z</time>
      </trkpt>
      <trkpt lat="44.85666" lon="5.26194">
        <ele>1453.01</ele>
        <time>2017-05-24T14:10:56.999Z</time>
      </trkpt>
      <trkpt lat="44.85669" lon="5.26207">
        <ele>1453.62</ele>
        <time>2017-05-24T14:11:04.999Z</time>
      </trkpt>
      <trkpt lat="44.85673" lon="5.26219">
        <ele>1454.25</ele>
        <time>2017-05-24T14:11:13.999Z</time>
      </trkpt>
      <trkpt lat="44.85678" lon="5.26232">
        <ele>1454.79</ele>
        <time>2017-05-24T14:11:19.999Z</time>
      </trkpt>
      <trkpt lat="44.85682" lon="5.26245">
        <ele>1455.5</ele>
        <time>2017-05-24T14:11:26.999Z</time>
      </trkpt>
      <trkpt lat="44.85686" lon="5.26258">
        <ele>1456.34</ele>
        <time>2017-05-24T14:11:34.999Z</time>
      </trkpt>
      <trkpt lat="44.8569" lon="5.26271">
        <ele>1456.84</ele>
        <time>2017-05-24T14:11:40.999Z</time>
      </trkpt>
      <trkpt lat="44.85693" lon="5.26284">
        <ele>1456.44</ele>
        <time>2017-05-24T14:11:48.999Z</time>
      </trkpt>
      <trkpt lat="44.85698" lon="5.26298">
        <ele>1456.04</ele>
        <time>2017-05-24T14:11:55.999Z</time>
      </trkpt>
      <trkpt lat="44.85701" lon="5.26311">
        <ele>1456.07</ele>
        <time>2017-05-24T14:12:01.999Z</time>
      </trkpt>
      <trkpt lat="44.85705" lon="5.26325">
        <ele>1456.21</ele>
        <time>2017-05-24T14:12:09.999Z</time>
      </trkpt>
      <trkpt lat="44.85709" lon="5.26337">
        <ele>1456.26</ele>
        <time>2017-05-24T14:12:14.999Z</time>
      </trkpt>
      <trkpt lat="44.85712" lon="5.2635">
        <ele>1456.61</ele>
        <time>2017-05-24T14:12:20.999Z</time>
      </trkpt>
      <trkpt lat="44.85717" lon="5.26361">
        <ele>1457.14</ele>
        <time>2017-05-24T14:12:27.999Z</time>
      </trkpt>
      <trkpt lat="44.85721" lon="5.26373">
        <ele>1457.84</ele>
        <time>2017-05-24T14:12:34.999Z</time>
      </trkpt>
      <trkpt lat="44.85724" lon="5.26385">
        <ele>1458.39</ele>
        <time>2017-05-24T14:12:42.999Z</time>
      </trkpt>
      <trkpt lat="44.85728" lon="5.26399">
        <ele>1458.52</ele>
        <time>2017-05-24T14:12:48.999Z</time>
      </trkpt>
      <trkpt lat="44.85732" lon="5.26411">
        <ele>1458.87</ele>
        <time>2017-05-24T14:12:55.999Z</time>
      </trkpt>
      <trkpt lat="44.85736" lon="5.26423">
        <ele>1459.14</ele>
        <time>2017-05-24T14:13:02.999Z</time>
      </trkpt>
      <trkpt lat="44.8574" lon="5.26436">
        <ele>1460.29</ele>
        <time>2017-05-24T14:13:10.999Z</time>
      </trkpt>
      <trkpt lat="44.85745" lon="5.26449">
        <ele>1461.32</ele>
        <time>2017-05-24T14:13:18.999Z</time>
      </trkpt>
      <trkpt lat="44.85748" lon="5.26462">
        <ele>1462.28</ele>
        <time>2017-05-24T14:13:26.999Z</time>
      </trkpt>
      <trkpt lat="44.85751" lon="5.26475">
        <ele>1463.34</ele>
        <time>2017-05-24T14:13:34.999Z</time>
      </trkpt>
      <trkpt lat="44.85754" lon="5.26489">
        <ele>1464.29</ele>
        <time>2017-05-24T14:13:42.999Z</time>
      </trkpt>
      <trkpt lat="44.85758" lon="5.265">
        <ele>1464.99</ele>
        <time>2017-05-24T14:13:48.999Z</time>
      </trkpt>
      <trkpt lat="44.85762" lon="5.26513">
        <ele>1466.45</ele>
        <time>2017-05-24T14:13:54.999Z</time>
      </trkpt>
      <trkpt lat="44.85767" lon="5.26523">
        <ele>1468.09</ele>
        <time>2017-05-24T14:14:01.999Z</time>
      </trkpt>
      <trkpt lat="44.85773" lon="5.26534">
        <ele>1468.97</ele>
        <time>2017-05-24T14:14:08.999Z</time>
      </trkpt>
      <trkpt lat="44.85778" lon="5.26545">
        <ele>1470.03</ele>
        <time>2017-05-24T14:14:15.999Z</time>
      </trkpt>
      <trkpt lat="44.85784" lon="5.26556">
        <ele>1471.15</ele>
        <time>2017-05-24T14:14:24.999Z</time>
      </trkpt>
      <trkpt lat="44.85788" lon="5.26569">
        <ele>1472.29</ele>
        <time>2017-05-24T14:14:31.999Z</time>
      </trkpt>
      <trkpt lat="44.85793" lon="5.26581">
        <ele>1473.52</ele>
        <time>2017-05-24T14:14:39.999Z</time>
      </trkpt>
      <trkpt lat="44.85799" lon="5.26592">
        <ele>1475.25</ele>
        <time>2017-05-24T14:14:48.999Z</time>
      </trkpt>
      <trkpt lat="44.85804" lon="5.26602">
        <ele>1477.03</ele>
        <time>2017-05-24T14:14:56.999Z</time>
      </trkpt>
      <trkpt lat="44.85809" lon="5.26613">
        <ele>1478.8</ele>
        <time>2017-05-24T14:15:03.999Z</time>
      </trkpt>
      <trkpt lat="44.85815" lon="5.26623">
        <ele>1480.24</ele>
        <time>2017-05-24T14:15:10.999Z</time>
      </trkpt>
      <trkpt lat="44.8582" lon="5.26634">
        <ele>1482</ele>
        <time>2017-05-24T14:15:16.999Z</time>
      </trkpt>
      <trkpt lat="44.85825" lon="5.26647">
        <ele>1484.39</ele>
        <time>2017-05-24T14:15:25.999Z</time>
      </trkpt>
      <trkpt lat="44.85831" lon="5.26657">
        <ele>1485.31</ele>
        <time>2017-05-24T14:15:34.999Z</time>
      </trkpt>
      <trkpt lat="44.85836" lon="5.26668">
        <ele>1486.47</ele>
        <time>2017-05-24T14:15:41.999Z</time>
      </trkpt>
      <trkpt lat="44.85842" lon="5.2668">
        <ele>1487.75</ele>
        <time>2017-05-24T14:15:48.999Z</time>
      </trkpt>
      <trkpt lat="44.85848" lon="5.26691">
        <ele>1489.13</ele>
        <time>2017-05-24T14:15:54.999Z</time>
      </trkpt>
      <trkpt lat="44.85854" lon="5.26703">
        <ele>1491.05</ele>
        <time>2017-05-24T14:16:03.999Z</time>
      </trkpt>
      <trkpt lat="44.85858" lon="5.26715">
        <ele>1492.24</ele>
        <time>2017-05-24T14:16:11.999Z</time>
      </trkpt>
      <trkpt lat="44.85864" lon="5.26727">
        <ele>1492.89</ele>
        <time>2017-05-24T14:16:19.999Z</time>
      </trkpt>
      <trkpt lat="44.8587" lon="5.26738">
        <ele>1493.64</ele>
        <time>2017-05-24T14:16:26.999Z</time>
      </trkpt>
      <trkpt lat="44.85876" lon="5.26748">
        <ele>1494.34</ele>
        <time>2017-05-24T14:16:32.999Z</time>
      </trkpt>
      <trkpt lat="44.8588" lon="5.26759">
        <ele>1495.04</ele>
        <time>2017-05-24T14:16:38.999Z</time>
      </trkpt>
      <trkpt lat="44.85886" lon="5.26771">
        <ele>1495.31</ele>
        <time>2017-05-24T14:16:45.999Z</time>
      </trkpt>
      <trkpt lat="44.85893" lon="5.26782">
        <ele>1495.2</ele>
        <time>2017-05-24T14:16:52.999Z</time>
      </trkpt>
      <trkpt lat="44.85897" lon="5.26794">
        <ele>1494.89</ele>
        <time>2017-05-24T14:16:59.999Z</time>
      </trkpt>
      <trkpt lat="44.85904" lon="5.26805">
        <ele>1494.58</ele>
        <time>2017-05-24T14:17:06.999Z</time>
      </trkpt>
      <trkpt lat="44.8591" lon="5.26816">
        <ele>1494.39</ele>
        <time>2017-05-24T14:17:14.999Z</time>
      </trkpt>
      <trkpt lat="44.85915" lon="5.26827">
        <ele>1494.26</ele>
        <time>2017-05-24T14:17:20.999Z</time>
      </trkpt>
      <trkpt lat="44.8592" lon="5.26838">
        <ele>1494.16</ele>
        <time>2017-05-24T14:17:27.999Z</time>
      </trkpt>
      <trkpt lat="44.85925" lon="5.2685">
        <ele>1493.89</ele>
        <time>2017-05-24T14:17:34.999Z</time>
      </trkpt>
      <trkpt lat="44.85928" lon="5.26863">
        <ele>1493.95</ele>
        <time>2017-05-24T14:17:42.999Z</time>
      </trkpt>
      <trkpt lat="44.85926" lon="5.26877">
        <ele>1493.98</ele>
        <time>2017-05-24T14:17:50.999Z</time>
      </trkpt>
      <trkpt lat="44.85927" lon="5.2689">
        <ele>1493.89</ele>
        <time>2017-05-24T14:17:57.999Z</time>
      </trkpt>
      <trkpt lat="44.85927" lon="5.26903">
        <ele>1494.03</ele>
        <time>2017-05-24T14:18:05.999Z</time>
      </trkpt>
      <trkpt lat="44.85931" lon="5.26914">
        <ele>1493.9</ele>
        <time>2017-05-24T14:18:19.999Z</time>
      </trkpt>
      <trkpt lat="44.85938" lon="5.26925">
        <ele>1493.78</ele>
        <time>2017-05-24T14:18:26.999Z</time>
      </trkpt>
      <trkpt lat="44.85943" lon="5.26938">
        <ele>1494.2</ele>
        <time>2017-05-24T14:18:33.999Z</time>
      </trkpt>
      <trkpt lat="44.85949" lon="5.2695">
        <ele>1494.6</ele>
        <time>2017-05-24T14:18:40.999Z</time>
      </trkpt>
      <trkpt lat="44.85953" lon="5.26962">
        <ele>1495.5</ele>
        <time>2017-05-24T14:18:50.999Z</time>
      </trkpt>
      <trkpt lat="44.8596" lon="5.26973">
        <ele>1496.5</ele>
        <time>2017-05-24T14:18:58.999Z</time>
      </trkpt>
      <trkpt lat="44.85965" lon="5.26985">
        <ele>1497.61</ele>
        <time>2017-05-24T14:19:06.999Z</time>
      </trkpt>
      <trkpt lat="44.85972" lon="5.26995">
        <ele>1497.93</ele>
        <time>2017-05-24T14:19:13.999Z</time>
      </trkpt>
      <trkpt lat="44.85976" lon="5.27008">
        <ele>1498.53</ele>
        <time>2017-05-24T14:19:21.999Z</time>
      </trkpt>
      <trkpt lat="44.85981" lon="5.27019">
        <ele>1499.42</ele>
        <time>2017-05-24T14:19:28.999Z</time>
      </trkpt>
      <trkpt lat="44.85986" lon="5.27029">
        <ele>1500.4</ele>
        <time>2017-05-24T14:19:35.999Z</time>
      </trkpt>
      <trkpt lat="44.85995" lon="5.27038">
        <ele>1500.7</ele>
        <time>2017-05-24T14:19:43.999Z</time>
      </trkpt>
      <trkpt lat="44.86003" lon="5.27044">
        <ele>1500.82</ele>
        <time>2017-05-24T14:19:49.999Z</time>
      </trkpt>
      <trkpt lat="44.86012" lon="5.2705">
        <ele>1500.8</ele>
        <time>2017-05-24T14:19:56.999Z</time>
      </trkpt>
      <trkpt lat="44.8602" lon="5.27055">
        <ele>1500.84</ele>
        <time>2017-05-24T14:20:02.999Z</time>
      </trkpt>
      <trkpt lat="44.8603" lon="5.27059">
        <ele>1500.52</ele>
        <time>2017-05-24T14:20:09.999Z</time>
      </trkpt>
      <trkpt lat="44.86039" lon="5.27065">
        <ele>1499.85</ele>
        <time>2017-05-24T14:20:18.999Z</time>
      </trkpt>
      <trkpt lat="44.86048" lon="5.27069">
        <ele>1499.41</ele>
        <time>2017-05-24T14:20:24.999Z</time>
      </trkpt>
      <trkpt lat="44.86058" lon="5.27073">
        <ele>1498.14</ele>
        <time>2017-05-24T14:20:33.999Z</time>
      </trkpt>
      <trkpt lat="44.86068" lon="5.27076">
        <ele>1497.2</ele>
        <time>2017-05-24T14:20:41.999Z</time>
      </trkpt>
      <trkpt lat="44.86076" lon="5.27084">
        <ele>1496.46</ele>
        <time>2017-05-24T14:20:49.999Z</time>
      </trkpt>
      <trkpt lat="44.86081" lon="5.27094">
        <ele>1495.53</ele>
        <time>2017-05-24T14:20:57.999Z</time>
      </trkpt>
      <trkpt lat="44.86086" lon="5.27106">
        <ele>1494.93</ele>
        <time>2017-05-24T14:21:03.999Z</time>
      </trkpt>
      <trkpt lat="44.8609" lon="5.27118">
        <ele>1494.27</ele>
        <time>2017-05-24T14:21:10.999Z</time>
      </trkpt>
      <trkpt lat="44.86096" lon="5.2713">
        <ele>1493.41</ele>
        <time>2017-05-24T14:21:18.999Z</time>
      </trkpt>
      <trkpt lat="44.86102" lon="5.27142">
        <ele>1492.97</ele>
        <time>2017-05-24T14:21:26.999Z</time>
      </trkpt>
      <trkpt lat="44.86108" lon="5.27152">
        <ele>1492.33</ele>
        <time>2017-05-24T14:21:33.999Z</time>
      </trkpt>
      <trkpt lat="44.86112" lon="5.27164">
        <ele>1491.41</ele>
        <time>2017-05-24T14:21:42.999Z</time>
      </trkpt>
      <trkpt lat="44.86121" lon="5.27168">
        <ele>1492.19</ele>
        <time>2017-05-24T14:22:12.999Z</time>
      </trkpt>
      <trkpt lat="44.86129" lon="5.27164">
        <ele>1491.63</ele>
        <time>2017-05-24T14:22:20.999Z</time>
      </trkpt>
      <trkpt lat="44.86139" lon="5.2716">
        <ele>1490.75</ele>
        <time>2017-05-24T14:22:27.999Z</time>
      </trkpt>
      <trkpt lat="44.86148" lon="5.27159">
        <ele>1489.63</ele>
        <time>2017-05-24T14:22:34.999Z</time>
      </trkpt>
      <trkpt lat="44.86157" lon="5.27156">
        <ele>1488.46</ele>
        <time>2017-05-24T14:22:40.999Z</time>
      </trkpt>
      <trkpt lat="44.86168" lon="5.27154">
        <ele>1486.4</ele>
        <time>2017-05-24T14:22:47.999Z</time>
      </trkpt>
      <trkpt lat="44.86177" lon="5.27152">
        <ele>1484.51</ele>
        <time>2017-05-24T14:22:55.999Z</time>
      </trkpt>
      <trkpt lat="44.86187" lon="5.27148">
        <ele>1483.17</ele>
        <time>2017-05-24T14:23:03.999Z</time>
      </trkpt>
      <trkpt lat="44.86196" lon="5.27145">
        <ele>1482.02</ele>
        <time>2017-05-24T14:23:09.999Z</time>
      </trkpt>
      <trkpt lat="44.86205" lon="5.27144">
        <ele>1480.43</ele>
        <time>2017-05-24T14:23:16.999Z</time>
      </trkpt>
      <trkpt lat="44.86215" lon="5.27142">
        <ele>1478.62</ele>
        <time>2017-05-24T14:23:24.999Z</time>
      </trkpt>
      <trkpt lat="44.86224" lon="5.27139">
        <ele>1477.48</ele>
        <time>2017-05-24T14:23:31.999Z</time>
      </trkpt>
      <trkpt lat="44.86233" lon="5.27133">
        <ele>1475.51</ele>
        <time>2017-05-24T14:23:39.999Z</time>
      </trkpt>
      <trkpt lat="44.86243" lon="5.27131">
        <ele>1473.46</ele>
        <time>2017-05-24T14:23:46.999Z</time>
      </trkpt>
      <trkpt lat="44.86251" lon="5.27123">
        <ele>1471.8</ele>
        <time>2017-05-24T14:23:52.999Z</time>
      </trkpt>
      <trkpt lat="44.86261" lon="5.27121">
        <ele>1470.68</ele>
        <time>2017-05-24T14:23:59.999Z</time>
      </trkpt>
      <trkpt lat="44.86271" lon="5.27125">
        <ele>1470</ele>
        <time>2017-05-24T14:24:05.999Z</time>
      </trkpt>
      <trkpt lat="44.86281" lon="5.27127">
        <ele>1469.48</ele>
        <time>2017-05-24T14:24:12.999Z</time>
      </trkpt>
      <trkpt lat="44.86292" lon="5.27128">
        <ele>1468.75</ele>
        <time>2017-05-24T14:24:19.999Z</time>
      </trkpt>
      <trkpt lat="44.86302" lon="5.2713">
        <ele>1468.11</ele>
        <time>2017-05-24T14:24:26.999Z</time>
      </trkpt>
      <trkpt lat="44.86311" lon="5.27133">
        <ele>1467.35</ele>
        <time>2017-05-24T14:24:33.999Z</time>
      </trkpt>
      <trkpt lat="44.86322" lon="5.27137">
        <ele>1466.75</ele>
        <time>2017-05-24T14:24:50.999Z</time>
      </trkpt>
      <trkpt lat="44.86331" lon="5.27141">
        <ele>1465.93</ele>
        <time>2017-05-24T14:24:58.999Z</time>
      </trkpt>
      <trkpt lat="44.8634" lon="5.27144">
        <ele>1465.11</ele>
        <time>2017-05-24T14:25:04.999Z</time>
      </trkpt>
      <trkpt lat="44.86349" lon="5.27147">
        <ele>1464.22</ele>
        <time>2017-05-24T14:25:09.999Z</time>
      </trkpt>
      <trkpt lat="44.86358" lon="5.27151">
        <ele>1463.19</ele>
        <time>2017-05-24T14:25:16.999Z</time>
      </trkpt>
      <trkpt lat="44.86367" lon="5.27153">
        <ele>1462.08</ele>
        <time>2017-05-24T14:25:23.999Z</time>
      </trkpt>
      <trkpt lat="44.86378" lon="5.27156">
        <ele>1460.68</ele>
        <time>2017-05-24T14:25:30.999Z</time>
      </trkpt>
      <trkpt lat="44.86387" lon="5.27159">
        <ele>1459.27</ele>
        <time>2017-05-24T14:25:36.999Z</time>
      </trkpt>
      <trkpt lat="44.86397" lon="5.2716">
        <ele>1458.39</ele>
        <time>2017-05-24T14:25:42.999Z</time>
      </trkpt>
      <trkpt lat="44.86406" lon="5.27161">
        <ele>1457.12</ele>
        <time>2017-05-24T14:25:49.999Z</time>
      </trkpt>
      <trkpt lat="44.86416" lon="5.27163">
        <ele>1456.09</ele>
        <time>2017-05-24T14:25:55.999Z</time>
      </trkpt>
      <trkpt lat="44.86426" lon="5.27167">
        <ele>1454.92</ele>
        <time>2017-05-24T14:26:01.999Z</time>
      </trkpt>
      <trkpt lat="44.86435" lon="5.27171">
        <ele>1453.76</ele>
        <time>2017-05-24T14:26:09.999Z</time>
      </trkpt>
      <trkpt lat="44.86445" lon="5.27175">
        <ele>1452.68</ele>
        <time>2017-05-24T14:26:17.999Z</time>
      </trkpt>
      <trkpt lat="44.86454" lon="5.27177">
        <ele>1451.95</ele>
        <time>2017-05-24T14:26:24.999Z</time>
      </trkpt>
      <trkpt lat="44.86463" lon="5.27176">
        <ele>1451.27</ele>
        <time>2017-05-24T14:26:30.999Z</time>
      </trkpt>
      <trkpt lat="44.86472" lon="5.27182">
        <ele>1448.89</ele>
        <time>2017-05-24T14:26:40.999Z</time>
      </trkpt>
      <trkpt lat="44.86482" lon="5.27184">
        <ele>1446.73</ele>
        <time>2017-05-24T14:26:49.999Z</time>
      </trkpt>
      <trkpt lat="44.86491" lon="5.27184">
        <ele>1446.8</ele>
        <time>2017-05-24T14:27:02.999Z</time>
      </trkpt>
      <trkpt lat="44.86501" lon="5.27185">
        <ele>1447.45</ele>
        <time>2017-05-24T14:27:10.999Z</time>
      </trkpt>
      <trkpt lat="44.8651" lon="5.2719">
        <ele>1447.83</ele>
        <time>2017-05-24T14:27:20.999Z</time>
      </trkpt>
      <trkpt lat="44.8652" lon="5.27187">
        <ele>1447.49</ele>
        <time>2017-05-24T14:27:28.999Z</time>
      </trkpt>
      <trkpt lat="44.86529" lon="5.27189">
        <ele>1446.86</ele>
        <time>2017-05-24T14:27:34.999Z</time>
      </trkpt>
      <trkpt lat="44.86538" lon="5.27194">
        <ele>1446.48</ele>
        <time>2017-05-24T14:27:41.999Z</time>
      </trkpt>
      <trkpt lat="44.86548" lon="5.27192">
        <ele>1445.66</ele>
        <time>2017-05-24T14:27:48.999Z</time>
      </trkpt>
      <trkpt lat="44.86557" lon="5.27196">
        <ele>1444.52</ele>
        <time>2017-05-24T14:27:55.999Z</time>
      </trkpt>
      <trkpt lat="44.86567" lon="5.27197">
        <ele>1443.7</ele>
        <time>2017-05-24T14:28:02.999Z</time>
      </trkpt>
      <trkpt lat="44.86577" lon="5.27199">
        <ele>1443.26</ele>
        <time>2017-05-24T14:28:08.999Z</time>
      </trkpt>
      <trkpt lat="44.86586" lon="5.272">
        <ele>1442.84</ele>
        <time>2017-05-24T14:28:14.999Z</time>
      </trkpt>
      <trkpt lat="44.86594" lon="5.27202">
        <ele>1442.28</ele>
        <time>2017-05-24T14:28:19.999Z</time>
      </trkpt>
      <trkpt lat="44.86605" lon="5.27204">
        <ele>1441.03</ele>
        <time>2017-05-24T14:28:27.999Z</time>
      </trkpt>
      <trkpt lat="44.86616" lon="5.27205">
        <ele>1440.05</ele>
        <time>2017-05-24T14:28:33.999Z</time>
      </trkpt>
      <trkpt lat="44.86625" lon="5.27207">
        <ele>1439.44</ele>
        <time>2017-05-24T14:28:39.999Z</time>
      </trkpt>
      <trkpt lat="44.86635" lon="5.27208">
        <ele>1438.81</ele>
        <time>2017-05-24T14:28:45.999Z</time>
      </trkpt>
      <trkpt lat="44.86645" lon="5.2721">
        <ele>1438.39</ele>
        <time>2017-05-24T14:28:51.999Z</time>
      </trkpt>
      <trkpt lat="44.86655" lon="5.27213">
        <ele>1437.81</ele>
        <time>2017-05-24T14:28:57.999Z</time>
      </trkpt>
      <trkpt lat="44.86664" lon="5.27215">
        <ele>1437.31</ele>
        <time>2017-05-24T14:29:04.999Z</time>
      </trkpt>
      <trkpt lat="44.86673" lon="5.2722">
        <ele>1437.24</ele>
        <time>2017-05-24T14:29:10.999Z</time>
      </trkpt>
      <trkpt lat="44.86682" lon="5.27227">
        <ele>1437.66</ele>
        <time>2017-05-24T14:29:17.999Z</time>
      </trkpt>
      <trkpt lat="44.8669" lon="5.27236">
        <ele>1437.83</ele>
        <time>2017-05-24T14:29:23.999Z</time>
      </trkpt>
      <trkpt lat="44.86696" lon="5.27246">
        <ele>1438.19</ele>
        <time>2017-05-24T14:29:31.999Z</time>
      </trkpt>
      <trkpt lat="44.86702" lon="5.27256">
        <ele>1438.45</ele>
        <time>2017-05-24T14:29:37.999Z</time>
      </trkpt>
      <trkpt lat="44.8671" lon="5.27266">
        <ele>1438.66</ele>
        <time>2017-05-24T14:29:44.999Z</time>
      </trkpt>
      <trkpt lat="44.86716" lon="5.27276">
        <ele>1438.44</ele>
        <time>2017-05-24T14:29:51.999Z</time>
      </trkpt>
      <trkpt lat="44.86723" lon="5.27285">
        <ele>1438.2</ele>
        <time>2017-05-24T14:29:57.999Z</time>
      </trkpt>
      <trkpt lat="44.8673" lon="5.27294">
        <ele>1438.34</ele>
        <time>2017-05-24T14:30:05.999Z</time>
      </trkpt>
      <trkpt lat="44.86738" lon="5.27301">
        <ele>1438.35</ele>
        <time>2017-05-24T14:30:12.999Z</time>
      </trkpt>
      <trkpt lat="44.86744" lon="5.27312">
        <ele>1438.2</ele>
        <time>2017-05-24T14:30:18.999Z</time>
      </trkpt>
      <trkpt lat="44.86748" lon="5.27325">
        <ele>1437.97</ele>
        <time>2017-05-24T14:30:26.999Z</time>
      </trkpt>
      <trkpt lat="44.86749" lon="5.27338">
        <ele>1438.73</ele>
        <time>2017-05-24T14:30:35.999Z</time>
      </trkpt>
      <trkpt lat="44.86745" lon="5.2735">
        <ele>1439.13</ele>
        <time>2017-05-24T14:30:40.999Z</time>
      </trkpt>
      <trkpt lat="44.86741" lon="5.27363">
        <ele>1439.54</ele>
        <time>2017-05-24T14:30:45.999Z</time>
      </trkpt>
      <trkpt lat="44.86736" lon="5.27374">
        <ele>1440.58</ele>
        <time>2017-05-24T14:30:55.999Z</time>
      </trkpt>
      <trkpt lat="44.86746" lon="5.27373">
        <ele>1444.74</ele>
        <time>2017-05-24T14:31:21.999Z</time>
      </trkpt>
      <trkpt lat="44.86755" lon="5.27375">
        <ele>1444.99</ele>
        <time>2017-05-24T14:31:31.999Z</time>
      </trkpt>
      <trkpt lat="44.86765" lon="5.2738">
        <ele>1444.48</ele>
        <time>2017-05-24T14:31:41.999Z</time>
      </trkpt>
      <trkpt lat="44.86775" lon="5.27383">
        <ele>1443.94</ele>
        <time>2017-05-24T14:31:48.999Z</time>
      </trkpt>
      <trkpt lat="44.86784" lon="5.27385">
        <ele>1443.8</ele>
        <time>2017-05-24T14:31:55.999Z</time>
      </trkpt>
      <trkpt lat="44.86794" lon="5.27387">
        <ele>1443.94</ele>
        <time>2017-05-24T14:32:01.999Z</time>
      </trkpt>
      <trkpt lat="44.86803" lon="5.27393">
        <ele>1443.96</ele>
        <time>2017-05-24T14:32:06.999Z</time>
      </trkpt>
      <trkpt lat="44.86811" lon="5.27399">
        <ele>1443.7</ele>
        <time>2017-05-24T14:32:13.999Z</time>
      </trkpt>
      <trkpt lat="44.86821" lon="5.27401">
        <ele>1443.42</ele>
        <time>2017-05-24T14:32:21.999Z</time>
      </trkpt>
      <trkpt lat="44.86831" lon="5.27404">
        <ele>1443.02</ele>
        <time>2017-05-24T14:32:28.999Z</time>
      </trkpt>
      <trkpt lat="44.86838" lon="5.27411">
        <ele>1442.24</ele>
        <time>2017-05-24T14:32:34.999Z</time>
      </trkpt>
      <trkpt lat="44.86847" lon="5.27416">
        <ele>1441.36</ele>
        <time>2017-05-24T14:32:39.999Z</time>
      </trkpt>
      <trkpt lat="44.86857" lon="5.27423">
        <ele>1441</ele>
        <time>2017-05-24T14:32:43.999Z</time>
      </trkpt>
      <trkpt lat="44.86866" lon="5.27428">
        <ele>1440.68</ele>
        <time>2017-05-24T14:32:50.999Z</time>
      </trkpt>
      <trkpt lat="44.86874" lon="5.27436">
        <ele>1440.59</ele>
        <time>2017-05-24T14:32:54.999Z</time>
      </trkpt>
      <trkpt lat="44.86883" lon="5.27445">
        <ele>1440.67</ele>
        <time>2017-05-24T14:32:59.999Z</time>
      </trkpt>
      <trkpt lat="44.86891" lon="5.27454">
        <ele>1440.68</ele>
        <time>2017-05-24T14:33:04.999Z</time>
      </trkpt>
      <trkpt lat="44.869" lon="5.27459">
        <ele>1441.06</ele>
        <time>2017-05-24T14:33:09.999Z</time>
      </trkpt>
      <trkpt lat="44.86909" lon="5.27462">
        <ele>1441.29</ele>
        <time>2017-05-24T14:33:15.999Z</time>
      </trkpt>
      <trkpt lat="44.86919" lon="5.27468">
        <ele>1441.28</ele>
        <time>2017-05-24T14:33:21.999Z</time>
      </trkpt>
      <trkpt lat="44.86927" lon="5.27472">
        <ele>1441.07</ele>
        <time>2017-05-24T14:33:27.999Z</time>
      </trkpt>
      <trkpt lat="44.86937" lon="5.27476">
        <ele>1441.07</ele>
        <time>2017-05-24T14:33:33.999Z</time>
      </trkpt>
      <trkpt lat="44.86947" lon="5.27479">
        <ele>1440.83</ele>
        <time>2017-05-24T14:33:41.999Z</time>
      </trkpt>
      <trkpt lat="44.86954" lon="5.27486">
        <ele>1440.88</ele>
        <time>2017-05-24T14:33:46.999Z</time>
      </trkpt>
      <trkpt lat="44.86963" lon="5.27492">
        <ele>1441.17</ele>
        <time>2017-05-24T14:33:52.999Z</time>
      </trkpt>
      <trkpt lat="44.86971" lon="5.27497">
        <ele>1441.16</ele>
        <time>2017-05-24T14:33:58.999Z</time>
      </trkpt>
      <trkpt lat="44.8698" lon="5.27502">
        <ele>1441.5</ele>
        <time>2017-05-24T14:34:04.999Z</time>
      </trkpt>
      <trkpt lat="44.8699" lon="5.27508">
        <ele>1441.54</ele>
        <time>2017-05-24T14:34:11.999Z</time>
      </trkpt>
      <trkpt lat="44.86999" lon="5.27514">
        <ele>1441.31</ele>
        <time>2017-05-24T14:34:17.999Z</time>
      </trkpt>
      <trkpt lat="44.87009" lon="5.27518">
        <ele>1441.27</ele>
        <time>2017-05-24T14:34:24.999Z</time>
      </trkpt>
      <trkpt lat="44.87018" lon="5.27521">
        <ele>1441.17</ele>
        <time>2017-05-24T14:34:30.999Z</time>
      </trkpt>
      <trkpt lat="44.87029" lon="5.2752">
        <ele>1440.7</ele>
        <time>2017-05-24T14:34:38.999Z</time>
      </trkpt>
      <trkpt lat="44.87038" lon="5.2752">
        <ele>1439.96</ele>
        <time>2017-05-24T14:34:44.999Z</time>
      </trkpt>
      <trkpt lat="44.87048" lon="5.27522">
        <ele>1439.36</ele>
        <time>2017-05-24T14:34:51.999Z</time>
      </trkpt>
      <trkpt lat="44.87057" lon="5.27524">
        <ele>1438.58</ele>
        <time>2017-05-24T14:34:57.999Z</time>
      </trkpt>
      <trkpt lat="44.87067" lon="5.27527">
        <ele>1437.13</ele>
        <time>2017-05-24T14:35:04.999Z</time>
      </trkpt>
      <trkpt lat="44.87075" lon="5.27531">
        <ele>1435.23</ele>
        <time>2017-05-24T14:35:12.999Z</time>
      </trkpt>
      <trkpt lat="44.87084" lon="5.27533">
        <ele>1434.59</ele>
        <time>2017-05-24T14:35:18.999Z</time>
      </trkpt>
      <trkpt lat="44.87094" lon="5.27533">
        <ele>1433.9</ele>
        <time>2017-05-24T14:35:24.999Z</time>
      </trkpt>
      <trkpt lat="44.87103" lon="5.27532">
        <ele>1433.59</ele>
        <time>2017-05-24T14:35:29.999Z</time>
      </trkpt>
      <trkpt lat="44.87114" lon="5.27531">
        <ele>1434.22</ele>
        <time>2017-05-24T14:35:36.999Z</time>
      </trkpt>
      <trkpt lat="44.87124" lon="5.27528">
        <ele>1435.39</ele>
        <time>2017-05-24T14:35:45.999Z</time>
      </trkpt>
      <trkpt lat="44.87133" lon="5.27526">
        <ele>1435.99</ele>
        <time>2017-05-24T14:35:50.999Z</time>
      </trkpt>
      <trkpt lat="44.87143" lon="5.27523">
        <ele>1436.48</ele>
        <time>2017-05-24T14:35:56.999Z</time>
      </trkpt>
      <trkpt lat="44.87153" lon="5.27526">
        <ele>1436.34</ele>
        <time>2017-05-24T14:36:04.999Z</time>
      </trkpt>
      <trkpt lat="44.87161" lon="5.27533">
        <ele>1437.19</ele>
        <time>2017-05-24T14:36:14.999Z</time>
      </trkpt>
      <trkpt lat="44.87167" lon="5.27545">
        <ele>1437.87</ele>
        <time>2017-05-24T14:36:21.999Z</time>
      </trkpt>
      <trkpt lat="44.87172" lon="5.27556">
        <ele>1438.22</ele>
        <time>2017-05-24T14:36:28.999Z</time>
      </trkpt>
      <trkpt lat="44.87174" lon="5.27569">
        <ele>1438.3</ele>
        <time>2017-05-24T14:36:35.999Z</time>
      </trkpt>
      <trkpt lat="44.87179" lon="5.27581">
        <ele>1438.67</ele>
        <time>2017-05-24T14:36:43.999Z</time>
      </trkpt>
      <trkpt lat="44.87186" lon="5.27588">
        <ele>1439.83</ele>
        <time>2017-05-24T14:37:11.999Z</time>
      </trkpt>
      <trkpt lat="44.87196" lon="5.27589">
        <ele>1440.98</ele>
        <time>2017-05-24T14:37:25.999Z</time>
      </trkpt>
      <trkpt lat="44.87204" lon="5.27596">
        <ele>1440.71</ele>
        <time>2017-05-24T14:37:33.999Z</time>
      </trkpt>
      <trkpt lat="44.87212" lon="5.27603">
        <ele>1440.95</ele>
        <time>2017-05-24T14:37:39.999Z</time>
      </trkpt>
      <trkpt lat="44.87222" lon="5.27606">
        <ele>1441.79</ele>
        <time>2017-05-24T14:37:44.999Z</time>
      </trkpt>
      <trkpt lat="44.8723" lon="5.27611">
        <ele>1442.13</ele>
        <time>2017-05-24T14:37:51.999Z</time>
      </trkpt>
      <trkpt lat="44.87239" lon="5.27618">
        <ele>1442.4</ele>
        <time>2017-05-24T14:37:59.999Z</time>
      </trkpt>
      <trkpt lat="44.87246" lon="5.27624">
        <ele>1443.61</ele>
        <time>2017-05-24T14:38:08.999Z</time>
      </trkpt>
      <trkpt lat="44.87256" lon="5.27629">
        <ele>1445.16</ele>
        <time>2017-05-24T14:38:16.999Z</time>
      </trkpt>
      <trkpt lat="44.87265" lon="5.27634">
        <ele>1446.35</ele>
        <time>2017-05-24T14:38:23.999Z</time>
      </trkpt>
      <trkpt lat="44.87276" lon="5.27635">
        <ele>1448.32</ele>
        <time>2017-05-24T14:38:30.999Z</time>
      </trkpt>
      <trkpt lat="44.87285" lon="5.27634">
        <ele>1449.85</ele>
        <time>2017-05-24T14:38:37.999Z</time>
      </trkpt>
      <trkpt lat="44.87294" lon="5.27632">
        <ele>1450.24</ele>
        <time>2017-05-24T14:38:48.999Z</time>
      </trkpt>
      <trkpt lat="44.87302" lon="5.27627">
        <ele>1450.37</ele>
        <time>2017-05-24T14:38:55.999Z</time>
      </trkpt>
      <trkpt lat="44.87312" lon="5.27624">
        <ele>1450.63</ele>
        <time>2017-05-24T14:39:00.999Z</time>
      </trkpt>
      <trkpt lat="44.8732" lon="5.27618">
        <ele>1450.61</ele>
        <time>2017-05-24T14:39:07.999Z</time>
      </trkpt>
      <trkpt lat="44.87328" lon="5.27613">
        <ele>1450.06</ele>
        <time>2017-05-24T14:39:13.999Z</time>
      </trkpt>
      <trkpt lat="44.87338" lon="5.27611">
        <ele>1449.73</ele>
        <time>2017-05-24T14:39:21.999Z</time>
      </trkpt>
      <trkpt lat="44.87347" lon="5.27608">
        <ele>1450.87</ele>
        <time>2017-05-24T14:39:29.999Z</time>
      </trkpt>
      <trkpt lat="44.87357" lon="5.27603">
        <ele>1453.93</ele>
        <time>2017-05-24T14:39:37.999Z</time>
      </trkpt>
      <trkpt lat="44.87366" lon="5.27601">
        <ele>1455</ele>
        <time>2017-05-24T14:39:42.999Z</time>
      </trkpt>
      <trkpt lat="44.87377" lon="5.27602">
        <ele>1458.08</ele>
        <time>2017-05-24T14:39:53.999Z</time>
      </trkpt>
      <trkpt lat="44.87388" lon="5.27603">
        <ele>1459.53</ele>
        <time>2017-05-24T14:40:00.999Z</time>
      </trkpt>
      <trkpt lat="44.87394" lon="5.27612">
        <ele>1462.8</ele>
        <time>2017-05-24T14:40:15.999Z</time>
      </trkpt>
      <trkpt lat="44.87393" lon="5.27625">
        <ele>1465.12</ele>
        <time>2017-05-24T14:40:24.999Z</time>
      </trkpt>
      <trkpt lat="44.8739" lon="5.27637">
        <ele>1466.54</ele>
        <time>2017-05-24T14:40:31.999Z</time>
      </trkpt>
      <trkpt lat="44.87387" lon="5.2765">
        <ele>1467.74</ele>
        <time>2017-05-24T14:40:38.999Z</time>
      </trkpt>
      <trkpt lat="44.87384" lon="5.27662">
        <ele>1468.91</ele>
        <time>2017-05-24T14:40:47.999Z</time>
      </trkpt>
      <trkpt lat="44.87382" lon="5.27675">
        <ele>1470.39</ele>
        <time>2017-05-24T14:40:55.999Z</time>
      </trkpt>
      <trkpt lat="44.87379" lon="5.27688">
        <ele>1472</ele>
        <time>2017-05-24T14:41:04.999Z</time>
      </trkpt>
      <trkpt lat="44.87371" lon="5.27696">
        <ele>1474.06</ele>
        <time>2017-05-24T14:41:18.999Z</time>
      </trkpt>
      <trkpt lat="44.87363" lon="5.27702">
        <ele>1475.22</ele>
        <time>2017-05-24T14:41:26.999Z</time>
      </trkpt>
      <trkpt lat="44.87372" lon="5.27705">
        <ele>1481.01</ele>
        <time>2017-05-24T14:42:35.999Z</time>
      </trkpt>
      <trkpt lat="44.87381" lon="5.27711">
        <ele>1481.67</ele>
        <time>2017-05-24T14:42:47.999Z</time>
      </trkpt>
      <trkpt lat="44.87388" lon="5.27719">
        <ele>1481.89</ele>
        <time>2017-05-24T14:42:57.999Z</time>
      </trkpt>
      <trkpt lat="44.87396" lon="5.27725">
        <ele>1480.91</ele>
        <time>2017-05-24T14:43:07.999Z</time>
      </trkpt>
      <trkpt lat="44.87405" lon="5.27728">
        <ele>1480.56</ele>
        <time>2017-05-24T14:43:14.999Z</time>
      </trkpt>
      <trkpt lat="44.87415" lon="5.27728">
        <ele>1482.47</ele>
        <time>2017-05-24T14:43:25.999Z</time>
      </trkpt>
      <trkpt lat="44.87425" lon="5.27727">
        <ele>1483.95</ele>
        <time>2017-05-24T14:43:33.999Z</time>
      </trkpt>
      <trkpt lat="44.87434" lon="5.27727">
        <ele>1486.52</ele>
        <time>2017-05-24T14:43:41.999Z</time>
      </trkpt>
      <trkpt lat="44.87444" lon="5.27726">
        <ele>1487.1</ele>
        <time>2017-05-24T14:43:48.999Z</time>
      </trkpt>
      <trkpt lat="44.87453" lon="5.27731">
        <ele>1487.9</ele>
        <time>2017-05-24T14:43:55.999Z</time>
      </trkpt>
      <trkpt lat="44.87458" lon="5.27743">
        <ele>1489.41</ele>
        <time>2017-05-24T14:44:01.999Z</time>
      </trkpt>
      <trkpt lat="44.87464" lon="5.27753">
        <ele>1490.44</ele>
        <time>2017-05-24T14:44:11.999Z</time>
      </trkpt>
      <trkpt lat="44.8747" lon="5.27763">
        <ele>1491.06</ele>
        <time>2017-05-24T14:44:18.999Z</time>
      </trkpt>
      <trkpt lat="44.87478" lon="5.27772">
        <ele>1491.79</ele>
        <time>2017-05-24T14:44:28.999Z</time>
      </trkpt>
      <trkpt lat="44.87487" lon="5.27776">
        <ele>1491.62</ele>
        <time>2017-05-24T14:44:37.999Z</time>
      </trkpt>
      <trkpt lat="44.87496" lon="5.27782">
        <ele>1490.98</ele>
        <time>2017-05-24T14:44:45.999Z</time>
      </trkpt>
      <trkpt lat="44.87505" lon="5.27788">
        <ele>1491.63</ele>
        <time>2017-05-24T14:44:53.999Z</time>
      </trkpt>
      <trkpt lat="44.87514" lon="5.27793">
        <ele>1491</ele>
        <time>2017-05-24T14:45:01.999Z</time>
      </trkpt>
      <trkpt lat="44.87523" lon="5.27795">
        <ele>1489.67</ele>
        <time>2017-05-24T14:45:08.999Z</time>
      </trkpt>
      <trkpt lat="44.87532" lon="5.27796">
        <ele>1488.17</ele>
        <time>2017-05-24T14:45:14.999Z</time>
      </trkpt>
      <trkpt lat="44.8754" lon="5.27806">
        <ele>1487.09</ele>
        <time>2017-05-24T14:45:20.999Z</time>
      </trkpt>
      <trkpt lat="44.87546" lon="5.27815">
        <ele>1487.27</ele>
        <time>2017-05-24T14:45:27.999Z</time>
      </trkpt>
      <trkpt lat="44.87553" lon="5.27824">
        <ele>1487.33</ele>
        <time>2017-05-24T14:45:34.999Z</time>
      </trkpt>
      <trkpt lat="44.87562" lon="5.27833">
        <ele>1487.77</ele>
        <time>2017-05-24T14:45:42.999Z</time>
      </trkpt>
      <trkpt lat="44.8757" lon="5.27838">
        <ele>1487.85</ele>
        <time>2017-05-24T14:45:49.999Z</time>
      </trkpt>
      <trkpt lat="44.87577" lon="5.27846">
        <ele>1487.72</ele>
        <time>2017-05-24T14:45:57.999Z</time>
      </trkpt>
      <trkpt lat="44.87583" lon="5.27856">
        <ele>1487.73</ele>
        <time>2017-05-24T14:46:04.999Z</time>
      </trkpt>
      <trkpt lat="44.8759" lon="5.27864">
        <ele>1487.6</ele>
        <time>2017-05-24T14:46:11.999Z</time>
      </trkpt>
      <trkpt lat="44.87597" lon="5.27874">
        <ele>1488.04</ele>
        <time>2017-05-24T14:46:18.999Z</time>
      </trkpt>
      <trkpt lat="44.87604" lon="5.27882">
        <ele>1488.58</ele>
        <time>2017-05-24T14:46:24.999Z</time>
      </trkpt>
      <trkpt lat="44.87613" lon="5.2789">
        <ele>1487.57</ele>
        <time>2017-05-24T14:46:31.999Z</time>
      </trkpt>
      <trkpt lat="44.87621" lon="5.27897">
        <ele>1487.28</ele>
        <time>2017-05-24T14:46:39.999Z</time>
      </trkpt>
      <trkpt lat="44.87629" lon="5.27903">
        <ele>1486.78</ele>
        <time>2017-05-24T14:46:45.999Z</time>
      </trkpt>
      <trkpt lat="44.87638" lon="5.27907">
        <ele>1486.88</ele>
        <time>2017-05-24T14:46:52.999Z</time>
      </trkpt>
      <trkpt lat="44.87648" lon="5.2791">
        <ele>1486.99</ele>
        <time>2017-05-24T14:46:59.999Z</time>
      </trkpt>
      <trkpt lat="44.87657" lon="5.27914">
        <ele>1487.05</ele>
        <time>2017-05-24T14:47:07.999Z</time>
      </trkpt>
      <trkpt lat="44.87666" lon="5.27921">
        <ele>1487.17</ele>
        <time>2017-05-24T14:47:15.999Z</time>
      </trkpt>
      <trkpt lat="44.87675" lon="5.27925">
        <ele>1487.06</ele>
        <time>2017-05-24T14:47:20.999Z</time>
      </trkpt>
      <trkpt lat="44.87683" lon="5.27931">
        <ele>1486.81</ele>
        <time>2017-05-24T14:47:25.999Z</time>
      </trkpt>
      <trkpt lat="44.87692" lon="5.27937">
        <ele>1486.18</ele>
        <time>2017-05-24T14:47:33.999Z</time>
      </trkpt>
      <trkpt lat="44.87701" lon="5.27942">
        <ele>1486.13</ele>
        <time>2017-05-24T14:47:40.999Z</time>
      </trkpt>
      <trkpt lat="44.87711" lon="5.27946">
        <ele>1486.14</ele>
        <time>2017-05-24T14:47:46.999Z</time>
      </trkpt>
      <trkpt lat="44.87721" lon="5.27946">
        <ele>1486.16</ele>
        <time>2017-05-24T14:47:54.999Z</time>
      </trkpt>
      <trkpt lat="44.87731" lon="5.27949">
        <ele>1486.13</ele>
        <time>2017-05-24T14:48:00.999Z</time>
      </trkpt>
      <trkpt lat="44.8774" lon="5.27948">
        <ele>1485.99</ele>
        <time>2017-05-24T14:48:06.999Z</time>
      </trkpt>
      <trkpt lat="44.87749" lon="5.27947">
        <ele>1485.98</ele>
        <time>2017-05-24T14:48:11.999Z</time>
      </trkpt>
      <trkpt lat="44.87758" lon="5.27946">
        <ele>1485.72</ele>
        <time>2017-05-24T14:48:19.999Z</time>
      </trkpt>
      <trkpt lat="44.87768" lon="5.27951">
        <ele>1485.45</ele>
        <time>2017-05-24T14:48:26.999Z</time>
      </trkpt>
      <trkpt lat="44.87777" lon="5.27948">
        <ele>1484.84</ele>
        <time>2017-05-24T14:48:34.999Z</time>
      </trkpt>
      <trkpt lat="44.87787" lon="5.27951">
        <ele>1484.54</ele>
        <time>2017-05-24T14:48:41.999Z</time>
      </trkpt>
      <trkpt lat="44.87797" lon="5.27947">
        <ele>1482.34</ele>
        <time>2017-05-24T14:49:06.999Z</time>
      </trkpt>
      <trkpt lat="44.87808" lon="5.27954">
        <ele>1482.35</ele>
        <time>2017-05-24T14:49:13.999Z</time>
      </trkpt>
      <trkpt lat="44.87816" lon="5.2796">
        <ele>1483.08</ele>
        <time>2017-05-24T14:49:21.999Z</time>
      </trkpt>
      <trkpt lat="44.87825" lon="5.27966">
        <ele>1483.73</ele>
        <time>2017-05-24T14:49:27.999Z</time>
      </trkpt>
      <trkpt lat="44.87833" lon="5.27975">
        <ele>1483.89</ele>
        <time>2017-05-24T14:49:33.999Z</time>
      </trkpt>
      <trkpt lat="44.87841" lon="5.27983">
        <ele>1484.05</ele>
        <time>2017-05-24T14:49:41.999Z</time>
      </trkpt>
      <trkpt lat="44.87849" lon="5.27992">
        <ele>1484.35</ele>
        <time>2017-05-24T14:49:47.999Z</time>
      </trkpt>
      <trkpt lat="44.87858" lon="5.27997">
        <ele>1484.64</ele>
        <time>2017-05-24T14:49:53.999Z</time>
      </trkpt>
      <trkpt lat="44.87866" lon="5.28005">
        <ele>1485.35</ele>
        <time>2017-05-24T14:49:59.999Z</time>
      </trkpt>
      <trkpt lat="44.87874" lon="5.28012">
        <ele>1486.67</ele>
        <time>2017-05-24T14:50:06.999Z</time>
      </trkpt>
      <trkpt lat="44.87882" lon="5.2802">
        <ele>1488.31</ele>
        <time>2017-05-24T14:50:14.999Z</time>
      </trkpt>
      <trkpt lat="44.8789" lon="5.28025">
        <ele>1489.65</ele>
        <time>2017-05-24T14:50:20.999Z</time>
      </trkpt>
      <trkpt lat="44.87899" lon="5.28032">
        <ele>1489.56</ele>
        <time>2017-05-24T14:50:27.999Z</time>
      </trkpt>
      <trkpt lat="44.87908" lon="5.2804">
        <ele>1489.98</ele>
        <time>2017-05-24T14:50:34.999Z</time>
      </trkpt>
      <trkpt lat="44.87915" lon="5.28048">
        <ele>1490.74</ele>
        <time>2017-05-24T14:50:41.999Z</time>
      </trkpt>
      <trkpt lat="44.87925" lon="5.28055">
        <ele>1491.03</ele>
        <time>2017-05-24T14:50:49.999Z</time>
      </trkpt>
      <trkpt lat="44.87933" lon="5.28062">
        <ele>1491.24</ele>
        <time>2017-05-24T14:50:55.999Z</time>
      </trkpt>
      <trkpt lat="44.87941" lon="5.2807">
        <ele>1492</ele>
        <time>2017-05-24T14:51:03.999Z</time>
      </trkpt>
      <trkpt lat="44.8795" lon="5.28074">
        <ele>1492.16</ele>
        <time>2017-05-24T14:51:09.999Z</time>
      </trkpt>
      <trkpt lat="44.87959" lon="5.28079">
        <ele>1492.3</ele>
        <time>2017-05-24T14:51:14.999Z</time>
      </trkpt>
      <trkpt lat="44.87966" lon="5.28087">
        <ele>1493.46</ele>
        <time>2017-05-24T14:51:22.999Z</time>
      </trkpt>
      <trkpt lat="44.87976" lon="5.28091">
        <ele>1493.65</ele>
        <time>2017-05-24T14:51:28.999Z</time>
      </trkpt>
      <trkpt lat="44.87985" lon="5.28097">
        <ele>1493.29</ele>
        <time>2017-05-24T14:51:34.999Z</time>
      </trkpt>
      <trkpt lat="44.87992" lon="5.28105">
        <ele>1493.24</ele>
        <time>2017-05-24T14:51:40.999Z</time>
      </trkpt>
      <trkpt lat="44.87996" lon="5.28117">
        <ele>1493.72</ele>
        <time>2017-05-24T14:51:48.999Z</time>
      </trkpt>
      <trkpt lat="44.88001" lon="5.28129">
        <ele>1494.44</ele>
        <time>2017-05-24T14:51:56.999Z</time>
      </trkpt>
      <trkpt lat="44.88012" lon="5.28131">
        <ele>1494.22</ele>
        <time>2017-05-24T14:52:05.999Z</time>
      </trkpt>
      <trkpt lat="44.8802" lon="5.28124">
        <ele>1493.3</ele>
        <time>2017-05-24T14:52:10.999Z</time>
      </trkpt>
      <trkpt lat="44.8803" lon="5.28118">
        <ele>1492.62</ele>
        <time>2017-05-24T14:52:17.999Z</time>
      </trkpt>
      <trkpt lat="44.88039" lon="5.28115">
        <ele>1491.68</ele>
        <time>2017-05-24T14:52:23.999Z</time>
      </trkpt>
      <trkpt lat="44.88048" lon="5.28117">
        <ele>1489.28</ele>
        <time>2017-05-24T14:52:35.999Z</time>
      </trkpt>
      <trkpt lat="44.88058" lon="5.28122">
        <ele>1488.5</ele>
        <time>2017-05-24T14:52:41.999Z</time>
      </trkpt>
      <trkpt lat="44.88066" lon="5.28128">
        <ele>1487.31</ele>
        <time>2017-05-24T14:52:48.999Z</time>
      </trkpt>
      <trkpt lat="44.88075" lon="5.28134">
        <ele>1486.16</ele>
        <time>2017-05-24T14:52:55.999Z</time>
      </trkpt>
      <trkpt lat="44.88082" lon="5.28142">
        <ele>1485.37</ele>
        <time>2017-05-24T14:53:02.999Z</time>
      </trkpt>
      <trkpt lat="44.88089" lon="5.28152">
        <ele>1484.51</ele>
        <time>2017-05-24T14:53:10.999Z</time>
      </trkpt>
      <trkpt lat="44.88096" lon="5.28162">
        <ele>1484.12</ele>
        <time>2017-05-24T14:53:17.999Z</time>
      </trkpt>
      <trkpt lat="44.88103" lon="5.28172">
        <ele>1483.69</ele>
        <time>2017-05-24T14:53:23.999Z</time>
      </trkpt>
      <trkpt lat="44.8811" lon="5.28182">
        <ele>1483.13</ele>
        <time>2017-05-24T14:53:29.999Z</time>
      </trkpt>
      <trkpt lat="44.88117" lon="5.28192">
        <ele>1482.43</ele>
        <time>2017-05-24T14:53:37.999Z</time>
      </trkpt>
      <trkpt lat="44.88122" lon="5.28203">
        <ele>1482.12</ele>
        <time>2017-05-24T14:53:44.999Z</time>
      </trkpt>
      <trkpt lat="44.88129" lon="5.28212">
        <ele>1481.91</ele>
        <time>2017-05-24T14:53:50.999Z</time>
      </trkpt>
      <trkpt lat="44.88137" lon="5.28222">
        <ele>1481.33</ele>
        <time>2017-05-24T14:53:58.999Z</time>
      </trkpt>
      <trkpt lat="44.88144" lon="5.2823">
        <ele>1480.91</ele>
        <time>2017-05-24T14:54:04.999Z</time>
      </trkpt>
      <trkpt lat="44.88153" lon="5.28236">
        <ele>1480.4</ele>
        <time>2017-05-24T14:54:10.999Z</time>
      </trkpt>
      <trkpt lat="44.88162" lon="5.28241">
        <ele>1480.05</ele>
        <time>2017-05-24T14:54:17.999Z</time>
      </trkpt>
      <trkpt lat="44.8817" lon="5.28248">
        <ele>1480.07</ele>
        <time>2017-05-24T14:54:24.999Z</time>
      </trkpt>
      <trkpt lat="44.88178" lon="5.28256">
        <ele>1480.66</ele>
        <time>2017-05-24T14:54:33.999Z</time>
      </trkpt>
      <trkpt lat="44.88186" lon="5.28265">
        <ele>1481.1</ele>
        <time>2017-05-24T14:54:42.999Z</time>
      </trkpt>
      <trkpt lat="44.88195" lon="5.28272">
        <ele>1481.73</ele>
        <time>2017-05-24T14:54:50.999Z</time>
      </trkpt>
      <trkpt lat="44.88203" lon="5.2828">
        <ele>1482.03</ele>
        <time>2017-05-24T14:54:58.999Z</time>
      </trkpt>
      <trkpt lat="44.88213" lon="5.28285">
        <ele>1482.34</ele>
        <time>2017-05-24T14:55:07.999Z</time>
      </trkpt>
      <trkpt lat="44.88222" lon="5.28288">
        <ele>1483.07</ele>
        <time>2017-05-24T14:55:14.999Z</time>
      </trkpt>
      <trkpt lat="44.88232" lon="5.28289">
        <ele>1484.83</ele>
        <time>2017-05-24T14:55:27.999Z</time>
      </trkpt>
      <trkpt lat="44.88242" lon="5.2829">
        <ele>1486.39</ele>
        <time>2017-05-24T14:55:35.999Z</time>
      </trkpt>
      <trkpt lat="44.8825" lon="5.28292">
        <ele>1487.88</ele>
        <time>2017-05-24T14:55:44.999Z</time>
      </trkpt>
      <trkpt lat="44.8826" lon="5.28294">
        <ele>1489.37</ele>
        <time>2017-05-24T14:55:56.999Z</time>
      </trkpt>
      <trkpt lat="44.88269" lon="5.28296">
        <ele>1491.32</ele>
        <time>2017-05-24T14:56:08.999Z</time>
      </trkpt>
      <trkpt lat="44.88278" lon="5.28301">
        <ele>1493.48</ele>
        <time>2017-05-24T14:56:19.999Z</time>
      </trkpt>
      <trkpt lat="44.88287" lon="5.28302">
        <ele>1495.18</ele>
        <time>2017-05-24T14:56:27.999Z</time>
      </trkpt>
      <trkpt lat="44.88296" lon="5.28302">
        <ele>1497.94</ele>
        <time>2017-05-24T14:56:44.999Z</time>
      </trkpt>
      <trkpt lat="44.88305" lon="5.28302">
        <ele>1499.2</ele>
        <time>2017-05-24T14:56:52.999Z</time>
      </trkpt>
      <trkpt lat="44.88315" lon="5.28306">
        <ele>1500.79</ele>
        <time>2017-05-24T14:57:01.999Z</time>
      </trkpt>
      <trkpt lat="44.88323" lon="5.28315">
        <ele>1502.65</ele>
        <time>2017-05-24T14:57:10.999Z</time>
      </trkpt>
      <trkpt lat="44.88331" lon="5.28323">
        <ele>1504.21</ele>
        <time>2017-05-24T14:57:18.999Z</time>
      </trkpt>
      <trkpt lat="44.88339" lon="5.28332">
        <ele>1505.34</ele>
        <time>2017-05-24T14:57:25.999Z</time>
      </trkpt>
      <trkpt lat="44.88347" lon="5.28341">
        <ele>1506.92</ele>
        <time>2017-05-24T14:57:33.999Z</time>
      </trkpt>
      <trkpt lat="44.88354" lon="5.28349">
        <ele>1508.1</ele>
        <time>2017-05-24T14:57:40.999Z</time>
      </trkpt>
      <trkpt lat="44.88362" lon="5.28357">
        <ele>1508.98</ele>
        <time>2017-05-24T14:57:47.999Z</time>
      </trkpt>
      <trkpt lat="44.88371" lon="5.28361">
        <ele>1509.95</ele>
        <time>2017-05-24T14:57:54.999Z</time>
      </trkpt>
      <trkpt lat="44.8838" lon="5.28364">
        <ele>1511.13</ele>
        <time>2017-05-24T14:58:02.999Z</time>
      </trkpt>
      <trkpt lat="44.88388" lon="5.28369">
        <ele>1511.93</ele>
        <time>2017-05-24T14:58:09.999Z</time>
      </trkpt>
      <trkpt lat="44.88393" lon="5.28357">
        <ele>1512.66</ele>
        <time>2017-05-24T14:58:17.999Z</time>
      </trkpt>
      <trkpt lat="44.88393" lon="5.28342">
        <ele>1512.89</ele>
        <time>2017-05-24T14:58:24.999Z</time>
      </trkpt>
      <trkpt lat="44.88394" lon="5.28329">
        <ele>1512.81</ele>
        <time>2017-05-24T14:58:31.999Z</time>
      </trkpt>
      <trkpt lat="44.88398" lon="5.28318">
        <ele>1512.55</ele>
        <time>2017-05-24T14:58:38.999Z</time>
      </trkpt>
      <trkpt lat="44.88398" lon="5.28305">
        <ele>1511.76</ele>
        <time>2017-05-24T14:58:47.999Z</time>
      </trkpt>
      <trkpt lat="44.88399" lon="5.28292">
        <ele>1510.9</ele>
        <time>2017-05-24T14:58:55.999Z</time>
      </trkpt>
      <trkpt lat="44.88395" lon="5.28278">
        <ele>1510.14</ele>
        <time>2017-05-24T14:59:02.999Z</time>
      </trkpt>
      <trkpt lat="44.88389" lon="5.28267">
        <ele>1508.43</ele>
        <time>2017-05-24T14:59:10.999Z</time>
      </trkpt>
      <trkpt lat="44.88382" lon="5.28258">
        <ele>1507.25</ele>
        <time>2017-05-24T14:59:17.999Z</time>
      </trkpt>
      <trkpt lat="44.88378" lon="5.28245">
        <ele>1505.41</ele>
        <time>2017-05-24T14:59:26.999Z</time>
      </trkpt>
      <trkpt lat="44.88372" lon="5.28234">
        <ele>1504.02</ele>
        <time>2017-05-24T14:59:34.999Z</time>
      </trkpt>
      <trkpt lat="44.88364" lon="5.28226">
        <ele>1502.66</ele>
        <time>2017-05-24T14:59:42.999Z</time>
      </trkpt>
      <trkpt lat="44.88357" lon="5.28217">
        <ele>1501.5</ele>
        <time>2017-05-24T14:59:48.999Z</time>
      </trkpt>
      <trkpt lat="44.8835" lon="5.2821">
        <ele>1499.22</ele>
        <time>2017-05-24T14:59:58.999Z</time>
      </trkpt>
      <trkpt lat="44.88342" lon="5.28202">
        <ele>1497.42</ele>
        <time>2017-05-24T15:00:07.999Z</time>
      </trkpt>
      <trkpt lat="44.88335" lon="5.28195">
        <ele>1496.39</ele>
        <time>2017-05-24T15:00:13.999Z</time>
      </trkpt>
      <trkpt lat="44.88327" lon="5.28186">
        <ele>1495.12</ele>
        <time>2017-05-24T15:00:21.999Z</time>
      </trkpt>
      <trkpt lat="44.8832" lon="5.28177">
        <ele>1493.49</ele>
        <time>2017-05-24T15:00:29.999Z</time>
      </trkpt>
      <trkpt lat="44.88321" lon="5.28164">
        <ele>1491.5</ele>
        <time>2017-05-24T15:00:42.999Z</time>
      </trkpt>
      <trkpt lat="44.88328" lon="5.28155">
        <ele>1490.68</ele>
        <time>2017-05-24T15:00:49.999Z</time>
      </trkpt>
      <trkpt lat="44.88337" lon="5.28149">
        <ele>1489.96</ele>
        <time>2017-05-24T15:00:55.999Z</time>
      </trkpt>
      <trkpt lat="44.88346" lon="5.28144">
        <ele>1488.79</ele>
        <time>2017-05-24T15:01:06.999Z</time>
      </trkpt>
      <trkpt lat="44.88354" lon="5.28137">
        <ele>1487.28</ele>
        <time>2017-05-24T15:01:14.999Z</time>
      </trkpt>
      <trkpt lat="44.88362" lon="5.2813">
        <ele>1485.53</ele>
        <time>2017-05-24T15:01:24.999Z</time>
      </trkpt>
      <trkpt lat="44.88371" lon="5.28124">
        <ele>1484.84</ele>
        <time>2017-05-24T15:01:32.999Z</time>
      </trkpt>
      <trkpt lat="44.88379" lon="5.28117">
        <ele>1484.27</ele>
        <time>2017-05-24T15:01:40.999Z</time>
      </trkpt>
      <trkpt lat="44.88386" lon="5.28109">
        <ele>1481.88</ele>
        <time>2017-05-24T15:01:54.999Z</time>
      </trkpt>
      <trkpt lat="44.88396" lon="5.28103">
        <ele>1480.29</ele>
        <time>2017-05-24T15:02:04.999Z</time>
      </trkpt>
      <trkpt lat="44.88404" lon="5.28097">
        <ele>1478.01</ele>
        <time>2017-05-24T15:02:14.999Z</time>
      </trkpt>
      <trkpt lat="44.88413" lon="5.2809">
        <ele>1472.48</ele>
        <time>2017-05-24T15:02:38.999Z</time>
      </trkpt>
      <trkpt lat="44.88422" lon="5.28093">
        <ele>1468.09</ele>
        <time>2017-05-24T15:04:42.999Z</time>
      </trkpt>
      <trkpt lat="44.88429" lon="5.28103">
        <ele>1466.95</ele>
        <time>2017-05-24T15:04:51.999Z</time>
      </trkpt>
      <trkpt lat="44.88432" lon="5.28115">
        <ele>1466.59</ele>
        <time>2017-05-24T15:05:00.999Z</time>
      </trkpt>
      <trkpt lat="44.88436" lon="5.28128">
        <ele>1467.19</ele>
        <time>2017-05-24T15:05:14.999Z</time>
      </trkpt>
      <trkpt lat="44.88434" lon="5.28142">
        <ele>1467.58</ele>
        <time>2017-05-24T15:05:25.999Z</time>
      </trkpt>
      <trkpt lat="44.88433" lon="5.28155">
        <ele>1469.08</ele>
        <time>2017-05-24T15:05:36.999Z</time>
      </trkpt>
      <trkpt lat="44.88435" lon="5.28167">
        <ele>1470.65</ele>
        <time>2017-05-24T15:05:46.999Z</time>
      </trkpt>
      <trkpt lat="44.88439" lon="5.28181">
        <ele>1472.88</ele>
        <time>2017-05-24T15:05:56.999Z</time>
      </trkpt>
      <trkpt lat="44.88441" lon="5.28195">
        <ele>1474.11</ele>
        <time>2017-05-24T15:06:06.999Z</time>
      </trkpt>
      <trkpt lat="44.88442" lon="5.28209">
        <ele>1477.34</ele>
        <time>2017-05-24T15:06:20.999Z</time>
      </trkpt>
      <trkpt lat="44.88442" lon="5.28223">
        <ele>1479.33</ele>
        <time>2017-05-24T15:06:30.999Z</time>
      </trkpt>
      <trkpt lat="44.88445" lon="5.28236">
        <ele>1481.57</ele>
        <time>2017-05-24T15:06:40.999Z</time>
      </trkpt>
      <trkpt lat="44.88449" lon="5.28248">
        <ele>1483.47</ele>
        <time>2017-05-24T15:06:49.999Z</time>
      </trkpt>
      <trkpt lat="44.88449" lon="5.28261">
        <ele>1485.33</ele>
        <time>2017-05-24T15:06:58.999Z</time>
      </trkpt>
      <trkpt lat="44.88449" lon="5.28274">
        <ele>1486.77</ele>
        <time>2017-05-24T15:07:08.999Z</time>
      </trkpt>
      <trkpt lat="44.88457" lon="5.28282">
        <ele>1489.05</ele>
        <time>2017-05-24T15:07:19.999Z</time>
      </trkpt>
      <trkpt lat="44.88465" lon="5.28289">
        <ele>1490.78</ele>
        <time>2017-05-24T15:07:27.999Z</time>
      </trkpt>
      <trkpt lat="44.88474" lon="5.28298">
        <ele>1492.25</ele>
        <time>2017-05-24T15:07:36.999Z</time>
      </trkpt>
      <trkpt lat="44.88483" lon="5.28304">
        <ele>1493.08</ele>
        <time>2017-05-24T15:07:42.999Z</time>
      </trkpt>
      <trkpt lat="44.88493" lon="5.28311">
        <ele>1493.73</ele>
        <time>2017-05-24T15:07:52.999Z</time>
      </trkpt>
      <trkpt lat="44.88501" lon="5.28317">
        <ele>1494.26</ele>
        <time>2017-05-24T15:07:58.999Z</time>
      </trkpt>
      <trkpt lat="44.88508" lon="5.28326">
        <ele>1494.92</ele>
        <time>2017-05-24T15:08:06.999Z</time>
      </trkpt>
      <trkpt lat="44.88516" lon="5.28333">
        <ele>1495.6</ele>
        <time>2017-05-24T15:08:14.999Z</time>
      </trkpt>
      <trkpt lat="44.88524" lon="5.28339">
        <ele>1496.19</ele>
        <time>2017-05-24T15:08:20.999Z</time>
      </trkpt>
      <trkpt lat="44.88533" lon="5.28343">
        <ele>1496.64</ele>
        <time>2017-05-24T15:08:28.999Z</time>
      </trkpt>
      <trkpt lat="44.88542" lon="5.28348">
        <ele>1496.8</ele>
        <time>2017-05-24T15:08:34.999Z</time>
      </trkpt>
      <trkpt lat="44.88552" lon="5.28352">
        <ele>1496.93</ele>
        <time>2017-05-24T15:08:42.999Z</time>
      </trkpt>
      <trkpt lat="44.88561" lon="5.28355">
        <ele>1497.32</ele>
        <time>2017-05-24T15:08:48.999Z</time>
      </trkpt>
      <trkpt lat="44.8857" lon="5.28358">
        <ele>1497.8</ele>
        <time>2017-05-24T15:08:55.999Z</time>
      </trkpt>
      <trkpt lat="44.88578" lon="5.28362">
        <ele>1498.06</ele>
        <time>2017-05-24T15:09:01.999Z</time>
      </trkpt>
      <trkpt lat="44.88586" lon="5.28368">
        <ele>1497.95</ele>
        <time>2017-05-24T15:09:07.999Z</time>
      </trkpt>
      <trkpt lat="44.88595" lon="5.28373">
        <ele>1498</ele>
        <time>2017-05-24T15:09:13.999Z</time>
      </trkpt>
      <trkpt lat="44.88604" lon="5.28379">
        <ele>1497.55</ele>
        <time>2017-05-24T15:09:21.999Z</time>
      </trkpt>
      <trkpt lat="44.88611" lon="5.28387">
        <ele>1497.16</ele>
        <time>2017-05-24T15:09:28.999Z</time>
      </trkpt>
      <trkpt lat="44.8862" lon="5.28391">
        <ele>1497.09</ele>
        <time>2017-05-24T15:09:34.999Z</time>
      </trkpt>
      <trkpt lat="44.88629" lon="5.28396">
        <ele>1497.11</ele>
        <time>2017-05-24T15:09:39.999Z</time>
      </trkpt>
      <trkpt lat="44.88638" lon="5.284">
        <ele>1497.61</ele>
        <time>2017-05-24T15:09:46.999Z</time>
      </trkpt>
      <trkpt lat="44.88647" lon="5.28404">
        <ele>1497.88</ele>
        <time>2017-05-24T15:09:55.999Z</time>
      </trkpt>
      <trkpt lat="44.88656" lon="5.2841">
        <ele>1498.02</ele>
        <time>2017-05-24T15:10:05.999Z</time>
      </trkpt>
      <trkpt lat="44.88665" lon="5.28416">
        <ele>1497.75</ele>
        <time>2017-05-24T15:10:10.999Z</time>
      </trkpt>
      <trkpt lat="44.88674" lon="5.28423">
        <ele>1497.84</ele>
        <time>2017-05-24T15:10:18.999Z</time>
      </trkpt>
      <trkpt lat="44.88682" lon="5.28431">
        <ele>1497.63</ele>
        <time>2017-05-24T15:10:25.999Z</time>
      </trkpt>
      <trkpt lat="44.88691" lon="5.28436">
        <ele>1497.48</ele>
        <time>2017-05-24T15:10:31.999Z</time>
      </trkpt>
      <trkpt lat="44.88699" lon="5.28441">
        <ele>1497.29</ele>
        <time>2017-05-24T15:10:38.999Z</time>
      </trkpt>
      <trkpt lat="44.88707" lon="5.28447">
        <ele>1497.35</ele>
        <time>2017-05-24T15:10:44.999Z</time>
      </trkpt>
      <trkpt lat="44.88716" lon="5.28453">
        <ele>1498.02</ele>
        <time>2017-05-24T15:10:51.999Z</time>
      </trkpt>
      <trkpt lat="44.88725" lon="5.28459">
        <ele>1498.56</ele>
        <time>2017-05-24T15:10:58.999Z</time>
      </trkpt>
      <trkpt lat="44.88733" lon="5.28466">
        <ele>1499.14</ele>
        <time>2017-05-24T15:11:05.999Z</time>
      </trkpt>
      <trkpt lat="44.88742" lon="5.28472">
        <ele>1499.35</ele>
        <time>2017-05-24T15:11:11.999Z</time>
      </trkpt>
      <trkpt lat="44.8875" lon="5.28479">
        <ele>1499.54</ele>
        <time>2017-05-24T15:11:18.999Z</time>
      </trkpt>
      <trkpt lat="44.88758" lon="5.28488">
        <ele>1499.7</ele>
        <time>2017-05-24T15:11:25.999Z</time>
      </trkpt>
      <trkpt lat="44.88765" lon="5.28497">
        <ele>1500.18</ele>
        <time>2017-05-24T15:11:34.999Z</time>
      </trkpt>
      <trkpt lat="44.88772" lon="5.28507">
        <ele>1500.8</ele>
        <time>2017-05-24T15:11:42.999Z</time>
      </trkpt>
      <trkpt lat="44.88779" lon="5.28515">
        <ele>1501.79</ele>
        <time>2017-05-24T15:11:50.999Z</time>
      </trkpt>
      <trkpt lat="44.88788" lon="5.28525">
        <ele>1502.61</ele>
        <time>2017-05-24T15:12:27.999Z</time>
      </trkpt>
      <trkpt lat="44.88795" lon="5.28536">
        <ele>1502.94</ele>
        <time>2017-05-24T15:12:34.999Z</time>
      </trkpt>
      <trkpt lat="44.88801" lon="5.28546">
        <ele>1503.3</ele>
        <time>2017-05-24T15:12:42.999Z</time>
      </trkpt>
      <trkpt lat="44.88807" lon="5.28555">
        <ele>1503.61</ele>
        <time>2017-05-24T15:12:48.999Z</time>
      </trkpt>
      <trkpt lat="44.88814" lon="5.28566">
        <ele>1503.6</ele>
        <time>2017-05-24T15:12:54.999Z</time>
      </trkpt>
      <trkpt lat="44.88821" lon="5.28574">
        <ele>1503.42</ele>
        <time>2017-05-24T15:13:01.999Z</time>
      </trkpt>
      <trkpt lat="44.88828" lon="5.28583">
        <ele>1503.37</ele>
        <time>2017-05-24T15:13:08.999Z</time>
      </trkpt>
      <trkpt lat="44.88836" lon="5.28592">
        <ele>1503.54</ele>
        <time>2017-05-24T15:13:14.999Z</time>
      </trkpt>
      <trkpt lat="44.88844" lon="5.286">
        <ele>1503.79</ele>
        <time>2017-05-24T15:13:20.999Z</time>
      </trkpt>
      <trkpt lat="44.8885" lon="5.28608">
        <ele>1503.99</ele>
        <time>2017-05-24T15:13:26.999Z</time>
      </trkpt>
      <trkpt lat="44.88857" lon="5.28618">
        <ele>1504.28</ele>
        <time>2017-05-24T15:13:33.999Z</time>
      </trkpt>
      <trkpt lat="44.88863" lon="5.28627">
        <ele>1504.72</ele>
        <time>2017-05-24T15:13:39.999Z</time>
      </trkpt>
      <trkpt lat="44.8887" lon="5.28638">
        <ele>1505.13</ele>
        <time>2017-05-24T15:13:47.999Z</time>
      </trkpt>
      <trkpt lat="44.88876" lon="5.28647">
        <ele>1505.62</ele>
        <time>2017-05-24T15:13:53.999Z</time>
      </trkpt>
      <trkpt lat="44.88884" lon="5.28656">
        <ele>1506.01</ele>
        <time>2017-05-24T15:13:59.999Z</time>
      </trkpt>
      <trkpt lat="44.88891" lon="5.28664">
        <ele>1506.02</ele>
        <time>2017-05-24T15:14:05.999Z</time>
      </trkpt>
      <trkpt lat="44.88898" lon="5.28675">
        <ele>1506.42</ele>
        <time>2017-05-24T15:14:13.999Z</time>
      </trkpt>
      <trkpt lat="44.88905" lon="5.28683">
        <ele>1506.6</ele>
        <time>2017-05-24T15:14:21.999Z</time>
      </trkpt>
      <trkpt lat="44.88913" lon="5.28694">
        <ele>1506.95</ele>
        <time>2017-05-24T15:14:28.999Z</time>
      </trkpt>
      <trkpt lat="44.88919" lon="5.28702">
        <ele>1507.16</ele>
        <time>2017-05-24T15:14:36.999Z</time>
      </trkpt>
      <trkpt lat="44.88927" lon="5.28711">
        <ele>1507.41</ele>
        <time>2017-05-24T15:14:43.999Z</time>
      </trkpt>
      <trkpt lat="44.88935" lon="5.28721">
        <ele>1507.36</ele>
        <time>2017-05-24T15:14:51.999Z</time>
      </trkpt>
      <trkpt lat="44.88942" lon="5.28731">
        <ele>1507.76</ele>
        <time>2017-05-24T15:14:57.999Z</time>
      </trkpt>
      <trkpt lat="44.88948" lon="5.28742">
        <ele>1507.7</ele>
        <time>2017-05-24T15:15:06.999Z</time>
      </trkpt>
      <trkpt lat="44.88955" lon="5.28751">
        <ele>1507.69</ele>
        <time>2017-05-24T15:15:12.999Z</time>
      </trkpt>
      <trkpt lat="44.88963" lon="5.2876">
        <ele>1507.64</ele>
        <time>2017-05-24T15:15:19.999Z</time>
      </trkpt>
      <trkpt lat="44.8897" lon="5.2877">
        <ele>1507.41</ele>
        <time>2017-05-24T15:15:26.999Z</time>
      </trkpt>
      <trkpt lat="44.88975" lon="5.28781">
        <ele>1506.64</ele>
        <time>2017-05-24T15:15:34.999Z</time>
      </trkpt>
      <trkpt lat="44.88979" lon="5.28793">
        <ele>1506.48</ele>
        <time>2017-05-24T15:15:40.999Z</time>
      </trkpt>
      <trkpt lat="44.88985" lon="5.28803">
        <ele>1506.4</ele>
        <time>2017-05-24T15:15:46.999Z</time>
      </trkpt>
      <trkpt lat="44.88989" lon="5.28816">
        <ele>1505.81</ele>
        <time>2017-05-24T15:15:55.999Z</time>
      </trkpt>
      <trkpt lat="44.88991" lon="5.28829">
        <ele>1505.51</ele>
        <time>2017-05-24T15:16:04.999Z</time>
      </trkpt>
      <trkpt lat="44.88994" lon="5.28841">
        <ele>1505.11</ele>
        <time>2017-05-24T15:16:12.999Z</time>
      </trkpt>
      <trkpt lat="44.88998" lon="5.28854">
        <ele>1505.31</ele>
        <time>2017-05-24T15:16:21.999Z</time>
      </trkpt>
      <trkpt lat="44.88998" lon="5.28867">
        <ele>1505.42</ele>
        <time>2017-05-24T15:16:33.999Z</time>
      </trkpt>
      <trkpt lat="44.88989" lon="5.28873">
        <ele>1505.31</ele>
        <time>2017-05-24T15:16:41.999Z</time>
      </trkpt>
      <trkpt lat="44.8898" lon="5.28878">
        <ele>1505.95</ele>
        <time>2017-05-24T15:16:52.999Z</time>
      </trkpt>
      <trkpt lat="44.8897" lon="5.28883">
        <ele>1507.27</ele>
        <time>2017-05-24T15:17:04.999Z</time>
      </trkpt>
      <trkpt lat="44.8896" lon="5.28884">
        <ele>1508.53</ele>
        <time>2017-05-24T15:17:13.999Z</time>
      </trkpt>
      <trkpt lat="44.88952" lon="5.2888">
        <ele>1510.1</ele>
        <time>2017-05-24T15:17:26.999Z</time>
      </trkpt>
      <trkpt lat="44.88943" lon="5.28885">
        <ele>1511.8</ele>
        <time>2017-05-24T15:17:38.999Z</time>
      </trkpt>
      <trkpt lat="44.88934" lon="5.28889">
        <ele>1513.45</ele>
        <time>2017-05-24T15:17:49.999Z</time>
      </trkpt>
      <trkpt lat="44.88924" lon="5.28892">
        <ele>1515.42</ele>
        <time>2017-05-24T15:18:05.999Z</time>
      </trkpt>
      <trkpt lat="44.88915" lon="5.28896">
        <ele>1517.25</ele>
        <time>2017-05-24T15:18:15.999Z</time>
      </trkpt>
      <trkpt lat="44.88905" lon="5.28895">
        <ele>1519.3</ele>
        <time>2017-05-24T15:18:23.999Z</time>
      </trkpt>
      <trkpt lat="44.88896" lon="5.28892">
        <ele>1521.15</ele>
        <time>2017-05-24T15:18:30.999Z</time>
      </trkpt>
      <trkpt lat="44.88887" lon="5.28888">
        <ele>1522.91</ele>
        <time>2017-05-24T15:18:40.999Z</time>
      </trkpt>
      <trkpt lat="44.88878" lon="5.28886">
        <ele>1524.5</ele>
        <time>2017-05-24T15:18:48.999Z</time>
      </trkpt>
      <trkpt lat="44.8887" lon="5.28878">
        <ele>1525.78</ele>
        <time>2017-05-24T15:18:59.999Z</time>
      </trkpt>
      <trkpt lat="44.88861" lon="5.28872">
        <ele>1528.5</ele>
        <time>2017-05-24T15:19:17.999Z</time>
      </trkpt>
      <trkpt lat="44.88852" lon="5.2887">
        <ele>1529.79</ele>
        <time>2017-05-24T15:19:26.999Z</time>
      </trkpt>
      <trkpt lat="44.88842" lon="5.28865">
        <ele>1531.18</ele>
        <time>2017-05-24T15:19:35.999Z</time>
      </trkpt>
      <trkpt lat="44.88834" lon="5.2886">
        <ele>1532.26</ele>
        <time>2017-05-24T15:19:43.999Z</time>
      </trkpt>
      <trkpt lat="44.88824" lon="5.28858">
        <ele>1534.23</ele>
        <time>2017-05-24T15:19:54.999Z</time>
      </trkpt>
      <trkpt lat="44.88815" lon="5.28853">
        <ele>1535.7</ele>
        <time>2017-05-24T15:20:02.999Z</time>
      </trkpt>
      <trkpt lat="44.88807" lon="5.28848">
        <ele>1536.36</ele>
        <time>2017-05-24T15:20:09.999Z</time>
      </trkpt>
      <trkpt lat="44.88797" lon="5.28843">
        <ele>1537.16</ele>
        <time>2017-05-24T15:20:17.999Z</time>
      </trkpt>
      <trkpt lat="44.88789" lon="5.28845">
        <ele>1537.8</ele>
        <time>2017-05-24T15:20:26.999Z</time>
      </trkpt>
      <trkpt lat="44.88779" lon="5.28849">
        <ele>1538.35</ele>
        <time>2017-05-24T15:20:34.999Z</time>
      </trkpt>
      <trkpt lat="44.88789" lon="5.28851">
        <ele>1541.97</ele>
        <time>2017-05-24T15:21:31.999Z</time>
      </trkpt>
      <trkpt lat="44.88798" lon="5.28852">
        <ele>1542.48</ele>
        <time>2017-05-24T15:21:37.999Z</time>
      </trkpt>
      <trkpt lat="44.88807" lon="5.28853">
        <ele>1542.91</ele>
        <time>2017-05-24T15:21:43.999Z</time>
      </trkpt>
      <trkpt lat="44.88817" lon="5.28856">
        <ele>1543.19</ele>
        <time>2017-05-24T15:21:51.999Z</time>
      </trkpt>
      <trkpt lat="44.88826" lon="5.28861">
        <ele>1543.34</ele>
        <time>2017-05-24T15:21:59.999Z</time>
      </trkpt>
      <trkpt lat="44.88835" lon="5.28866">
        <ele>1543.32</ele>
        <time>2017-05-24T15:22:07.999Z</time>
      </trkpt>
      <trkpt lat="44.88845" lon="5.2887">
        <ele>1543.1</ele>
        <time>2017-05-24T15:22:15.999Z</time>
      </trkpt>
      <trkpt lat="44.88852" lon="5.28879">
        <ele>1542.89</ele>
        <time>2017-05-24T15:22:21.999Z</time>
      </trkpt>
      <trkpt lat="44.8886" lon="5.28885">
        <ele>1542.59</ele>
        <time>2017-05-24T15:22:29.999Z</time>
      </trkpt>
      <trkpt lat="44.88869" lon="5.28889">
        <ele>1541.95</ele>
        <time>2017-05-24T15:22:36.999Z</time>
      </trkpt>
      <trkpt lat="44.88878" lon="5.28891">
        <ele>1540.87</ele>
        <time>2017-05-24T15:22:44.999Z</time>
      </trkpt>
      <trkpt lat="44.88886" lon="5.28898">
        <ele>1539.95</ele>
        <time>2017-05-24T15:22:52.999Z</time>
      </trkpt>
      <trkpt lat="44.88895" lon="5.28903">
        <ele>1539.19</ele>
        <time>2017-05-24T15:22:59.999Z</time>
      </trkpt>
      <trkpt lat="44.88902" lon="5.2891">
        <ele>1537.91</ele>
        <time>2017-05-24T15:23:08.999Z</time>
      </trkpt>
      <trkpt lat="44.88897" lon="5.28921">
        <ele>1535.82</ele>
        <time>2017-05-24T15:23:21.999Z</time>
      </trkpt>
      <trkpt lat="44.88889" lon="5.28929">
        <ele>1534.13</ele>
        <time>2017-05-24T15:23:31.000Z</time>
      </trkpt>
      <trkpt lat="44.8888" lon="5.28932">
        <ele>1531.29</ele>
        <time>2017-05-24T15:23:45.000Z</time>
      </trkpt>
      <trkpt lat="44.88871" lon="5.28936">
        <ele>1528.33</ele>
        <time>2017-05-24T15:24:00.000Z</time>
      </trkpt>
      <trkpt lat="44.88876" lon="5.28947">
        <ele>1522.06</ele>
        <time>2017-05-24T15:24:34.000Z</time>
      </trkpt>
      <trkpt lat="44.88883" lon="5.28955">
        <ele>1521.07</ele>
        <time>2017-05-24T15:24:41.000Z</time>
      </trkpt>
      <trkpt lat="44.88891" lon="5.28962">
        <ele>1520.11</ele>
        <time>2017-05-24T15:24:49.000Z</time>
      </trkpt>
      <trkpt lat="44.889" lon="5.28965">
        <ele>1519.46</ele>
        <time>2017-05-24T15:24:58.000Z</time>
      </trkpt>
      <trkpt lat="44.8891" lon="5.28968">
        <ele>1518.88</ele>
        <time>2017-05-24T15:25:05.000Z</time>
      </trkpt>
      <trkpt lat="44.88918" lon="5.28974">
        <ele>1518.4</ele>
        <time>2017-05-24T15:25:15.000Z</time>
      </trkpt>
      <trkpt lat="44.88927" lon="5.2898">
        <ele>1517.97</ele>
        <time>2017-05-24T15:25:23.000Z</time>
      </trkpt>
      <trkpt lat="44.88936" lon="5.2898">
        <ele>1517.8</ele>
        <time>2017-05-24T15:25:29.000Z</time>
      </trkpt>
      <trkpt lat="44.88945" lon="5.28986">
        <ele>1517.47</ele>
        <time>2017-05-24T15:25:35.000Z</time>
      </trkpt>
      <trkpt lat="44.88955" lon="5.2899">
        <ele>1517.57</ele>
        <time>2017-05-24T15:25:42.000Z</time>
      </trkpt>
      <trkpt lat="44.88964" lon="5.28992">
        <ele>1517.73</ele>
        <time>2017-05-24T15:25:49.000Z</time>
      </trkpt>
      <trkpt lat="44.88973" lon="5.28994">
        <ele>1517.98</ele>
        <time>2017-05-24T15:25:56.000Z</time>
      </trkpt>
      <trkpt lat="44.88982" lon="5.29">
        <ele>1518.15</ele>
        <time>2017-05-24T15:26:03.000Z</time>
      </trkpt>
      <trkpt lat="44.8899" lon="5.29005">
        <ele>1518.01</ele>
        <time>2017-05-24T15:26:09.000Z</time>
      </trkpt>
      <trkpt lat="44.88999" lon="5.29012">
        <ele>1518.01</ele>
        <time>2017-05-24T15:26:17.000Z</time>
      </trkpt>
      <trkpt lat="44.89007" lon="5.29018">
        <ele>1517.8</ele>
        <time>2017-05-24T15:26:24.000Z</time>
      </trkpt>
      <trkpt lat="44.89016" lon="5.29023">
        <ele>1518.07</ele>
        <time>2017-05-24T15:26:30.000Z</time>
      </trkpt>
      <trkpt lat="44.89024" lon="5.29029">
        <ele>1518.3</ele>
        <time>2017-05-24T15:26:37.000Z</time>
      </trkpt>
      <trkpt lat="44.89034" lon="5.29034">
        <ele>1518.14</ele>
        <time>2017-05-24T15:26:48.000Z</time>
      </trkpt>
      <trkpt lat="44.89043" lon="5.2904">
        <ele>1518.54</ele>
        <time>2017-05-24T15:26:55.000Z</time>
      </trkpt>
      <trkpt lat="44.89051" lon="5.29043">
        <ele>1518.76</ele>
        <time>2017-05-24T15:27:00.000Z</time>
      </trkpt>
      <trkpt lat="44.89059" lon="5.29051">
        <ele>1520</ele>
        <time>2017-05-24T15:27:14.000Z</time>
      </trkpt>
      <trkpt lat="44.89068" lon="5.29056">
        <ele>1519.73</ele>
        <time>2017-05-24T15:27:25.000Z</time>
      </trkpt>
      <trkpt lat="44.89077" lon="5.29055">
        <ele>1521.94</ele>
        <time>2017-05-24T15:27:55.000Z</time>
      </trkpt>
      <trkpt lat="44.89086" lon="5.29055">
        <ele>1522.59</ele>
        <time>2017-05-24T15:28:07.000Z</time>
      </trkpt>
      <trkpt lat="44.89097" lon="5.29057">
        <ele>1523.05</ele>
        <time>2017-05-24T15:28:17.000Z</time>
      </trkpt>
      <trkpt lat="44.89106" lon="5.29054">
        <ele>1523.35</ele>
        <time>2017-05-24T15:28:21.000Z</time>
      </trkpt>
      <trkpt lat="44.89116" lon="5.29055">
        <ele>1523.44</ele>
        <time>2017-05-24T15:28:33.000Z</time>
      </trkpt>
      <trkpt lat="44.89126" lon="5.29055">
        <ele>1522.82</ele>
        <time>2017-05-24T15:28:42.000Z</time>
      </trkpt>
      <trkpt lat="44.89136" lon="5.29055">
        <ele>1522.92</ele>
        <time>2017-05-24T15:28:54.000Z</time>
      </trkpt>
      <trkpt lat="44.89144" lon="5.29063">
        <ele>1523.52</ele>
        <time>2017-05-24T15:29:01.000Z</time>
      </trkpt>
      <trkpt lat="44.89151" lon="5.29072">
        <ele>1524.05</ele>
        <time>2017-05-24T15:29:09.000Z</time>
      </trkpt>
      <trkpt lat="44.89158" lon="5.2908">
        <ele>1524.17</ele>
        <time>2017-05-24T15:29:16.000Z</time>
      </trkpt>
      <trkpt lat="44.89166" lon="5.29087">
        <ele>1524.4</ele>
        <time>2017-05-24T15:29:23.000Z</time>
      </trkpt>
      <trkpt lat="44.89175" lon="5.29091">
        <ele>1524.66</ele>
        <time>2017-05-24T15:29:30.000Z</time>
      </trkpt>
      <trkpt lat="44.89184" lon="5.29096">
        <ele>1524.73</ele>
        <time>2017-05-24T15:29:36.000Z</time>
      </trkpt>
      <trkpt lat="44.89193" lon="5.29104">
        <ele>1525.39</ele>
        <time>2017-05-24T15:29:45.000Z</time>
      </trkpt>
      <trkpt lat="44.892" lon="5.29112">
        <ele>1525.7</ele>
        <time>2017-05-24T15:29:51.000Z</time>
      </trkpt>
      <trkpt lat="44.89207" lon="5.29121">
        <ele>1526.22</ele>
        <time>2017-05-24T15:30:00.000Z</time>
      </trkpt>
      <trkpt lat="44.89215" lon="5.29129">
        <ele>1526.27</ele>
        <time>2017-05-24T15:30:07.000Z</time>
      </trkpt>
      <trkpt lat="44.89223" lon="5.29136">
        <ele>1526.45</ele>
        <time>2017-05-24T15:30:13.000Z</time>
      </trkpt>
      <trkpt lat="44.89231" lon="5.29141">
        <ele>1526.66</ele>
        <time>2017-05-24T15:30:19.000Z</time>
      </trkpt>
      <trkpt lat="44.8924" lon="5.29149">
        <ele>1526.78</ele>
        <time>2017-05-24T15:30:28.000Z</time>
      </trkpt>
      <trkpt lat="44.89246" lon="5.29161">
        <ele>1527.02</ele>
        <time>2017-05-24T15:30:36.000Z</time>
      </trkpt>
      <trkpt lat="44.89255" lon="5.29165">
        <ele>1526.94</ele>
        <time>2017-05-24T15:30:44.000Z</time>
      </trkpt>
      <trkpt lat="44.89261" lon="5.29176">
        <ele>1526.98</ele>
        <time>2017-05-24T15:30:53.000Z</time>
      </trkpt>
      <trkpt lat="44.89265" lon="5.29188">
        <ele>1527.44</ele>
        <time>2017-05-24T15:31:01.000Z</time>
      </trkpt>
      <trkpt lat="44.89269" lon="5.292">
        <ele>1528.36</ele>
        <time>2017-05-24T15:31:14.000Z</time>
      </trkpt>
      <trkpt lat="44.89278" lon="5.29199">
        <ele>1530.66</ele>
        <time>2017-05-24T15:31:55.000Z</time>
      </trkpt>
      <trkpt lat="44.89288" lon="5.29201">
        <ele>1529.96</ele>
        <time>2017-05-24T15:32:03.000Z</time>
      </trkpt>
      <trkpt lat="44.89298" lon="5.29204">
        <ele>1529.41</ele>
        <time>2017-05-24T15:32:08.000Z</time>
      </trkpt>
      <trkpt lat="44.89306" lon="5.2921">
        <ele>1528.63</ele>
        <time>2017-05-24T15:32:15.000Z</time>
      </trkpt>
      <trkpt lat="44.89315" lon="5.29215">
        <ele>1527.68</ele>
        <time>2017-05-24T15:32:24.000Z</time>
      </trkpt>
      <trkpt lat="44.89325" lon="5.29221">
        <ele>1527.3</ele>
        <time>2017-05-24T15:32:31.000Z</time>
      </trkpt>
      <trkpt lat="44.89333" lon="5.29225">
        <ele>1526.81</ele>
        <time>2017-05-24T15:32:38.000Z</time>
      </trkpt>
      <trkpt lat="44.89343" lon="5.29229">
        <ele>1525.42</ele>
        <time>2017-05-24T15:32:48.000Z</time>
      </trkpt>
      <trkpt lat="44.89352" lon="5.29233">
        <ele>1524.61</ele>
        <time>2017-05-24T15:32:56.000Z</time>
      </trkpt>
      <trkpt lat="44.89362" lon="5.29233">
        <ele>1523.86</ele>
        <time>2017-05-24T15:33:03.000Z</time>
      </trkpt>
      <trkpt lat="44.89369" lon="5.29241">
        <ele>1522.09</ele>
        <time>2017-05-24T15:33:12.000Z</time>
      </trkpt>
      <trkpt lat="44.89379" lon="5.29241">
        <ele>1519.13</ele>
        <time>2017-05-24T15:34:03.000Z</time>
      </trkpt>
      <trkpt lat="44.89386" lon="5.29231">
        <ele>1518.03</ele>
        <time>2017-05-24T15:34:12.000Z</time>
      </trkpt>
      <trkpt lat="44.89392" lon="5.29221">
        <ele>1517.62</ele>
        <time>2017-05-24T15:34:19.000Z</time>
      </trkpt>
      <trkpt lat="44.89401" lon="5.29217">
        <ele>1516.19</ele>
        <time>2017-05-24T15:34:32.000Z</time>
      </trkpt>
      <trkpt lat="44.89394" lon="5.29205">
        <ele>1511.3</ele>
        <time>2017-05-24T15:35:12.000Z</time>
      </trkpt>
      <trkpt lat="44.89389" lon="5.29193">
        <ele>1510.84</ele>
        <time>2017-05-24T15:35:19.000Z</time>
      </trkpt>
      <trkpt lat="44.89385" lon="5.2918">
        <ele>1509.9</ele>
        <time>2017-05-24T15:35:29.000Z</time>
      </trkpt>
      <trkpt lat="44.89376" lon="5.29176">
        <ele>1506.62</ele>
        <time>2017-05-24T15:36:35.000Z</time>
      </trkpt>
      <trkpt lat="44.8937" lon="5.29166">
        <ele>1506.52</ele>
        <time>2017-05-24T15:36:44.000Z</time>
      </trkpt>
      <trkpt lat="44.89362" lon="5.29158">
        <ele>1506.05</ele>
        <time>2017-05-24T15:36:52.000Z</time>
      </trkpt>
      <trkpt lat="44.89355" lon="5.2915">
        <ele>1505.54</ele>
        <time>2017-05-24T15:37:01.000Z</time>
      </trkpt>
      <trkpt lat="44.89349" lon="5.29138">
        <ele>1504.74</ele>
        <time>2017-05-24T15:37:14.000Z</time>
      </trkpt>
      <trkpt lat="44.89341" lon="5.2913">
        <ele>1504.37</ele>
        <time>2017-05-24T15:37:23.000Z</time>
      </trkpt>
      <trkpt lat="44.89336" lon="5.29118">
        <ele>1503.63</ele>
        <time>2017-05-24T15:37:32.000Z</time>
      </trkpt>
      <trkpt lat="44.8933" lon="5.29107">
        <ele>1503.06</ele>
        <time>2017-05-24T15:37:41.000Z</time>
      </trkpt>
      <trkpt lat="44.89326" lon="5.29095">
        <ele>1502.38</ele>
        <time>2017-05-24T15:37:50.000Z</time>
      </trkpt>
      <trkpt lat="44.89323" lon="5.29082">
        <ele>1502.29</ele>
        <time>2017-05-24T15:37:57.000Z</time>
      </trkpt>
      <trkpt lat="44.89314" lon="5.29075">
        <ele>1502.06</ele>
        <time>2017-05-24T15:38:05.000Z</time>
      </trkpt>
      <trkpt lat="44.8931" lon="5.29063">
        <ele>1501.79</ele>
        <time>2017-05-24T15:38:13.000Z</time>
      </trkpt>
      <trkpt lat="44.89307" lon="5.29051">
        <ele>1501.52</ele>
        <time>2017-05-24T15:38:22.000Z</time>
      </trkpt>
      <trkpt lat="44.89304" lon="5.29037">
        <ele>1500.78</ele>
        <time>2017-05-24T15:38:30.000Z</time>
      </trkpt>
      <trkpt lat="44.89298" lon="5.29027">
        <ele>1499.44</ele>
        <time>2017-05-24T15:38:40.000Z</time>
      </trkpt>
      <trkpt lat="44.89292" lon="5.29016">
        <ele>1498.45</ele>
        <time>2017-05-24T15:38:51.000Z</time>
      </trkpt>
      <trkpt lat="44.89286" lon="5.29005">
        <ele>1497.87</ele>
        <time>2017-05-24T15:39:05.000Z</time>
      </trkpt>
      <trkpt lat="44.89287" lon="5.28992">
        <ele>1497.38</ele>
        <time>2017-05-24T15:39:14.000Z</time>
      </trkpt>
      <trkpt lat="44.89283" lon="5.2898">
        <ele>1496.93</ele>
        <time>2017-05-24T15:39:25.000Z</time>
      </trkpt>
      <trkpt lat="44.89278" lon="5.28967">
        <ele>1495.86</ele>
        <time>2017-05-24T15:39:32.000Z</time>
      </trkpt>
      <trkpt lat="44.89275" lon="5.28955">
        <ele>1495</ele>
        <time>2017-05-24T15:39:40.000Z</time>
      </trkpt>
      <trkpt lat="44.8927" lon="5.28943">
        <ele>1494.27</ele>
        <time>2017-05-24T15:39:46.000Z</time>
      </trkpt>
      <trkpt lat="44.89265" lon="5.28931">
        <ele>1494.07</ele>
        <time>2017-05-24T15:39:54.000Z</time>
      </trkpt>
      <trkpt lat="44.89258" lon="5.28922">
        <ele>1494.21</ele>
        <time>2017-05-24T15:40:01.000Z</time>
      </trkpt>
      <trkpt lat="44.89251" lon="5.28912">
        <ele>1493.93</ele>
        <time>2017-05-24T15:40:08.000Z</time>
      </trkpt>
      <trkpt lat="44.89245" lon="5.28903">
        <ele>1493.69</ele>
        <time>2017-05-24T15:40:14.000Z</time>
      </trkpt>
      <trkpt lat="44.89237" lon="5.28894">
        <ele>1492.89</ele>
        <time>2017-05-24T15:40:23.000Z</time>
      </trkpt>
      <trkpt lat="44.89227" lon="5.28889">
        <ele>1492.84</ele>
        <time>2017-05-24T15:40:30.000Z</time>
      </trkpt>
      <trkpt lat="44.89219" lon="5.28883">
        <ele>1492.69</ele>
        <time>2017-05-24T15:40:36.000Z</time>
      </trkpt>
      <trkpt lat="44.89209" lon="5.28882">
        <ele>1492.63</ele>
        <time>2017-05-24T15:40:42.000Z</time>
      </trkpt>
      <trkpt lat="44.892" lon="5.28875">
        <ele>1491.65</ele>
        <time>2017-05-24T15:40:52.000Z</time>
      </trkpt>
      <trkpt lat="44.89191" lon="5.28879">
        <ele>1490.41</ele>
        <time>2017-05-24T15:41:04.000Z</time>
      </trkpt>
      <trkpt lat="44.89183" lon="5.28887">
        <ele>1489.27</ele>
        <time>2017-05-24T15:41:13.000Z</time>
      </trkpt>
      <trkpt lat="44.89175" lon="5.28894">
        <ele>1488.26</ele>
        <time>2017-05-24T15:41:20.000Z</time>
      </trkpt>
      <trkpt lat="44.89169" lon="5.28903">
        <ele>1487.77</ele>
        <time>2017-05-24T15:41:32.000Z</time>
      </trkpt>
      <trkpt lat="44.89158" lon="5.28907">
        <ele>1487.71</ele>
        <time>2017-05-24T15:41:41.000Z</time>
      </trkpt>
      <trkpt lat="44.89148" lon="5.28903">
        <ele>1487.48</ele>
        <time>2017-05-24T15:41:48.000Z</time>
      </trkpt>
      <trkpt lat="44.89138" lon="5.28897">
        <ele>1486.96</ele>
        <time>2017-05-24T15:41:59.000Z</time>
      </trkpt>
      <trkpt lat="44.89129" lon="5.28891">
        <ele>1487.15</ele>
        <time>2017-05-24T15:42:06.000Z</time>
      </trkpt>
      <trkpt lat="44.89121" lon="5.28887">
        <ele>1486.75</ele>
        <time>2017-05-24T15:42:12.000Z</time>
      </trkpt>
      <trkpt lat="44.89113" lon="5.2888">
        <ele>1486.68</ele>
        <time>2017-05-24T15:42:21.000Z</time>
      </trkpt>
      <trkpt lat="44.89105" lon="5.28874">
        <ele>1486.91</ele>
        <time>2017-05-24T15:42:26.000Z</time>
      </trkpt>
      <trkpt lat="44.89097" lon="5.28865">
        <ele>1486.67</ele>
        <time>2017-05-24T15:42:34.000Z</time>
      </trkpt>
      <trkpt lat="44.8909" lon="5.28856">
        <ele>1485.81</ele>
        <time>2017-05-24T15:42:42.000Z</time>
      </trkpt>
      <trkpt lat="44.89084" lon="5.28845">
        <ele>1485.04</ele>
        <time>2017-05-24T15:42:48.000Z</time>
      </trkpt>
      <trkpt lat="44.89082" lon="5.28832">
        <ele>1484.22</ele>
        <time>2017-05-24T15:42:59.000Z</time>
      </trkpt>
      <trkpt lat="44.89075" lon="5.2882">
        <ele>1483.54</ele>
        <time>2017-05-24T15:43:06.000Z</time>
      </trkpt>
      <trkpt lat="44.89071" lon="5.28809">
        <ele>1483</ele>
        <time>2017-05-24T15:43:25.000Z</time>
      </trkpt>
      <trkpt lat="44.89069" lon="5.28796">
        <ele>1483.21</ele>
        <time>2017-05-24T15:43:43.000Z</time>
      </trkpt>
      <trkpt lat="44.89064" lon="5.28785">
        <ele>1482.23</ele>
        <time>2017-05-24T15:43:52.000Z</time>
      </trkpt>
      <trkpt lat="44.8906" lon="5.28772">
        <ele>1481.5</ele>
        <time>2017-05-24T15:43:59.000Z</time>
      </trkpt>
      <trkpt lat="44.89055" lon="5.2876">
        <ele>1480.72</ele>
        <time>2017-05-24T15:44:05.000Z</time>
      </trkpt>
      <trkpt lat="44.89051" lon="5.28747">
        <ele>1479.84</ele>
        <time>2017-05-24T15:44:12.000Z</time>
      </trkpt>
      <trkpt lat="44.89045" lon="5.28736">
        <ele>1478.99</ele>
        <time>2017-05-24T15:44:19.000Z</time>
      </trkpt>
      <trkpt lat="44.89039" lon="5.28727">
        <ele>1478.35</ele>
        <time>2017-05-24T15:44:27.000Z</time>
      </trkpt>
      <trkpt lat="44.89035" lon="5.28714">
        <ele>1477.89</ele>
        <time>2017-05-24T15:44:33.000Z</time>
      </trkpt>
      <trkpt lat="44.89031" lon="5.28703">
        <ele>1477.2</ele>
        <time>2017-05-24T15:44:40.000Z</time>
      </trkpt>
      <trkpt lat="44.89024" lon="5.28692">
        <ele>1475.79</ele>
        <time>2017-05-24T15:44:47.000Z</time>
      </trkpt>
      <trkpt lat="44.89021" lon="5.28679">
        <ele>1474.09</ele>
        <time>2017-05-24T15:44:58.000Z</time>
      </trkpt>
      <trkpt lat="44.89016" lon="5.28665">
        <ele>1473.32</ele>
        <time>2017-05-24T15:45:05.000Z</time>
      </trkpt>
      <trkpt lat="44.89011" lon="5.28652">
        <ele>1472.29</ele>
        <time>2017-05-24T15:45:13.000Z</time>
      </trkpt>
      <trkpt lat="44.89006" lon="5.2864">
        <ele>1471.18</ele>
        <time>2017-05-24T15:45:20.000Z</time>
      </trkpt>
      <trkpt lat="44.89001" lon="5.28628">
        <ele>1470.64</ele>
        <time>2017-05-24T15:45:27.000Z</time>
      </trkpt>
      <trkpt lat="44.88997" lon="5.28616">
        <ele>1470.34</ele>
        <time>2017-05-24T15:45:35.000Z</time>
      </trkpt>
      <trkpt lat="44.88993" lon="5.28604">
        <ele>1469.81</ele>
        <time>2017-05-24T15:45:42.000Z</time>
      </trkpt>
      <trkpt lat="44.88988" lon="5.28592">
        <ele>1469.16</ele>
        <time>2017-05-24T15:45:49.000Z</time>
      </trkpt>
      <trkpt lat="44.88982" lon="5.28581">
        <ele>1469</ele>
        <time>2017-05-24T15:45:56.000Z</time>
      </trkpt>
      <trkpt lat="44.88979" lon="5.28567">
        <ele>1468.79</ele>
        <time>2017-05-24T15:46:03.000Z</time>
      </trkpt>
      <trkpt lat="44.88977" lon="5.28554">
        <ele>1468.88</ele>
        <time>2017-05-24T15:46:09.000Z</time>
      </trkpt>
      <trkpt lat="44.88973" lon="5.28541">
        <ele>1468.94</ele>
        <time>2017-05-24T15:46:15.000Z</time>
      </trkpt>
      <trkpt lat="44.8897" lon="5.28528">
        <ele>1469.42</ele>
        <time>2017-05-24T15:46:21.000Z</time>
      </trkpt>
      <trkpt lat="44.88966" lon="5.28516">
        <ele>1469.65</ele>
        <time>2017-05-24T15:46:30.000Z</time>
      </trkpt>
      <trkpt lat="44.88961" lon="5.28503">
        <ele>1469.3</ele>
        <time>2017-05-24T15:46:37.000Z</time>
      </trkpt>
      <trkpt lat="44.88959" lon="5.28491">
        <ele>1469.23</ele>
        <time>2017-05-24T15:46:44.000Z</time>
      </trkpt>
      <trkpt lat="44.88958" lon="5.28478">
        <ele>1468.75</ele>
        <time>2017-05-24T15:46:50.000Z</time>
      </trkpt>
      <trkpt lat="44.88956" lon="5.28465">
        <ele>1467.61</ele>
        <time>2017-05-24T15:46:58.000Z</time>
      </trkpt>
      <trkpt lat="44.88953" lon="5.28452">
        <ele>1467.59</ele>
        <time>2017-05-24T15:47:05.000Z</time>
      </trkpt>
      <trkpt lat="44.8895" lon="5.28438">
        <ele>1468.2</ele>
        <time>2017-05-24T15:47:13.000Z</time>
      </trkpt>
      <trkpt lat="44.88947" lon="5.28426">
        <ele>1468.15</ele>
        <time>2017-05-24T15:47:18.000Z</time>
      </trkpt>
      <trkpt lat="44.88946" lon="5.28413">
        <ele>1468.05</ele>
        <time>2017-05-24T15:47:27.000Z</time>
      </trkpt>
      <trkpt lat="44.88947" lon="5.28398">
        <ele>1467.98</ele>
        <time>2017-05-24T15:47:33.000Z</time>
      </trkpt>
      <trkpt lat="44.88947" lon="5.28385">
        <ele>1467.91</ele>
        <time>2017-05-24T15:47:41.000Z</time>
      </trkpt>
      <trkpt lat="44.88944" lon="5.28372">
        <ele>1467.66</ele>
        <time>2017-05-24T15:47:48.000Z</time>
      </trkpt>
      <trkpt lat="44.8894" lon="5.28359">
        <ele>1467.41</ele>
        <time>2017-05-24T15:47:55.000Z</time>
      </trkpt>
      <trkpt lat="44.88941" lon="5.28345">
        <ele>1467.19</ele>
        <time>2017-05-24T15:48:02.000Z</time>
      </trkpt>
      <trkpt lat="44.88938" lon="5.28332">
        <ele>1467.13</ele>
        <time>2017-05-24T15:48:09.000Z</time>
      </trkpt>
      <trkpt lat="44.88934" lon="5.2832">
        <ele>1466.94</ele>
        <time>2017-05-24T15:48:16.000Z</time>
      </trkpt>
      <trkpt lat="44.88929" lon="5.28308">
        <ele>1466.72</ele>
        <time>2017-05-24T15:48:25.000Z</time>
      </trkpt>
      <trkpt lat="44.88923" lon="5.28298">
        <ele>1466.46</ele>
        <time>2017-05-24T15:48:32.000Z</time>
      </trkpt>
      <trkpt lat="44.88915" lon="5.28285">
        <ele>1465.95</ele>
        <time>2017-05-24T15:48:42.000Z</time>
      </trkpt>
      <trkpt lat="44.88908" lon="5.28276">
        <ele>1464.83</ele>
        <time>2017-05-24T15:48:49.000Z</time>
      </trkpt>
      <trkpt lat="44.889" lon="5.28269">
        <ele>1464.31</ele>
        <time>2017-05-24T15:48:55.000Z</time>
      </trkpt>
      <trkpt lat="44.88894" lon="5.28257">
        <ele>1463.44</ele>
        <time>2017-05-24T15:49:03.000Z</time>
      </trkpt>
      <trkpt lat="44.88891" lon="5.28245">
        <ele>1462.75</ele>
        <time>2017-05-24T15:49:09.000Z</time>
      </trkpt>
      <trkpt lat="44.88883" lon="5.28237">
        <ele>1461.74</ele>
        <time>2017-05-24T15:49:19.000Z</time>
      </trkpt>
      <trkpt lat="44.88877" lon="5.28227">
        <ele>1461.23</ele>
        <time>2017-05-24T15:49:25.000Z</time>
      </trkpt>
      <trkpt lat="44.88873" lon="5.28215">
        <ele>1460.43</ele>
        <time>2017-05-24T15:49:33.000Z</time>
      </trkpt>
      <trkpt lat="44.8887" lon="5.28202">
        <ele>1459.33</ele>
        <time>2017-05-24T15:49:42.000Z</time>
      </trkpt>
      <trkpt lat="44.88867" lon="5.2819">
        <ele>1457.48</ele>
        <time>2017-05-24T15:49:51.000Z</time>
      </trkpt>
      <trkpt lat="44.88862" lon="5.2818">
        <ele>1456.2</ele>
        <time>2017-05-24T15:49:58.000Z</time>
      </trkpt>
      <trkpt lat="44.88859" lon="5.28168">
        <ele>1450.77</ele>
        <time>2017-05-24T15:50:33.000Z</time>
      </trkpt>
      <trkpt lat="44.88849" lon="5.28167">
        <ele>1449.34</ele>
        <time>2017-05-24T15:50:54.000Z</time>
      </trkpt>
      <trkpt lat="44.88842" lon="5.28177">
        <ele>1448.75</ele>
        <time>2017-05-24T15:51:03.000Z</time>
      </trkpt>
      <trkpt lat="44.88835" lon="5.28189">
        <ele>1448.11</ele>
        <time>2017-05-24T15:51:13.000Z</time>
      </trkpt>
      <trkpt lat="44.88825" lon="5.28199">
        <ele>1448.76</ele>
        <time>2017-05-24T15:51:25.000Z</time>
      </trkpt>
      <trkpt lat="44.88815" lon="5.28198">
        <ele>1449.25</ele>
        <time>2017-05-24T15:51:31.000Z</time>
      </trkpt>
      <trkpt lat="44.88806" lon="5.28192">
        <ele>1449.24</ele>
        <time>2017-05-24T15:51:41.000Z</time>
      </trkpt>
      <trkpt lat="44.88796" lon="5.28187">
        <ele>1449.28</ele>
        <time>2017-05-24T15:51:49.000Z</time>
      </trkpt>
      <trkpt lat="44.88788" lon="5.28184">
        <ele>1449.51</ele>
        <time>2017-05-24T15:51:56.000Z</time>
      </trkpt>
      <trkpt lat="44.88778" lon="5.28187">
        <ele>1449.71</ele>
        <time>2017-05-24T15:52:03.000Z</time>
      </trkpt>
      <trkpt lat="44.88769" lon="5.28189">
        <ele>1450.47</ele>
        <time>2017-05-24T15:52:10.000Z</time>
      </trkpt>
      <trkpt lat="44.88758" lon="5.2819">
        <ele>1451.05</ele>
        <time>2017-05-24T15:52:18.000Z</time>
      </trkpt>
      <trkpt lat="44.88749" lon="5.28191">
        <ele>1451.64</ele>
        <time>2017-05-24T15:52:25.000Z</time>
      </trkpt>
      <trkpt lat="44.88739" lon="5.28189">
        <ele>1451.82</ele>
        <time>2017-05-24T15:52:32.000Z</time>
      </trkpt>
      <trkpt lat="44.8873" lon="5.28185">
        <ele>1451.89</ele>
        <time>2017-05-24T15:52:39.000Z</time>
      </trkpt>
      <trkpt lat="44.88723" lon="5.28193">
        <ele>1451.8</ele>
        <time>2017-05-24T15:52:46.000Z</time>
      </trkpt>
      <trkpt lat="44.88715" lon="5.28201">
        <ele>1452.21</ele>
        <time>2017-05-24T15:52:52.000Z</time>
      </trkpt>
      <trkpt lat="44.88705" lon="5.28205">
        <ele>1452.75</ele>
        <time>2017-05-24T15:53:00.000Z</time>
      </trkpt>
      <trkpt lat="44.88696" lon="5.28208">
        <ele>1453.75</ele>
        <time>2017-05-24T15:53:07.000Z</time>
      </trkpt>
      <trkpt lat="44.88688" lon="5.28215">
        <ele>1454.69</ele>
        <time>2017-05-24T15:53:14.000Z</time>
      </trkpt>
      <trkpt lat="44.8868" lon="5.28222">
        <ele>1455.63</ele>
        <time>2017-05-24T15:53:21.000Z</time>
      </trkpt>
      <trkpt lat="44.8867" lon="5.28221">
        <ele>1456.33</ele>
        <time>2017-05-24T15:53:27.000Z</time>
      </trkpt>
      <trkpt lat="44.8866" lon="5.28222">
        <ele>1457.13</ele>
        <time>2017-05-24T15:53:35.000Z</time>
      </trkpt>
      <trkpt lat="44.8865" lon="5.28222">
        <ele>1457.68</ele>
        <time>2017-05-24T15:53:42.000Z</time>
      </trkpt>
      <trkpt lat="44.88641" lon="5.28226">
        <ele>1458.72</ele>
        <time>2017-05-24T15:53:49.000Z</time>
      </trkpt>
      <trkpt lat="44.8863" lon="5.28224">
        <ele>1459.5</ele>
        <time>2017-05-24T15:53:56.000Z</time>
      </trkpt>
      <trkpt lat="44.8862" lon="5.28222">
        <ele>1460.35</ele>
        <time>2017-05-24T15:54:04.000Z</time>
      </trkpt>
      <trkpt lat="44.8861" lon="5.2822">
        <ele>1460.7</ele>
        <time>2017-05-24T15:54:11.000Z</time>
      </trkpt>
      <trkpt lat="44.88601" lon="5.28218">
        <ele>1460.46</ele>
        <time>2017-05-24T15:54:18.000Z</time>
      </trkpt>
      <trkpt lat="44.88591" lon="5.28214">
        <ele>1460.43</ele>
        <time>2017-05-24T15:54:24.000Z</time>
      </trkpt>
      <trkpt lat="44.88582" lon="5.2821">
        <ele>1460.46</ele>
        <time>2017-05-24T15:54:30.000Z</time>
      </trkpt>
      <trkpt lat="44.88572" lon="5.28207">
        <ele>1460.96</ele>
        <time>2017-05-24T15:54:37.000Z</time>
      </trkpt>
      <trkpt lat="44.88562" lon="5.28202">
        <ele>1460.93</ele>
        <time>2017-05-24T15:54:44.000Z</time>
      </trkpt>
      <trkpt lat="44.88554" lon="5.28198">
        <ele>1461.1</ele>
        <time>2017-05-24T15:54:51.000Z</time>
      </trkpt>
      <trkpt lat="44.88544" lon="5.28192">
        <ele>1461.07</ele>
        <time>2017-05-24T15:54:58.000Z</time>
      </trkpt>
      <trkpt lat="44.88535" lon="5.28187">
        <ele>1461.46</ele>
        <time>2017-05-24T15:55:05.000Z</time>
      </trkpt>
      <trkpt lat="44.88526" lon="5.28181">
        <ele>1461.56</ele>
        <time>2017-05-24T15:55:12.000Z</time>
      </trkpt>
      <trkpt lat="44.88518" lon="5.28177">
        <ele>1461.6</ele>
        <time>2017-05-24T15:55:18.000Z</time>
      </trkpt>
      <trkpt lat="44.88509" lon="5.28172">
        <ele>1461.56</ele>
        <time>2017-05-24T15:55:24.000Z</time>
      </trkpt>
      <trkpt lat="44.88501" lon="5.28164">
        <ele>1461.69</ele>
        <time>2017-05-24T15:55:31.000Z</time>
      </trkpt>
      <trkpt lat="44.88492" lon="5.28158">
        <ele>1461.72</ele>
        <time>2017-05-24T15:55:37.000Z</time>
      </trkpt>
      <trkpt lat="44.88485" lon="5.2815">
        <ele>1461.81</ele>
        <time>2017-05-24T15:55:46.000Z</time>
      </trkpt>
      <trkpt lat="44.88485" lon="5.28137">
        <ele>1464.35</ele>
        <time>2017-05-24T15:56:07.000Z</time>
      </trkpt>
      <trkpt lat="44.88485" lon="5.28124">
        <ele>1464.34</ele>
        <time>2017-05-24T15:56:16.000Z</time>
      </trkpt>
      <trkpt lat="44.88486" lon="5.2811">
        <ele>1463.89</ele>
        <time>2017-05-24T15:56:24.000Z</time>
      </trkpt>
      <trkpt lat="44.88487" lon="5.28097">
        <ele>1463.51</ele>
        <time>2017-05-24T15:56:35.000Z</time>
      </trkpt>
      <trkpt lat="44.88491" lon="5.28083">
        <ele>1462.86</ele>
        <time>2017-05-24T15:56:51.000Z</time>
      </trkpt>
      <trkpt lat="44.88494" lon="5.28071">
        <ele>1461.48</ele>
        <time>2017-05-24T15:56:59.000Z</time>
      </trkpt>
      <trkpt lat="44.88496" lon="5.28058">
        <ele>1459.87</ele>
        <time>2017-05-24T15:57:08.000Z</time>
      </trkpt>
      <trkpt lat="44.88499" lon="5.28044">
        <ele>1457.44</ele>
        <time>2017-05-24T15:57:17.000Z</time>
      </trkpt>
      <trkpt lat="44.88499" lon="5.28031">
        <ele>1454.49</ele>
        <time>2017-05-24T15:57:30.000Z</time>
      </trkpt>
      <trkpt lat="44.88504" lon="5.2802">
        <ele>1453.05</ele>
        <time>2017-05-24T15:57:41.000Z</time>
      </trkpt>
      <trkpt lat="44.88508" lon="5.28008">
        <ele>1451.79</ele>
        <time>2017-05-24T15:57:47.000Z</time>
      </trkpt>
      <trkpt lat="44.88512" lon="5.27996">
        <ele>1448.55</ele>
        <time>2017-05-24T15:57:56.000Z</time>
      </trkpt>
      <trkpt lat="44.88514" lon="5.27983">
        <ele>1445.96</ele>
        <time>2017-05-24T15:58:04.000Z</time>
      </trkpt>
      <trkpt lat="44.88519" lon="5.27969">
        <ele>1444.47</ele>
        <time>2017-05-24T15:58:12.000Z</time>
      </trkpt>
      <trkpt lat="44.8852" lon="5.27956">
        <ele>1440.57</ele>
        <time>2017-05-24T15:58:32.000Z</time>
      </trkpt>
      <trkpt lat="44.8852" lon="5.27942">
        <ele>1439.07</ele>
        <time>2017-05-24T15:58:42.000Z</time>
      </trkpt>
      <trkpt lat="44.88523" lon="5.2793">
        <ele>1436.31</ele>
        <time>2017-05-24T15:58:52.000Z</time>
      </trkpt>
      <trkpt lat="44.88527" lon="5.27917">
        <ele>1434.11</ele>
        <time>2017-05-24T15:59:01.000Z</time>
      </trkpt>
      <trkpt lat="44.8853" lon="5.27904">
        <ele>1432.63</ele>
        <time>2017-05-24T15:59:09.000Z</time>
      </trkpt>
      <trkpt lat="44.88536" lon="5.27891">
        <ele>1428.75</ele>
        <time>2017-05-24T15:59:24.000Z</time>
      </trkpt>
      <trkpt lat="44.88539" lon="5.27879">
        <ele>1425.86</ele>
        <time>2017-05-24T15:59:31.000Z</time>
      </trkpt>
      <trkpt lat="44.88543" lon="5.27867">
        <ele>1423.17</ele>
        <time>2017-05-24T15:59:39.000Z</time>
      </trkpt>
      <trkpt lat="44.88545" lon="5.27852">
        <ele>1420.18</ele>
        <time>2017-05-24T15:59:48.000Z</time>
      </trkpt>
      <trkpt lat="44.88546" lon="5.27839">
        <ele>1417.81</ele>
        <time>2017-05-24T15:59:56.000Z</time>
      </trkpt>
      <trkpt lat="44.88548" lon="5.27824">
        <ele>1415.32</ele>
        <time>2017-05-24T16:00:07.000Z</time>
      </trkpt>
      <trkpt lat="44.8855" lon="5.27811">
        <ele>1413.98</ele>
        <time>2017-05-24T16:00:17.000Z</time>
      </trkpt>
      <trkpt lat="44.88554" lon="5.27797">
        <ele>1411.8</ele>
        <time>2017-05-24T16:00:26.000Z</time>
      </trkpt>
      <trkpt lat="44.88556" lon="5.27784">
        <ele>1410.09</ele>
        <time>2017-05-24T16:00:34.000Z</time>
      </trkpt>
      <trkpt lat="44.88558" lon="5.27772">
        <ele>1408.53</ele>
        <time>2017-05-24T16:00:42.000Z</time>
      </trkpt>
      <trkpt lat="44.88562" lon="5.27759">
        <ele>1407.23</ele>
        <time>2017-05-24T16:00:50.000Z</time>
      </trkpt>
      <trkpt lat="44.88564" lon="5.27744">
        <ele>1405.9</ele>
        <time>2017-05-24T16:00:58.000Z</time>
      </trkpt>
      <trkpt lat="44.88567" lon="5.27732">
        <ele>1405.06</ele>
        <time>2017-05-24T16:01:05.000Z</time>
      </trkpt>
      <trkpt lat="44.8857" lon="5.27719">
        <ele>1403.42</ele>
        <time>2017-05-24T16:01:15.000Z</time>
      </trkpt>
      <trkpt lat="44.88578" lon="5.27711">
        <ele>1401.23</ele>
        <time>2017-05-24T16:01:40.000Z</time>
      </trkpt>
      <trkpt lat="44.88588" lon="5.27709">
        <ele>1400.11</ele>
        <time>2017-05-24T16:01:47.000Z</time>
      </trkpt>
      <trkpt lat="44.88597" lon="5.27708">
        <ele>1399.49</ele>
        <time>2017-05-24T16:01:53.000Z</time>
      </trkpt>
      <trkpt lat="44.88606" lon="5.27712">
        <ele>1398.63</ele>
        <time>2017-05-24T16:01:59.000Z</time>
      </trkpt>
      <trkpt lat="44.88615" lon="5.27717">
        <ele>1396.88</ele>
        <time>2017-05-24T16:02:07.000Z</time>
      </trkpt>
      <trkpt lat="44.88624" lon="5.27719">
        <ele>1395.63</ele>
        <time>2017-05-24T16:02:15.000Z</time>
      </trkpt>
      <trkpt lat="44.88633" lon="5.27718">
        <ele>1394.47</ele>
        <time>2017-05-24T16:02:21.000Z</time>
      </trkpt>
      <trkpt lat="44.88642" lon="5.27721">
        <ele>1393.11</ele>
        <time>2017-05-24T16:02:30.000Z</time>
      </trkpt>
      <trkpt lat="44.88651" lon="5.27722">
        <ele>1390.87</ele>
        <time>2017-05-24T16:02:38.000Z</time>
      </trkpt>
      <trkpt lat="44.8866" lon="5.27721">
        <ele>1388.89</ele>
        <time>2017-05-24T16:02:44.000Z</time>
      </trkpt>
      <trkpt lat="44.88672" lon="5.27723">
        <ele>1387.64</ele>
        <time>2017-05-24T16:02:50.000Z</time>
      </trkpt>
      <trkpt lat="44.88681" lon="5.27723">
        <ele>1386.62</ele>
        <time>2017-05-24T16:02:56.000Z</time>
      </trkpt>
      <trkpt lat="44.8869" lon="5.27728">
        <ele>1385.21</ele>
        <time>2017-05-24T16:03:04.000Z</time>
      </trkpt>
      <trkpt lat="44.887" lon="5.27733">
        <ele>1384.23</ele>
        <time>2017-05-24T16:03:11.000Z</time>
      </trkpt>
      <trkpt lat="44.88709" lon="5.27736">
        <ele>1383.56</ele>
        <time>2017-05-24T16:03:17.000Z</time>
      </trkpt>
      <trkpt lat="44.88719" lon="5.27738">
        <ele>1383.05</ele>
        <time>2017-05-24T16:03:24.000Z</time>
      </trkpt>
      <trkpt lat="44.88728" lon="5.27741">
        <ele>1381.77</ele>
        <time>2017-05-24T16:03:34.000Z</time>
      </trkpt>
      <trkpt lat="44.88737" lon="5.27743">
        <ele>1381.4</ele>
        <time>2017-05-24T16:03:43.000Z</time>
      </trkpt>
      <trkpt lat="44.88746" lon="5.27743">
        <ele>1381.35</ele>
        <time>2017-05-24T16:03:49.000Z</time>
      </trkpt>
      <trkpt lat="44.88756" lon="5.27739">
        <ele>1381.52</ele>
        <time>2017-05-24T16:03:53.000Z</time>
      </trkpt>
      <trkpt lat="44.88764" lon="5.27734">
        <ele>1380.99</ele>
        <time>2017-05-24T16:04:05.000Z</time>
      </trkpt>
      <trkpt lat="44.88763" lon="5.27719">
        <ele>1380.87</ele>
        <time>2017-05-24T16:05:08.000Z</time>
      </trkpt>
      <trkpt lat="44.88768" lon="5.27706">
        <ele>1380.41</ele>
        <time>2017-05-24T16:05:19.000Z</time>
      </trkpt>
      <trkpt lat="44.88762" lon="5.27697">
        <ele>1379.36</ele>
        <time>2017-05-24T16:05:31.000Z</time>
      </trkpt>
      <trkpt lat="44.88757" lon="5.27686">
        <ele>1377.57</ele>
        <time>2017-05-24T16:05:46.000Z</time>
      </trkpt>
      <trkpt lat="44.88749" lon="5.27674">
        <ele>1376.93</ele>
        <time>2017-05-24T16:05:55.000Z</time>
      </trkpt>
      <trkpt lat="44.88742" lon="5.27665">
        <ele>1376.98</ele>
        <time>2017-05-24T16:05:58.000Z</time>
      </trkpt>
      <trkpt lat="44.88737" lon="5.27653">
        <ele>1376.98</ele>
        <time>2017-05-24T16:06:08.000Z</time>
      </trkpt>
      <trkpt lat="44.88728" lon="5.27649">
        <ele>1376.76</ele>
        <time>2017-05-24T16:06:10.000Z</time>
      </trkpt>
      <trkpt lat="44.88722" lon="5.27639">
        <ele>1375.26</ele>
        <time>2017-05-24T16:06:17.000Z</time>
      </trkpt>
      <trkpt lat="44.88715" lon="5.27632">
        <ele>1374.47</ele>
        <time>2017-05-24T16:06:22.000Z</time>
      </trkpt>
      <trkpt lat="44.88708" lon="5.27624">
        <ele>1373.65</ele>
        <time>2017-05-24T16:06:28.000Z</time>
      </trkpt>
      <trkpt lat="44.88701" lon="5.27614">
        <ele>1372.56</ele>
        <time>2017-05-24T16:06:35.000Z</time>
      </trkpt>
      <trkpt lat="44.88695" lon="5.27605">
        <ele>1371.8</ele>
        <time>2017-05-24T16:06:42.000Z</time>
      </trkpt>
      <trkpt lat="44.88689" lon="5.27595">
        <ele>1371.23</ele>
        <time>2017-05-24T16:06:47.000Z</time>
      </trkpt>
      <trkpt lat="44.88683" lon="5.27585">
        <ele>1370.53</ele>
        <time>2017-05-24T16:06:54.000Z</time>
      </trkpt>
      <trkpt lat="44.8868" lon="5.27572">
        <ele>1370.18</ele>
        <time>2017-05-24T16:07:00.000Z</time>
      </trkpt>
      <trkpt lat="44.88677" lon="5.27559">
        <ele>1369.39</ele>
        <time>2017-05-24T16:07:07.000Z</time>
      </trkpt>
      <trkpt lat="44.88673" lon="5.27546">
        <ele>1368.9</ele>
        <time>2017-05-24T16:07:13.000Z</time>
      </trkpt>
      <trkpt lat="44.88672" lon="5.27532">
        <ele>1368.51</ele>
        <time>2017-05-24T16:07:20.000Z</time>
      </trkpt>
      <trkpt lat="44.88671" lon="5.27519">
        <ele>1367.83</ele>
        <time>2017-05-24T16:07:26.000Z</time>
      </trkpt>
      <trkpt lat="44.88674" lon="5.27507">
        <ele>1367.95</ele>
        <time>2017-05-24T16:07:34.000Z</time>
      </trkpt>
      <trkpt lat="44.8868" lon="5.27495">
        <ele>1368.15</ele>
        <time>2017-05-24T16:07:42.000Z</time>
      </trkpt>
      <trkpt lat="44.88685" lon="5.27484">
        <ele>1367.49</ele>
        <time>2017-05-24T16:07:51.000Z</time>
      </trkpt>
      <trkpt lat="44.88692" lon="5.27472">
        <ele>1366.4</ele>
        <time>2017-05-24T16:08:01.000Z</time>
      </trkpt>
      <trkpt lat="44.88697" lon="5.2746">
        <ele>1365.75</ele>
        <time>2017-05-24T16:08:07.000Z</time>
      </trkpt>
      <trkpt lat="44.88703" lon="5.27469">
        <ele>1367.52</ele>
        <time>2017-05-24T16:10:04.000Z</time>
      </trkpt>
      <trkpt lat="44.88694" lon="5.27464">
        <ele>1363.44</ele>
        <time>2017-05-24T16:12:42.000Z</time>
      </trkpt>
      <trkpt lat="44.8869" lon="5.27476">
        <ele>1364.16</ele>
        <time>2017-05-24T16:13:50.000Z</time>
      </trkpt>
      <trkpt lat="44.88686" lon="5.27488">
        <ele>1364.35</ele>
        <time>2017-05-24T16:14:01.000Z</time>
      </trkpt>
      <trkpt lat="44.88682" lon="5.27501">
        <ele>1363.82</ele>
        <time>2017-05-24T16:14:13.000Z</time>
      </trkpt>
      <trkpt lat="44.88681" lon="5.27516">
        <ele>1363.71</ele>
        <time>2017-05-24T16:14:21.000Z</time>
      </trkpt>
      <trkpt lat="44.88676" lon="5.27527">
        <ele>1363.64</ele>
        <time>2017-05-24T16:14:34.000Z</time>
      </trkpt>
      <trkpt lat="44.88669" lon="5.27519">
        <ele>1363.88</ele>
        <time>2017-05-24T16:18:13.000Z</time>
      </trkpt>
      <trkpt lat="44.88675" lon="5.2751">
        <ele>1363.77</ele>
        <time>2017-05-24T16:20:31.000Z</time>
      </trkpt>
      <trkpt lat="44.88683" lon="5.27501">
        <ele>1363.99</ele>
        <time>2017-05-24T16:20:39.000Z</time>
      </trkpt>
      <trkpt lat="44.88691" lon="5.27493">
        <ele>1364.6</ele>
        <time>2017-05-24T16:20:48.000Z</time>
      </trkpt>
      <trkpt lat="44.88695" lon="5.27481">
        <ele>1364.59</ele>
        <time>2017-05-24T16:20:53.000Z</time>
      </trkpt>
      <trkpt lat="44.88699" lon="5.27469">
        <ele>1364.64</ele>
        <time>2017-05-24T16:20:59.000Z</time>
      </trkpt>
      <trkpt lat="44.88702" lon="5.27456">
        <ele>1363.75</ele>
        <time>2017-05-24T16:21:08.000Z</time>
      </trkpt>
      <trkpt lat="44.88708" lon="5.27443">
        <ele>1362.44</ele>
        <time>2017-05-24T16:21:14.000Z</time>
      </trkpt>
      <trkpt lat="44.88712" lon="5.27431">
        <ele>1361.13</ele>
        <time>2017-05-24T16:21:22.000Z</time>
      </trkpt>
      <trkpt lat="44.88717" lon="5.27419">
        <ele>1359.95</ele>
        <time>2017-05-24T16:21:29.000Z</time>
      </trkpt>
      <trkpt lat="44.88723" lon="5.27407">
        <ele>1358.95</ele>
        <time>2017-05-24T16:21:35.000Z</time>
      </trkpt>
      <trkpt lat="44.88729" lon="5.27397">
        <ele>1358.4</ele>
        <time>2017-05-24T16:21:42.000Z</time>
      </trkpt>
      <trkpt lat="44.88736" lon="5.27389">
        <ele>1358.5</ele>
        <time>2017-05-24T16:21:49.000Z</time>
      </trkpt>
      <trkpt lat="44.88744" lon="5.27381">
        <ele>1358.92</ele>
        <time>2017-05-24T16:21:55.000Z</time>
      </trkpt>
      <trkpt lat="44.88751" lon="5.2737">
        <ele>1358.67</ele>
        <time>2017-05-24T16:22:01.000Z</time>
      </trkpt>
      <trkpt lat="44.8876" lon="5.27361">
        <ele>1358.67</ele>
        <time>2017-05-24T16:22:07.000Z</time>
      </trkpt>
      <trkpt lat="44.88763" lon="5.27348">
        <ele>1358.33</ele>
        <time>2017-05-24T16:22:15.000Z</time>
      </trkpt>
      <trkpt lat="44.88756" lon="5.27337">
        <ele>1357.86</ele>
        <time>2017-05-24T16:22:21.000Z</time>
      </trkpt>
      <trkpt lat="44.88748" lon="5.27328">
        <ele>1357.7</ele>
        <time>2017-05-24T16:22:28.000Z</time>
      </trkpt>
      <trkpt lat="44.88742" lon="5.27319">
        <ele>1357.59</ele>
        <time>2017-05-24T16:22:35.000Z</time>
      </trkpt>
      <trkpt lat="44.88736" lon="5.27307">
        <ele>1357.3</ele>
        <time>2017-05-24T16:22:41.000Z</time>
      </trkpt>
      <trkpt lat="44.88731" lon="5.27294">
        <ele>1356.7</ele>
        <time>2017-05-24T16:22:49.000Z</time>
      </trkpt>
      <trkpt lat="44.88726" lon="5.27281">
        <ele>1355.9</ele>
        <time>2017-05-24T16:22:56.000Z</time>
      </trkpt>
      <trkpt lat="44.88717" lon="5.27273">
        <ele>1355.39</ele>
        <time>2017-05-24T16:23:02.000Z</time>
      </trkpt>
      <trkpt lat="44.8871" lon="5.27265">
        <ele>1354.98</ele>
        <time>2017-05-24T16:23:07.000Z</time>
      </trkpt>
      <trkpt lat="44.88704" lon="5.27255">
        <ele>1354.72</ele>
        <time>2017-05-24T16:23:13.000Z</time>
      </trkpt>
      <trkpt lat="44.88697" lon="5.27246">
        <ele>1354.44</ele>
        <time>2017-05-24T16:23:20.000Z</time>
      </trkpt>
      <trkpt lat="44.8869" lon="5.27237">
        <ele>1353.89</ele>
        <time>2017-05-24T16:23:26.000Z</time>
      </trkpt>
      <trkpt lat="44.88683" lon="5.27228">
        <ele>1353.67</ele>
        <time>2017-05-24T16:23:33.000Z</time>
      </trkpt>
      <trkpt lat="44.88677" lon="5.27217">
        <ele>1351.6</ele>
        <time>2017-05-24T16:23:53.000Z</time>
      </trkpt>
      <trkpt lat="44.88678" lon="5.27203">
        <ele>1351.27</ele>
        <time>2017-05-24T16:24:00.000Z</time>
      </trkpt>
      <trkpt lat="44.8868" lon="5.2719">
        <ele>1350.39</ele>
        <time>2017-05-24T16:24:09.000Z</time>
      </trkpt>
      <trkpt lat="44.88684" lon="5.27177">
        <ele>1349.73</ele>
        <time>2017-05-24T16:24:15.000Z</time>
      </trkpt>
      <trkpt lat="44.88685" lon="5.27164">
        <ele>1349.11</ele>
        <time>2017-05-24T16:24:22.000Z</time>
      </trkpt>
      <trkpt lat="44.88685" lon="5.27151">
        <ele>1347.91</ele>
        <time>2017-05-24T16:24:31.000Z</time>
      </trkpt>
      <trkpt lat="44.88686" lon="5.27138">
        <ele>1347.5</ele>
        <time>2017-05-24T16:24:37.000Z</time>
      </trkpt>
      <trkpt lat="44.88689" lon="5.27125">
        <ele>1346.81</ele>
        <time>2017-05-24T16:24:44.000Z</time>
      </trkpt>
      <trkpt lat="44.88695" lon="5.27112">
        <ele>1345.74</ele>
        <time>2017-05-24T16:24:52.000Z</time>
      </trkpt>
      <trkpt lat="44.88698" lon="5.271">
        <ele>1344.48</ele>
        <time>2017-05-24T16:24:58.000Z</time>
      </trkpt>
      <trkpt lat="44.88702" lon="5.27087">
        <ele>1342.99</ele>
        <time>2017-05-24T16:25:05.000Z</time>
      </trkpt>
      <trkpt lat="44.88705" lon="5.27075">
        <ele>1341.77</ele>
        <time>2017-05-24T16:25:11.000Z</time>
      </trkpt>
      <trkpt lat="44.88708" lon="5.27062">
        <ele>1339.89</ele>
        <time>2017-05-24T16:25:20.000Z</time>
      </trkpt>
      <trkpt lat="44.88711" lon="5.27049">
        <ele>1338.16</ele>
        <time>2017-05-24T16:25:28.000Z</time>
      </trkpt>
      <trkpt lat="44.88714" lon="5.27036">
        <ele>1336.44</ele>
        <time>2017-05-24T16:25:35.000Z</time>
      </trkpt>
      <trkpt lat="44.88716" lon="5.27023">
        <ele>1334.87</ele>
        <time>2017-05-24T16:25:42.000Z</time>
      </trkpt>
      <trkpt lat="44.88718" lon="5.27009">
        <ele>1334.01</ele>
        <time>2017-05-24T16:25:49.000Z</time>
      </trkpt>
      <trkpt lat="44.88717" lon="5.26996">
        <ele>1333.34</ele>
        <time>2017-05-24T16:25:57.000Z</time>
      </trkpt>
      <trkpt lat="44.88717" lon="5.26983">
        <ele>1332.18</ele>
        <time>2017-05-24T16:26:04.000Z</time>
      </trkpt>
      <trkpt lat="44.88719" lon="5.26969">
        <ele>1330.58</ele>
        <time>2017-05-24T16:26:12.000Z</time>
      </trkpt>
      <trkpt lat="44.88724" lon="5.26957">
        <ele>1326.31</ele>
        <time>2017-05-24T16:26:43.000Z</time>
      </trkpt>
      <trkpt lat="44.8872" lon="5.26945">
        <ele>1325.57</ele>
        <time>2017-05-24T16:26:49.000Z</time>
      </trkpt>
      <trkpt lat="44.88715" lon="5.26933">
        <ele>1324.73</ele>
        <time>2017-05-24T16:26:55.000Z</time>
      </trkpt>
      <trkpt lat="44.8871" lon="5.26921">
        <ele>1324.13</ele>
        <time>2017-05-24T16:27:01.000Z</time>
      </trkpt>
      <trkpt lat="44.88705" lon="5.26909">
        <ele>1323.26</ele>
        <time>2017-05-24T16:27:07.000Z</time>
      </trkpt>
      <trkpt lat="44.88702" lon="5.26897">
        <ele>1322.7</ele>
        <time>2017-05-24T16:27:15.000Z</time>
      </trkpt>
      <trkpt lat="44.88702" lon="5.26884">
        <ele>1322.59</ele>
        <time>2017-05-24T16:27:21.000Z</time>
      </trkpt>
      <trkpt lat="44.88701" lon="5.26871">
        <ele>1322.78</ele>
        <time>2017-05-24T16:27:27.000Z</time>
      </trkpt>
      <trkpt lat="44.88697" lon="5.26859">
        <ele>1323.59</ele>
        <time>2017-05-24T16:27:34.000Z</time>
      </trkpt>
      <trkpt lat="44.88693" lon="5.26848">
        <ele>1324.43</ele>
        <time>2017-05-24T16:27:40.000Z</time>
      </trkpt>
      <trkpt lat="44.88694" lon="5.26833">
        <ele>1325.2</ele>
        <time>2017-05-24T16:27:47.000Z</time>
      </trkpt>
      <trkpt lat="44.88694" lon="5.2682">
        <ele>1325.92</ele>
        <time>2017-05-24T16:27:55.000Z</time>
      </trkpt>
      <trkpt lat="44.88694" lon="5.26806">
        <ele>1326.31</ele>
        <time>2017-05-24T16:28:02.000Z</time>
      </trkpt>
      <trkpt lat="44.88695" lon="5.26792">
        <ele>1326.37</ele>
        <time>2017-05-24T16:28:08.000Z</time>
      </trkpt>
      <trkpt lat="44.88693" lon="5.26777">
        <ele>1326.34</ele>
        <time>2017-05-24T16:28:15.000Z</time>
      </trkpt>
      <trkpt lat="44.88688" lon="5.26767">
        <ele>1326.14</ele>
        <time>2017-05-24T16:28:22.000Z</time>
      </trkpt>
      <trkpt lat="44.8868" lon="5.26759">
        <ele>1326.54</ele>
        <time>2017-05-24T16:28:29.000Z</time>
      </trkpt>
      <trkpt lat="44.88673" lon="5.26748">
        <ele>1326.68</ele>
        <time>2017-05-24T16:28:36.000Z</time>
      </trkpt>
      <trkpt lat="44.88667" lon="5.26738">
        <ele>1326.91</ele>
        <time>2017-05-24T16:28:43.000Z</time>
      </trkpt>
      <trkpt lat="44.88661" lon="5.26728">
        <ele>1327.79</ele>
        <time>2017-05-24T16:28:51.000Z</time>
      </trkpt>
      <trkpt lat="44.88656" lon="5.26716">
        <ele>1328.44</ele>
        <time>2017-05-24T16:29:00.000Z</time>
      </trkpt>
      <trkpt lat="44.88652" lon="5.26705">
        <ele>1329.89</ele>
        <time>2017-05-24T16:29:09.000Z</time>
      </trkpt>
      <trkpt lat="44.8865" lon="5.26692">
        <ele>1332.39</ele>
        <time>2017-05-24T16:29:19.000Z</time>
      </trkpt>
      <trkpt lat="44.88647" lon="5.2668">
        <ele>1333.59</ele>
        <time>2017-05-24T16:29:25.000Z</time>
      </trkpt>
      <trkpt lat="44.88642" lon="5.26668">
        <ele>1335.1</ele>
        <time>2017-05-24T16:29:32.000Z</time>
      </trkpt>
      <trkpt lat="44.88637" lon="5.26656">
        <ele>1336.23</ele>
        <time>2017-05-24T16:29:39.000Z</time>
      </trkpt>
      <trkpt lat="44.88632" lon="5.26646">
        <ele>1337.44</ele>
        <time>2017-05-24T16:29:45.000Z</time>
      </trkpt>
      <trkpt lat="44.88628" lon="5.26633">
        <ele>1339.02</ele>
        <time>2017-05-24T16:29:52.000Z</time>
      </trkpt>
      <trkpt lat="44.88618" lon="5.26631">
        <ele>1340.74</ele>
        <time>2017-05-24T16:30:07.000Z</time>
      </trkpt>
      <trkpt lat="44.88609" lon="5.26626">
        <ele>1341.64</ele>
        <time>2017-05-24T16:30:17.000Z</time>
      </trkpt>
      <trkpt lat="44.88602" lon="5.26617">
        <ele>1342.13</ele>
        <time>2017-05-24T16:30:25.000Z</time>
      </trkpt>
      <trkpt lat="44.88596" lon="5.26607">
        <ele>1343.4</ele>
        <time>2017-05-24T16:30:34.000Z</time>
      </trkpt>
      <trkpt lat="44.88591" lon="5.26596">
        <ele>1344.04</ele>
        <time>2017-05-24T16:30:41.000Z</time>
      </trkpt>
      <trkpt lat="44.88591" lon="5.26582">
        <ele>1344.91</ele>
        <time>2017-05-24T16:30:55.000Z</time>
      </trkpt>
      <trkpt lat="44.88586" lon="5.2657">
        <ele>1346.21</ele>
        <time>2017-05-24T16:31:04.000Z</time>
      </trkpt>
      <trkpt lat="44.88583" lon="5.26556">
        <ele>1346.89</ele>
        <time>2017-05-24T16:31:14.000Z</time>
      </trkpt>
      <trkpt lat="44.88579" lon="5.26544">
        <ele>1348.4</ele>
        <time>2017-05-24T16:31:29.000Z</time>
      </trkpt>
      <trkpt lat="44.88577" lon="5.2653">
        <ele>1350.13</ele>
        <time>2017-05-24T16:31:36.000Z</time>
      </trkpt>
      <trkpt lat="44.88574" lon="5.26516">
        <ele>1352.18</ele>
        <time>2017-05-24T16:31:43.000Z</time>
      </trkpt>
      <trkpt lat="44.88573" lon="5.26502">
        <ele>1354.54</ele>
        <time>2017-05-24T16:31:50.000Z</time>
      </trkpt>
      <trkpt lat="44.88571" lon="5.2649">
        <ele>1356.13</ele>
        <time>2017-05-24T16:31:55.000Z</time>
      </trkpt>
      <trkpt lat="44.88567" lon="5.26476">
        <ele>1358.5</ele>
        <time>2017-05-24T16:32:05.000Z</time>
      </trkpt>
      <trkpt lat="44.8857" lon="5.26464">
        <ele>1361.25</ele>
        <time>2017-05-24T16:32:16.000Z</time>
      </trkpt>
      <trkpt lat="44.88571" lon="5.26451">
        <ele>1362.5</ele>
        <time>2017-05-24T16:32:29.000Z</time>
      </trkpt>
      <trkpt lat="44.88572" lon="5.26438">
        <ele>1363.06</ele>
        <time>2017-05-24T16:32:36.000Z</time>
      </trkpt>
      <trkpt lat="44.8857" lon="5.26424">
        <ele>1363.45</ele>
        <time>2017-05-24T16:32:42.000Z</time>
      </trkpt>
      <trkpt lat="44.88567" lon="5.2641">
        <ele>1363.83</ele>
        <time>2017-05-24T16:32:48.000Z</time>
      </trkpt>
      <trkpt lat="44.88562" lon="5.26399">
        <ele>1363.93</ele>
        <time>2017-05-24T16:32:55.000Z</time>
      </trkpt>
      <trkpt lat="44.88556" lon="5.26388">
        <ele>1363.46</ele>
        <time>2017-05-24T16:33:02.000Z</time>
      </trkpt>
      <trkpt lat="44.88549" lon="5.26379">
        <ele>1363.65</ele>
        <time>2017-05-24T16:33:10.000Z</time>
      </trkpt>
      <trkpt lat="44.88545" lon="5.26367">
        <ele>1363.47</ele>
        <time>2017-05-24T16:33:18.000Z</time>
      </trkpt>
      <trkpt lat="44.8854" lon="5.26356">
        <ele>1363.68</ele>
        <time>2017-05-24T16:33:27.000Z</time>
      </trkpt>
      <trkpt lat="44.88533" lon="5.26343">
        <ele>1363.59</ele>
        <time>2017-05-24T16:33:35.000Z</time>
      </trkpt>
      <trkpt lat="44.8853" lon="5.26331">
        <ele>1363.69</ele>
        <time>2017-05-24T16:33:42.000Z</time>
      </trkpt>
      <trkpt lat="44.88525" lon="5.2632">
        <ele>1364.21</ele>
        <time>2017-05-24T16:33:48.000Z</time>
      </trkpt>
      <trkpt lat="44.88523" lon="5.26307">
        <ele>1365.29</ele>
        <time>2017-05-24T16:33:57.000Z</time>
      </trkpt>
      <trkpt lat="44.88524" lon="5.26293">
        <ele>1366.21</ele>
        <time>2017-05-24T16:34:04.000Z</time>
      </trkpt>
      <trkpt lat="44.88521" lon="5.26278">
        <ele>1367.2</ele>
        <time>2017-05-24T16:34:11.000Z</time>
      </trkpt>
      <trkpt lat="44.88519" lon="5.26264">
        <ele>1367.77</ele>
        <time>2017-05-24T16:34:17.000Z</time>
      </trkpt>
      <trkpt lat="44.88514" lon="5.26251">
        <ele>1368.83</ele>
        <time>2017-05-24T16:34:25.000Z</time>
      </trkpt>
      <trkpt lat="44.88508" lon="5.26239">
        <ele>1369.08</ele>
        <time>2017-05-24T16:34:29.000Z</time>
      </trkpt>
      <trkpt lat="44.88503" lon="5.26226">
        <ele>1369.39</ele>
        <time>2017-05-24T16:34:34.000Z</time>
      </trkpt>
      <trkpt lat="44.88499" lon="5.26214">
        <ele>1369.83</ele>
        <time>2017-05-24T16:34:39.000Z</time>
      </trkpt>
      <trkpt lat="44.88493" lon="5.26203">
        <ele>1370.07</ele>
        <time>2017-05-24T16:34:48.000Z</time>
      </trkpt>
      <trkpt lat="44.8849" lon="5.2619">
        <ele>1369.5</ele>
        <time>2017-05-24T16:34:55.000Z</time>
      </trkpt>
      <trkpt lat="44.88485" lon="5.26178">
        <ele>1368.32</ele>
        <time>2017-05-24T16:35:04.000Z</time>
      </trkpt>
      <trkpt lat="44.88481" lon="5.26166">
        <ele>1367.24</ele>
        <time>2017-05-24T16:35:11.000Z</time>
      </trkpt>
      <trkpt lat="44.88477" lon="5.26155">
        <ele>1366.24</ele>
        <time>2017-05-24T16:35:17.000Z</time>
      </trkpt>
      <trkpt lat="44.88474" lon="5.26141">
        <ele>1365.41</ele>
        <time>2017-05-24T16:35:25.000Z</time>
      </trkpt>
      <trkpt lat="44.88469" lon="5.26129">
        <ele>1365.1</ele>
        <time>2017-05-24T16:35:32.000Z</time>
      </trkpt>
      <trkpt lat="44.88465" lon="5.26117">
        <ele>1364.02</ele>
        <time>2017-05-24T16:35:40.000Z</time>
      </trkpt>
      <trkpt lat="44.88459" lon="5.26103">
        <ele>1363.84</ele>
        <time>2017-05-24T16:35:47.000Z</time>
      </trkpt>
      <trkpt lat="44.88452" lon="5.26092">
        <ele>1363.66</ele>
        <time>2017-05-24T16:35:54.000Z</time>
      </trkpt>
      <trkpt lat="44.88445" lon="5.26084">
        <ele>1363.36</ele>
        <time>2017-05-24T16:36:00.000Z</time>
      </trkpt>
      <trkpt lat="44.88436" lon="5.26076">
        <ele>1362.72</ele>
        <time>2017-05-24T16:36:07.000Z</time>
      </trkpt>
      <trkpt lat="44.88429" lon="5.26067">
        <ele>1362.31</ele>
        <time>2017-05-24T16:36:12.000Z</time>
      </trkpt>
      <trkpt lat="44.88423" lon="5.26056">
        <ele>1361.41</ele>
        <time>2017-05-24T16:36:20.000Z</time>
      </trkpt>
      <trkpt lat="44.88416" lon="5.26045">
        <ele>1360.39</ele>
        <time>2017-05-24T16:36:27.000Z</time>
      </trkpt>
      <trkpt lat="44.88409" lon="5.26036">
        <ele>1359.65</ele>
        <time>2017-05-24T16:36:34.000Z</time>
      </trkpt>
      <trkpt lat="44.88402" lon="5.26028">
        <ele>1359.41</ele>
        <time>2017-05-24T16:36:40.000Z</time>
      </trkpt>
      <trkpt lat="44.88395" lon="5.26018">
        <ele>1358.48</ele>
        <time>2017-05-24T16:36:49.000Z</time>
      </trkpt>
      <trkpt lat="44.88391" lon="5.26004">
        <ele>1357.3</ele>
        <time>2017-05-24T16:36:56.000Z</time>
      </trkpt>
      <trkpt lat="44.88384" lon="5.25996">
        <ele>1357.06</ele>
        <time>2017-05-24T16:37:02.000Z</time>
      </trkpt>
      <trkpt lat="44.88376" lon="5.25989">
        <ele>1356.92</ele>
        <time>2017-05-24T16:37:08.000Z</time>
      </trkpt>
      <trkpt lat="44.88369" lon="5.2598">
        <ele>1356.17</ele>
        <time>2017-05-24T16:37:14.000Z</time>
      </trkpt>
      <trkpt lat="44.8836" lon="5.25974">
        <ele>1354.33</ele>
        <time>2017-05-24T16:37:23.000Z</time>
      </trkpt>
      <trkpt lat="44.88353" lon="5.25964">
        <ele>1351.82</ele>
        <time>2017-05-24T16:37:32.000Z</time>
      </trkpt>
      <trkpt lat="44.88345" lon="5.25958">
        <ele>1349.86</ele>
        <time>2017-05-24T16:37:39.000Z</time>
      </trkpt>
      <trkpt lat="44.88336" lon="5.25952">
        <ele>1348.79</ele>
        <time>2017-05-24T16:37:47.000Z</time>
      </trkpt>
      <trkpt lat="44.88328" lon="5.25944">
        <ele>1347.96</ele>
        <time>2017-05-24T16:37:55.000Z</time>
      </trkpt>
      <trkpt lat="44.88321" lon="5.25935">
        <ele>1347.48</ele>
        <time>2017-05-24T16:38:03.000Z</time>
      </trkpt>
      <trkpt lat="44.88315" lon="5.25924">
        <ele>1347.59</ele>
        <time>2017-05-24T16:38:11.000Z</time>
      </trkpt>
      <trkpt lat="44.8831" lon="5.25912">
        <ele>1347.64</ele>
        <time>2017-05-24T16:38:16.000Z</time>
      </trkpt>
      <trkpt lat="44.88304" lon="5.25902">
        <ele>1347.58</ele>
        <time>2017-05-24T16:38:21.000Z</time>
      </trkpt>
      <trkpt lat="44.88295" lon="5.25895">
        <ele>1347.74</ele>
        <time>2017-05-24T16:38:28.000Z</time>
      </trkpt>
      <trkpt lat="44.88286" lon="5.25889">
        <ele>1347.63</ele>
        <time>2017-05-24T16:38:36.000Z</time>
      </trkpt>
      <trkpt lat="44.88285" lon="5.25876">
        <ele>1346.93</ele>
        <time>2017-05-24T16:38:44.000Z</time>
      </trkpt>
      <trkpt lat="44.88282" lon="5.25863">
        <ele>1346.43</ele>
        <time>2017-05-24T16:38:52.000Z</time>
      </trkpt>
      <trkpt lat="44.8828" lon="5.2585">
        <ele>1346.3</ele>
        <time>2017-05-24T16:39:00.000Z</time>
      </trkpt>
      <trkpt lat="44.88279" lon="5.25836">
        <ele>1346.36</ele>
        <time>2017-05-24T16:39:09.000Z</time>
      </trkpt>
      <trkpt lat="44.88276" lon="5.25822">
        <ele>1345.79</ele>
        <time>2017-05-24T16:39:16.000Z</time>
      </trkpt>
      <trkpt lat="44.8827" lon="5.2581">
        <ele>1345.36</ele>
        <time>2017-05-24T16:39:19.000Z</time>
      </trkpt>
      <trkpt lat="44.88264" lon="5.25799">
        <ele>1344.33</ele>
        <time>2017-05-24T16:39:24.000Z</time>
      </trkpt>
      <trkpt lat="44.88255" lon="5.25793">
        <ele>1343.43</ele>
        <time>2017-05-24T16:39:31.000Z</time>
      </trkpt>
      <trkpt lat="44.88246" lon="5.25789">
        <ele>1342.23</ele>
        <time>2017-05-24T16:39:37.000Z</time>
      </trkpt>
      <trkpt lat="44.88237" lon="5.2579">
        <ele>1339.59</ele>
        <time>2017-05-24T16:39:46.000Z</time>
      </trkpt>
      <trkpt lat="44.88228" lon="5.25784">
        <ele>1336.72</ele>
        <time>2017-05-24T16:39:57.000Z</time>
      </trkpt>
      <trkpt lat="44.8822" lon="5.25775">
        <ele>1335.18</ele>
        <time>2017-05-24T16:40:07.000Z</time>
      </trkpt>
      <trkpt lat="44.8821" lon="5.2577">
        <ele>1334.42</ele>
        <time>2017-05-24T16:40:13.000Z</time>
      </trkpt>
      <trkpt lat="44.88202" lon="5.2576">
        <ele>1334.55</ele>
        <time>2017-05-24T16:40:22.000Z</time>
      </trkpt>
      <trkpt lat="44.88194" lon="5.25756">
        <ele>1334.72</ele>
        <time>2017-05-24T16:40:29.000Z</time>
      </trkpt>
      <trkpt lat="44.88186" lon="5.25747">
        <ele>1332.61</ele>
        <time>2017-05-24T16:40:38.000Z</time>
      </trkpt>
      <trkpt lat="44.8818" lon="5.25736">
        <ele>1329.02</ele>
        <time>2017-05-24T16:40:51.000Z</time>
      </trkpt>
      <trkpt lat="44.88173" lon="5.25729">
        <ele>1325.59</ele>
        <time>2017-05-24T16:41:06.000Z</time>
      </trkpt>
      <trkpt lat="44.8817" lon="5.25717">
        <ele>1323.51</ele>
        <time>2017-05-24T16:41:13.000Z</time>
      </trkpt>
      <trkpt lat="44.88166" lon="5.25704">
        <ele>1322.49</ele>
        <time>2017-05-24T16:41:18.000Z</time>
      </trkpt>
      <trkpt lat="44.88163" lon="5.25689">
        <ele>1321.76</ele>
        <time>2017-05-24T16:41:22.000Z</time>
      </trkpt>
      <trkpt lat="44.88158" lon="5.25679">
        <ele>1318.36</ele>
        <time>2017-05-24T16:41:38.000Z</time>
      </trkpt>
      <trkpt lat="44.8816" lon="5.25662">
        <ele>1314.22</ele>
        <time>2017-05-24T16:42:26.000Z</time>
      </trkpt>
      <trkpt lat="44.88166" lon="5.25652">
        <ele>1313.3</ele>
        <time>2017-05-24T16:42:34.000Z</time>
      </trkpt>
      <trkpt lat="44.88176" lon="5.25645">
        <ele>1313.36</ele>
        <time>2017-05-24T16:42:42.000Z</time>
      </trkpt>
      <trkpt lat="44.88186" lon="5.25644">
        <ele>1313.38</ele>
        <time>2017-05-24T16:42:50.000Z</time>
      </trkpt>
      <trkpt lat="44.88197" lon="5.2564">
        <ele>1313.67</ele>
        <time>2017-05-24T16:42:59.000Z</time>
      </trkpt>
      <trkpt lat="44.88207" lon="5.2564">
        <ele>1314.05</ele>
        <time>2017-05-24T16:43:05.000Z</time>
      </trkpt>
      <trkpt lat="44.88215" lon="5.25629">
        <ele>1314.37</ele>
        <time>2017-05-24T16:43:13.000Z</time>
      </trkpt>
      <trkpt lat="44.88218" lon="5.25615">
        <ele>1314.35</ele>
        <time>2017-05-24T16:43:21.000Z</time>
      </trkpt>
      <trkpt lat="44.88221" lon="5.25602">
        <ele>1314.2</ele>
        <time>2017-05-24T16:43:28.000Z</time>
      </trkpt>
      <trkpt lat="44.88224" lon="5.2559">
        <ele>1313.68</ele>
        <time>2017-05-24T16:43:34.000Z</time>
      </trkpt>
      <trkpt lat="44.88226" lon="5.25577">
        <ele>1312.62</ele>
        <time>2017-05-24T16:43:44.000Z</time>
      </trkpt>
      <trkpt lat="44.88226" lon="5.25563">
        <ele>1312.58</ele>
        <time>2017-05-24T16:44:01.000Z</time>
      </trkpt>
      <trkpt lat="44.88228" lon="5.25548">
        <ele>1312.83</ele>
        <time>2017-05-24T16:44:14.000Z</time>
      </trkpt>
      <trkpt lat="44.88228" lon="5.25535">
        <ele>1312.94</ele>
        <time>2017-05-24T16:44:19.000Z</time>
      </trkpt>
      <trkpt lat="44.88224" lon="5.25523">
        <ele>1312.73</ele>
        <time>2017-05-24T16:44:24.000Z</time>
      </trkpt>
      <trkpt lat="44.88221" lon="5.2551">
        <ele>1312.72</ele>
        <time>2017-05-24T16:44:28.000Z</time>
      </trkpt>
      <trkpt lat="44.88217" lon="5.25497">
        <ele>1311.44</ele>
        <time>2017-05-24T16:44:37.000Z</time>
      </trkpt>
      <trkpt lat="44.88216" lon="5.25483">
        <ele>1310.96</ele>
        <time>2017-05-24T16:44:46.000Z</time>
      </trkpt>
      <trkpt lat="44.88216" lon="5.25469">
        <ele>1309.75</ele>
        <time>2017-05-24T16:44:58.000Z</time>
      </trkpt>
      <trkpt lat="44.88207" lon="5.25456">
        <ele>1308.08</ele>
        <time>2017-05-24T16:45:07.000Z</time>
      </trkpt>
      <trkpt lat="44.882" lon="5.25443">
        <ele>1306.14</ele>
        <time>2017-05-24T16:45:16.000Z</time>
      </trkpt>
      <trkpt lat="44.88191" lon="5.25434">
        <ele>1305.53</ele>
        <time>2017-05-24T16:45:23.000Z</time>
      </trkpt>
      <trkpt lat="44.88181" lon="5.25429">
        <ele>1304.73</ele>
        <time>2017-05-24T16:45:29.000Z</time>
      </trkpt>
      <trkpt lat="44.88174" lon="5.25417">
        <ele>1303.04</ele>
        <time>2017-05-24T16:45:38.000Z</time>
      </trkpt>
      <trkpt lat="44.8817" lon="5.25406">
        <ele>1301</ele>
        <time>2017-05-24T16:45:50.000Z</time>
      </trkpt>
      <trkpt lat="44.88164" lon="5.25395">
        <ele>1300.59</ele>
        <time>2017-05-24T16:45:53.000Z</time>
      </trkpt>
      <trkpt lat="44.88154" lon="5.25385">
        <ele>1300.07</ele>
        <time>2017-05-24T16:45:56.000Z</time>
      </trkpt>
      <trkpt lat="44.88145" lon="5.2538">
        <ele>1298.59</ele>
        <time>2017-05-24T16:46:04.000Z</time>
      </trkpt>
      <trkpt lat="44.88137" lon="5.25372">
        <ele>1297.86</ele>
        <time>2017-05-24T16:46:11.000Z</time>
      </trkpt>
      <trkpt lat="44.88133" lon="5.25359">
        <ele>1295.58</ele>
        <time>2017-05-24T16:46:23.000Z</time>
      </trkpt>
      <trkpt lat="44.88129" lon="5.25347">
        <ele>1293.68</ele>
        <time>2017-05-24T16:46:31.000Z</time>
      </trkpt>
      <trkpt lat="44.88125" lon="5.25335">
        <ele>1292.3</ele>
        <time>2017-05-24T16:46:40.000Z</time>
      </trkpt>
      <trkpt lat="44.88116" lon="5.25323">
        <ele>1292.21</ele>
        <time>2017-05-24T16:46:43.000Z</time>
      </trkpt>
      <trkpt lat="44.88107" lon="5.25319">
        <ele>1291.67</ele>
        <time>2017-05-24T16:46:48.000Z</time>
      </trkpt>
      <trkpt lat="44.881" lon="5.25311">
        <ele>1289.95</ele>
        <time>2017-05-24T16:46:55.000Z</time>
      </trkpt>
      <trkpt lat="44.88095" lon="5.25299">
        <ele>1287.84</ele>
        <time>2017-05-24T16:47:02.000Z</time>
      </trkpt>
      <trkpt lat="44.8809" lon="5.25287">
        <ele>1285.09</ele>
        <time>2017-05-24T16:47:11.000Z</time>
      </trkpt>
      <trkpt lat="44.8809" lon="5.25271">
        <ele>1284.18</ele>
        <time>2017-05-24T16:47:20.000Z</time>
      </trkpt>
      <trkpt lat="44.88083" lon="5.25261">
        <ele>1284.38</ele>
        <time>2017-05-24T16:47:27.000Z</time>
      </trkpt>
      <trkpt lat="44.88076" lon="5.25248">
        <ele>1284.75</ele>
        <time>2017-05-24T16:47:32.000Z</time>
      </trkpt>
      <trkpt lat="44.88076" lon="5.25234">
        <ele>1285.17</ele>
        <time>2017-05-24T16:47:43.000Z</time>
      </trkpt>
      <trkpt lat="44.88073" lon="5.25221">
        <ele>1284.64</ele>
        <time>2017-05-24T16:47:48.000Z</time>
      </trkpt>
      <trkpt lat="44.8807" lon="5.25208">
        <ele>1283.68</ele>
        <time>2017-05-24T16:47:54.000Z</time>
      </trkpt>
      <trkpt lat="44.88065" lon="5.25195">
        <ele>1281.46</ele>
        <time>2017-05-24T16:48:04.000Z</time>
      </trkpt>
      <trkpt lat="44.88062" lon="5.25181">
        <ele>1279.81</ele>
        <time>2017-05-24T16:48:12.000Z</time>
      </trkpt>
      <trkpt lat="44.88059" lon="5.25168">
        <ele>1279.18</ele>
        <time>2017-05-24T16:48:22.000Z</time>
      </trkpt>
      <trkpt lat="44.88055" lon="5.25152">
        <ele>1278.61</ele>
        <time>2017-05-24T16:48:28.000Z</time>
      </trkpt>
      <trkpt lat="44.88052" lon="5.25139">
        <ele>1277.26</ele>
        <time>2017-05-24T16:48:35.000Z</time>
      </trkpt>
      <trkpt lat="44.8805" lon="5.25127">
        <ele>1275.85</ele>
        <time>2017-05-24T16:48:41.000Z</time>
      </trkpt>
      <trkpt lat="44.8805" lon="5.25113">
        <ele>1274.03</ele>
        <time>2017-05-24T16:48:48.000Z</time>
      </trkpt>
      <trkpt lat="44.88051" lon="5.25099">
        <ele>1271.04</ele>
        <time>2017-05-24T16:49:00.000Z</time>
      </trkpt>
      <trkpt lat="44.88056" lon="5.25087">
        <ele>1270</ele>
        <time>2017-05-24T16:49:08.000Z</time>
      </trkpt>
      <trkpt lat="44.88057" lon="5.25074">
        <ele>1268.2</ele>
        <time>2017-05-24T16:49:16.000Z</time>
      </trkpt>
      <trkpt lat="44.88056" lon="5.25061">
        <ele>1266.94</ele>
        <time>2017-05-24T16:49:21.000Z</time>
      </trkpt>
      <trkpt lat="44.88052" lon="5.25049">
        <ele>1265.22</ele>
        <time>2017-05-24T16:49:25.000Z</time>
      </trkpt>
      <trkpt lat="44.88054" lon="5.25036">
        <ele>1262.12</ele>
        <time>2017-05-24T16:49:35.000Z</time>
      </trkpt>
      <trkpt lat="44.88056" lon="5.25021">
        <ele>1261.09</ele>
        <time>2017-05-24T16:49:41.000Z</time>
      </trkpt>
      <trkpt lat="44.88062" lon="5.25011">
        <ele>1260.27</ele>
        <time>2017-05-24T16:49:49.000Z</time>
      </trkpt>
      <trkpt lat="44.88065" lon="5.24998">
        <ele>1259.61</ele>
        <time>2017-05-24T16:49:56.000Z</time>
      </trkpt>
      <trkpt lat="44.88068" lon="5.24985">
        <ele>1258.66</ele>
        <time>2017-05-24T16:50:03.000Z</time>
      </trkpt>
      <trkpt lat="44.8807" lon="5.24972">
        <ele>1258.23</ele>
        <time>2017-05-24T16:50:16.000Z</time>
      </trkpt>
      <trkpt lat="44.88072" lon="5.24959">
        <ele>1257.73</ele>
        <time>2017-05-24T16:50:23.000Z</time>
      </trkpt>
      <trkpt lat="44.88076" lon="5.24945">
        <ele>1257.43</ele>
        <time>2017-05-24T16:50:30.000Z</time>
      </trkpt>
      <trkpt lat="44.88081" lon="5.24934">
        <ele>1256.94</ele>
        <time>2017-05-24T16:50:36.000Z</time>
      </trkpt>
      <trkpt lat="44.88086" lon="5.24923">
        <ele>1256.06</ele>
        <time>2017-05-24T16:50:44.000Z</time>
      </trkpt>
      <trkpt lat="44.88092" lon="5.24911">
        <ele>1255.4</ele>
        <time>2017-05-24T16:50:51.000Z</time>
      </trkpt>
      <trkpt lat="44.88096" lon="5.24899">
        <ele>1253.43</ele>
        <time>2017-05-24T16:50:59.000Z</time>
      </trkpt>
      <trkpt lat="44.88097" lon="5.24886">
        <ele>1252.68</ele>
        <time>2017-05-24T16:51:05.000Z</time>
      </trkpt>
      <trkpt lat="44.88104" lon="5.24875">
        <ele>1252.75</ele>
        <time>2017-05-24T16:51:12.000Z</time>
      </trkpt>
      <trkpt lat="44.8811" lon="5.24866">
        <ele>1252.75</ele>
        <time>2017-05-24T16:51:19.000Z</time>
      </trkpt>
      <trkpt lat="44.88115" lon="5.24854">
        <ele>1252.31</ele>
        <time>2017-05-24T16:51:25.000Z</time>
      </trkpt>
      <trkpt lat="44.8812" lon="5.24842">
        <ele>1251.87</ele>
        <time>2017-05-24T16:51:31.000Z</time>
      </trkpt>
      <trkpt lat="44.88124" lon="5.2483">
        <ele>1251.6</ele>
        <time>2017-05-24T16:51:37.000Z</time>
      </trkpt>
      <trkpt lat="44.8813" lon="5.24818">
        <ele>1251</ele>
        <time>2017-05-24T16:51:44.000Z</time>
      </trkpt>
      <trkpt lat="44.88138" lon="5.24809">
        <ele>1250.7</ele>
        <time>2017-05-24T16:51:52.000Z</time>
      </trkpt>
      <trkpt lat="44.88145" lon="5.24801">
        <ele>1250.61</ele>
        <time>2017-05-24T16:51:59.000Z</time>
      </trkpt>
      <trkpt lat="44.88153" lon="5.24794">
        <ele>1250.14</ele>
        <time>2017-05-24T16:52:05.000Z</time>
      </trkpt>
      <trkpt lat="44.8816" lon="5.24785">
        <ele>1250.03</ele>
        <time>2017-05-24T16:52:12.000Z</time>
      </trkpt>
      <trkpt lat="44.88167" lon="5.24776">
        <ele>1250.34</ele>
        <time>2017-05-24T16:52:18.000Z</time>
      </trkpt>
      <trkpt lat="44.88174" lon="5.24767">
        <ele>1250.74</ele>
        <time>2017-05-24T16:52:26.000Z</time>
      </trkpt>
      <trkpt lat="44.88181" lon="5.24758">
        <ele>1251.19</ele>
        <time>2017-05-24T16:52:33.000Z</time>
      </trkpt>
      <trkpt lat="44.88189" lon="5.24749">
        <ele>1252.1</ele>
        <time>2017-05-24T16:52:40.000Z</time>
      </trkpt>
      <trkpt lat="44.88197" lon="5.24742">
        <ele>1252.64</ele>
        <time>2017-05-24T16:52:46.000Z</time>
      </trkpt>
      <trkpt lat="44.88207" lon="5.24737">
        <ele>1253.19</ele>
        <time>2017-05-24T16:52:53.000Z</time>
      </trkpt>
      <trkpt lat="44.88215" lon="5.2473">
        <ele>1253.17</ele>
        <time>2017-05-24T16:52:59.000Z</time>
      </trkpt>
      <trkpt lat="44.88221" lon="5.2472">
        <ele>1253.52</ele>
        <time>2017-05-24T16:53:06.000Z</time>
      </trkpt>
      <trkpt lat="44.88229" lon="5.2471">
        <ele>1254.03</ele>
        <time>2017-05-24T16:53:13.000Z</time>
      </trkpt>
      <trkpt lat="44.88238" lon="5.24704">
        <ele>1255.28</ele>
        <time>2017-05-24T16:53:23.000Z</time>
      </trkpt>
      <trkpt lat="44.88246" lon="5.24696">
        <ele>1255.68</ele>
        <time>2017-05-24T16:53:30.000Z</time>
      </trkpt>
      <trkpt lat="44.88254" lon="5.24689">
        <ele>1256.88</ele>
        <time>2017-05-24T16:53:37.000Z</time>
      </trkpt>
      <trkpt lat="44.88261" lon="5.24681">
        <ele>1258.53</ele>
        <time>2017-05-24T16:53:44.000Z</time>
      </trkpt>
      <trkpt lat="44.88269" lon="5.24673">
        <ele>1259.67</ele>
        <time>2017-05-24T16:53:50.000Z</time>
      </trkpt>
      <trkpt lat="44.88277" lon="5.24665">
        <ele>1261.09</ele>
        <time>2017-05-24T16:53:58.000Z</time>
      </trkpt>
      <trkpt lat="44.88285" lon="5.24657">
        <ele>1262.24</ele>
        <time>2017-05-24T16:54:04.000Z</time>
      </trkpt>
      <trkpt lat="44.8829" lon="5.24645">
        <ele>1263.64</ele>
        <time>2017-05-24T16:54:11.000Z</time>
      </trkpt>
      <trkpt lat="44.88293" lon="5.24631">
        <ele>1266.22</ele>
        <time>2017-05-24T16:54:21.000Z</time>
      </trkpt>
      <trkpt lat="44.88291" lon="5.24617">
        <ele>1267.9</ele>
        <time>2017-05-24T16:54:29.000Z</time>
      </trkpt>
      <trkpt lat="44.88291" lon="5.24604">
        <ele>1269.01</ele>
        <time>2017-05-24T16:54:38.000Z</time>
      </trkpt>
      <trkpt lat="44.88293" lon="5.24592">
        <ele>1270.09</ele>
        <time>2017-05-24T16:54:44.000Z</time>
      </trkpt>
      <trkpt lat="44.88294" lon="5.24578">
        <ele>1272.43</ele>
        <time>2017-05-24T16:54:53.000Z</time>
      </trkpt>
      <trkpt lat="44.88295" lon="5.24565">
        <ele>1274.17</ele>
        <time>2017-05-24T16:55:01.000Z</time>
      </trkpt>
      <trkpt lat="44.88301" lon="5.24554">
        <ele>1275.94</ele>
        <time>2017-05-24T16:55:14.000Z</time>
      </trkpt>
      <trkpt lat="44.88306" lon="5.24542">
        <ele>1278.22</ele>
        <time>2017-05-24T16:55:27.000Z</time>
      </trkpt>
      <trkpt lat="44.88313" lon="5.24533">
        <ele>1280.95</ele>
        <time>2017-05-24T16:56:57.000Z</time>
      </trkpt>
      <trkpt lat="44.88307" lon="5.24523">
        <ele>1281.05</ele>
        <time>2017-05-24T16:57:40.000Z</time>
      </trkpt>
      <trkpt lat="44.883" lon="5.24514">
        <ele>1282.19</ele>
        <time>2017-05-24T16:57:47.000Z</time>
      </trkpt>
      <trkpt lat="44.88291" lon="5.24508">
        <ele>1283.74</ele>
        <time>2017-05-24T16:57:54.000Z</time>
      </trkpt>
      <trkpt lat="44.88294" lon="5.24494">
        <ele>1286.47</ele>
        <time>2017-05-24T16:58:05.000Z</time>
      </trkpt>
      <trkpt lat="44.883" lon="5.24485">
        <ele>1287.66</ele>
        <time>2017-05-24T16:58:11.000Z</time>
      </trkpt>
      <trkpt lat="44.88307" lon="5.24476">
        <ele>1288.22</ele>
        <time>2017-05-24T16:58:18.000Z</time>
      </trkpt>
      <trkpt lat="44.88313" lon="5.24466">
        <ele>1288.48</ele>
        <time>2017-05-24T16:58:25.000Z</time>
      </trkpt>
      <trkpt lat="44.88311" lon="5.24452">
        <ele>1288.61</ele>
        <time>2017-05-24T16:58:31.000Z</time>
      </trkpt>
      <trkpt lat="44.88311" lon="5.24439">
        <ele>1289.28</ele>
        <time>2017-05-24T16:58:40.000Z</time>
      </trkpt>
      <trkpt lat="44.88314" lon="5.24427">
        <ele>1290.6</ele>
        <time>2017-05-24T16:58:52.000Z</time>
      </trkpt>
      <trkpt lat="44.88321" lon="5.24418">
        <ele>1292.25</ele>
        <time>2017-05-24T16:59:05.000Z</time>
      </trkpt>
      <trkpt lat="44.88323" lon="5.24404">
        <ele>1294.14</ele>
        <time>2017-05-24T16:59:12.000Z</time>
      </trkpt>
      <trkpt lat="44.88327" lon="5.24393">
        <ele>1296.7</ele>
        <time>2017-05-24T16:59:20.000Z</time>
      </trkpt>
      <trkpt lat="44.88334" lon="5.24382">
        <ele>1299.98</ele>
        <time>2017-05-24T16:59:29.000Z</time>
      </trkpt>
      <trkpt lat="44.8834" lon="5.24372">
        <ele>1302.27</ele>
        <time>2017-05-24T16:59:36.000Z</time>
      </trkpt>
      <trkpt lat="44.88348" lon="5.24363">
        <ele>1305.15</ele>
        <time>2017-05-24T16:59:45.000Z</time>
      </trkpt>
      <trkpt lat="44.88348" lon="5.24349">
        <ele>1307.46</ele>
        <time>2017-05-24T16:59:57.000Z</time>
      </trkpt>
      <trkpt lat="44.88351" lon="5.24337">
        <ele>1309.25</ele>
        <time>2017-05-24T17:00:07.000Z</time>
      </trkpt>
      <trkpt lat="44.88347" lon="5.24323">
        <ele>1311.44</ele>
        <time>2017-05-24T17:00:20.000Z</time>
      </trkpt>
      <trkpt lat="44.88343" lon="5.2431">
        <ele>1312.39</ele>
        <time>2017-05-24T17:00:27.000Z</time>
      </trkpt>
      <trkpt lat="44.88338" lon="5.243">
        <ele>1313.48</ele>
        <time>2017-05-24T17:00:34.000Z</time>
      </trkpt>
      <trkpt lat="44.88329" lon="5.24299">
        <ele>1313.69</ele>
        <time>2017-05-24T17:00:39.000Z</time>
      </trkpt>
      <trkpt lat="44.88319" lon="5.24295">
        <ele>1313.62</ele>
        <time>2017-05-24T17:00:47.000Z</time>
      </trkpt>
      <trkpt lat="44.8831" lon="5.24293">
        <ele>1313.32</ele>
        <time>2017-05-24T17:00:54.000Z</time>
      </trkpt>
      <trkpt lat="44.88298" lon="5.24289">
        <ele>1313.97</ele>
        <time>2017-05-24T17:01:00.000Z</time>
      </trkpt>
      <trkpt lat="44.88289" lon="5.24285">
        <ele>1315.85</ele>
        <time>2017-05-24T17:01:09.000Z</time>
      </trkpt>
      <trkpt lat="44.88279" lon="5.24284">
        <ele>1316.31</ele>
        <time>2017-05-24T17:01:17.000Z</time>
      </trkpt>
      <trkpt lat="44.88271" lon="5.24278">
        <ele>1316.21</ele>
        <time>2017-05-24T17:01:25.000Z</time>
      </trkpt>
      <trkpt lat="44.88263" lon="5.24269">
        <ele>1316.98</ele>
        <time>2017-05-24T17:01:31.000Z</time>
      </trkpt>
      <trkpt lat="44.88252" lon="5.24261">
        <ele>1318.03</ele>
        <time>2017-05-24T17:01:39.000Z</time>
      </trkpt>
      <trkpt lat="44.88243" lon="5.24257">
        <ele>1318.87</ele>
        <time>2017-05-24T17:01:44.000Z</time>
      </trkpt>
      <trkpt lat="44.88232" lon="5.24258">
        <ele>1321.51</ele>
        <time>2017-05-24T17:01:52.000Z</time>
      </trkpt>
      <trkpt lat="44.88222" lon="5.2426">
        <ele>1324.42</ele>
        <time>2017-05-24T17:01:58.000Z</time>
      </trkpt>
      <trkpt lat="44.88212" lon="5.24263">
        <ele>1328.45</ele>
        <time>2017-05-24T17:02:07.000Z</time>
      </trkpt>
      <trkpt lat="44.88202" lon="5.24264">
        <ele>1330.97</ele>
        <time>2017-05-24T17:02:12.000Z</time>
      </trkpt>
      <trkpt lat="44.88192" lon="5.24262">
        <ele>1333.68</ele>
        <time>2017-05-24T17:02:21.000Z</time>
      </trkpt>
      <trkpt lat="44.88183" lon="5.24259">
        <ele>1333.97</ele>
        <time>2017-05-24T17:02:27.000Z</time>
      </trkpt>
      <trkpt lat="44.88174" lon="5.24253">
        <ele>1334.75</ele>
        <time>2017-05-24T17:02:35.000Z</time>
      </trkpt>
      <trkpt lat="44.88165" lon="5.24251">
        <ele>1336.49</ele>
        <time>2017-05-24T17:02:43.000Z</time>
      </trkpt>
      <trkpt lat="44.88158" lon="5.24243">
        <ele>1338.5</ele>
        <time>2017-05-24T17:02:52.000Z</time>
      </trkpt>
      <trkpt lat="44.88149" lon="5.24238">
        <ele>1339.84</ele>
        <time>2017-05-24T17:02:58.000Z</time>
      </trkpt>
      <trkpt lat="44.88139" lon="5.24238">
        <ele>1340.17</ele>
        <time>2017-05-24T17:03:07.000Z</time>
      </trkpt>
      <trkpt lat="44.88131" lon="5.24232">
        <ele>1339.71</ele>
        <time>2017-05-24T17:03:13.000Z</time>
      </trkpt>
      <trkpt lat="44.88121" lon="5.24226">
        <ele>1337.87</ele>
        <time>2017-05-24T17:03:25.000Z</time>
      </trkpt>
      <trkpt lat="44.88111" lon="5.2422">
        <ele>1337.51</ele>
        <time>2017-05-24T17:03:32.000Z</time>
      </trkpt>
      <trkpt lat="44.88101" lon="5.24217">
        <ele>1336.67</ele>
        <time>2017-05-24T17:03:38.000Z</time>
      </trkpt>
      <trkpt lat="44.88092" lon="5.24215">
        <ele>1336.42</ele>
        <time>2017-05-24T17:03:45.000Z</time>
      </trkpt>
      <trkpt lat="44.88081" lon="5.24212">
        <ele>1337.47</ele>
        <time>2017-05-24T17:03:54.000Z</time>
      </trkpt>
      <trkpt lat="44.88071" lon="5.24209">
        <ele>1339.53</ele>
        <time>2017-05-24T17:04:03.000Z</time>
      </trkpt>
      <trkpt lat="44.8806" lon="5.24211">
        <ele>1340.97</ele>
        <time>2017-05-24T17:04:09.000Z</time>
      </trkpt>
      <trkpt lat="44.88051" lon="5.2421">
        <ele>1342.14</ele>
        <time>2017-05-24T17:04:13.000Z</time>
      </trkpt>
      <trkpt lat="44.8804" lon="5.2421">
        <ele>1343.87</ele>
        <time>2017-05-24T17:04:19.000Z</time>
      </trkpt>
      <trkpt lat="44.8803" lon="5.24208">
        <ele>1345.69</ele>
        <time>2017-05-24T17:04:26.000Z</time>
      </trkpt>
      <trkpt lat="44.8802" lon="5.24205">
        <ele>1346.63</ele>
        <time>2017-05-24T17:04:32.000Z</time>
      </trkpt>
      <trkpt lat="44.8801" lon="5.24199">
        <ele>1347.62</ele>
        <time>2017-05-24T17:04:41.000Z</time>
      </trkpt>
      <trkpt lat="44.88001" lon="5.24191">
        <ele>1347.8</ele>
        <time>2017-05-24T17:04:47.000Z</time>
      </trkpt>
      <trkpt lat="44.87993" lon="5.24185">
        <ele>1348.04</ele>
        <time>2017-05-24T17:04:56.000Z</time>
      </trkpt>
      <trkpt lat="44.87984" lon="5.24181">
        <ele>1348.84</ele>
        <time>2017-05-24T17:05:03.000Z</time>
      </trkpt>
      <trkpt lat="44.87975" lon="5.24175">
        <ele>1350.16</ele>
        <time>2017-05-24T17:05:12.000Z</time>
      </trkpt>
      <trkpt lat="44.87965" lon="5.2417">
        <ele>1351.37</ele>
        <time>2017-05-24T17:05:19.000Z</time>
      </trkpt>
      <trkpt lat="44.87955" lon="5.24164">
        <ele>1352.07</ele>
        <time>2017-05-24T17:05:25.000Z</time>
      </trkpt>
      <trkpt lat="44.87946" lon="5.2416">
        <ele>1353.36</ele>
        <time>2017-05-24T17:05:33.000Z</time>
      </trkpt>
      <trkpt lat="44.87937" lon="5.24154">
        <ele>1354.37</ele>
        <time>2017-05-24T17:05:39.000Z</time>
      </trkpt>
      <trkpt lat="44.87928" lon="5.24147">
        <ele>1355.71</ele>
        <time>2017-05-24T17:05:46.000Z</time>
      </trkpt>
      <trkpt lat="44.87919" lon="5.24142">
        <ele>1356.67</ele>
        <time>2017-05-24T17:05:55.000Z</time>
      </trkpt>
      <trkpt lat="44.87911" lon="5.24135">
        <ele>1356.88</ele>
        <time>2017-05-24T17:06:02.000Z</time>
      </trkpt>
      <trkpt lat="44.87902" lon="5.24132">
        <ele>1357.03</ele>
        <time>2017-05-24T17:06:07.000Z</time>
      </trkpt>
      <trkpt lat="44.87893" lon="5.2413">
        <ele>1357.13</ele>
        <time>2017-05-24T17:06:18.000Z</time>
      </trkpt>
      <trkpt lat="44.87884" lon="5.24123">
        <ele>1358.53</ele>
        <time>2017-05-24T17:06:27.000Z</time>
      </trkpt>
      <trkpt lat="44.87876" lon="5.24117">
        <ele>1359.17</ele>
        <time>2017-05-24T17:06:32.000Z</time>
      </trkpt>
      <trkpt lat="44.87869" lon="5.24108">
        <ele>1359.97</ele>
        <time>2017-05-24T17:06:42.000Z</time>
      </trkpt>
      <trkpt lat="44.87863" lon="5.24098">
        <ele>1360.98</ele>
        <time>2017-05-24T17:06:47.000Z</time>
      </trkpt>
      <trkpt lat="44.87857" lon="5.24088">
        <ele>1362.25</ele>
        <time>2017-05-24T17:06:53.000Z</time>
      </trkpt>
      <trkpt lat="44.87848" lon="5.24078">
        <ele>1363.66</ele>
        <time>2017-05-24T17:07:01.000Z</time>
      </trkpt>
      <trkpt lat="44.87843" lon="5.24068">
        <ele>1365.12</ele>
        <time>2017-05-24T17:07:09.000Z</time>
      </trkpt>
      <trkpt lat="44.87841" lon="5.24055">
        <ele>1366.81</ele>
        <time>2017-05-24T17:07:16.000Z</time>
      </trkpt>
      <trkpt lat="44.87837" lon="5.24042">
        <ele>1368.88</ele>
        <time>2017-05-24T17:07:25.000Z</time>
      </trkpt>
      <trkpt lat="44.87832" lon="5.24031">
        <ele>1370.83</ele>
        <time>2017-05-24T17:07:32.000Z</time>
      </trkpt>
      <trkpt lat="44.87825" lon="5.2402">
        <ele>1372.44</ele>
        <time>2017-05-24T17:07:40.000Z</time>
      </trkpt>
      <trkpt lat="44.8782" lon="5.2401">
        <ele>1374.01</ele>
        <time>2017-05-24T17:07:47.000Z</time>
      </trkpt>
      <trkpt lat="44.87817" lon="5.23996">
        <ele>1375.21</ele>
        <time>2017-05-24T17:07:55.000Z</time>
      </trkpt>
      <trkpt lat="44.87824" lon="5.23988">
        <ele>1376.07</ele>
        <time>2017-05-24T17:08:03.000Z</time>
      </trkpt>
      <trkpt lat="44.87833" lon="5.23985">
        <ele>1376.61</ele>
        <time>2017-05-24T17:08:13.000Z</time>
      </trkpt>
      <trkpt lat="44.87843" lon="5.23987">
        <ele>1377.07</ele>
        <time>2017-05-24T17:08:23.000Z</time>
      </trkpt>
      <trkpt lat="44.87851" lon="5.23993">
        <ele>1377.07</ele>
        <time>2017-05-24T17:08:30.000Z</time>
      </trkpt>
      <trkpt lat="44.87861" lon="5.23995">
        <ele>1377.08</ele>
        <time>2017-05-24T17:08:35.000Z</time>
      </trkpt>
      <trkpt lat="44.8787" lon="5.23993">
        <ele>1376.94</ele>
        <time>2017-05-24T17:08:40.000Z</time>
      </trkpt>
      <trkpt lat="44.8788" lon="5.23993">
        <ele>1376.92</ele>
        <time>2017-05-24T17:08:47.000Z</time>
      </trkpt>
      <trkpt lat="44.87889" lon="5.23988">
        <ele>1376.19</ele>
        <time>2017-05-24T17:08:56.000Z</time>
      </trkpt>
      <trkpt lat="44.87898" lon="5.23985">
        <ele>1375.72</ele>
        <time>2017-05-24T17:09:01.000Z</time>
      </trkpt>
      <trkpt lat="44.87907" lon="5.23988">
        <ele>1375.27</ele>
        <time>2017-05-24T17:09:10.000Z</time>
      </trkpt>
      <trkpt lat="44.87917" lon="5.23989">
        <ele>1375.29</ele>
        <time>2017-05-24T17:09:17.000Z</time>
      </trkpt>
      <trkpt lat="44.87927" lon="5.23986">
        <ele>1374.94</ele>
        <time>2017-05-24T17:09:22.000Z</time>
      </trkpt>
      <trkpt lat="44.87937" lon="5.23983">
        <ele>1374.25</ele>
        <time>2017-05-24T17:09:30.000Z</time>
      </trkpt>
      <trkpt lat="44.87946" lon="5.23985">
        <ele>1373.66</ele>
        <time>2017-05-24T17:09:41.000Z</time>
      </trkpt>
      <trkpt lat="44.87956" lon="5.23985">
        <ele>1373.19</ele>
        <time>2017-05-24T17:09:47.000Z</time>
      </trkpt>
      <trkpt lat="44.87965" lon="5.23986">
        <ele>1373.02</ele>
        <time>2017-05-24T17:09:53.000Z</time>
      </trkpt>
      <trkpt lat="44.87975" lon="5.23985">
        <ele>1373.42</ele>
        <time>2017-05-24T17:09:58.000Z</time>
      </trkpt>
      <trkpt lat="44.87984" lon="5.23983">
        <ele>1373.5</ele>
        <time>2017-05-24T17:10:03.000Z</time>
      </trkpt>
      <trkpt lat="44.87992" lon="5.23976">
        <ele>1373.49</ele>
        <time>2017-05-24T17:10:18.000Z</time>
      </trkpt>
      <trkpt lat="44.88001" lon="5.2397">
        <ele>1372.78</ele>
        <time>2017-05-24T17:10:27.000Z</time>
      </trkpt>
      <trkpt lat="44.88008" lon="5.23961">
        <ele>1372</ele>
        <time>2017-05-24T17:10:33.000Z</time>
      </trkpt>
      <trkpt lat="44.88017" lon="5.23955">
        <ele>1371.27</ele>
        <time>2017-05-24T17:10:41.000Z</time>
      </trkpt>
      <trkpt lat="44.88026" lon="5.2395">
        <ele>1370.84</ele>
        <time>2017-05-24T17:10:47.000Z</time>
      </trkpt>
      <trkpt lat="44.88036" lon="5.23949">
        <ele>1370.16</ele>
        <time>2017-05-24T17:10:57.000Z</time>
      </trkpt>
      <trkpt lat="44.88046" lon="5.23946">
        <ele>1370.09</ele>
        <time>2017-05-24T17:11:03.000Z</time>
      </trkpt>
      <trkpt lat="44.88055" lon="5.23942">
        <ele>1369.52</ele>
        <time>2017-05-24T17:11:10.000Z</time>
      </trkpt>
      <trkpt lat="44.88063" lon="5.23935">
        <ele>1368.24</ele>
        <time>2017-05-24T17:11:17.000Z</time>
      </trkpt>
      <trkpt lat="44.88072" lon="5.23931">
        <ele>1366.87</ele>
        <time>2017-05-24T17:11:26.000Z</time>
      </trkpt>
      <trkpt lat="44.88082" lon="5.23928">
        <ele>1365.68</ele>
        <time>2017-05-24T17:11:32.000Z</time>
      </trkpt>
      <trkpt lat="44.88091" lon="5.23925">
        <ele>1364.57</ele>
        <time>2017-05-24T17:11:39.000Z</time>
      </trkpt>
      <trkpt lat="44.88099" lon="5.23919">
        <ele>1363.62</ele>
        <time>2017-05-24T17:11:45.000Z</time>
      </trkpt>
      <trkpt lat="44.88108" lon="5.23915">
        <ele>1362.35</ele>
        <time>2017-05-24T17:11:54.000Z</time>
      </trkpt>
      <trkpt lat="44.88117" lon="5.23911">
        <ele>1361.62</ele>
        <time>2017-05-24T17:12:01.000Z</time>
      </trkpt>
      <trkpt lat="44.88126" lon="5.23909">
        <ele>1360.97</ele>
        <time>2017-05-24T17:12:08.000Z</time>
      </trkpt>
      <trkpt lat="44.88136" lon="5.23908">
        <ele>1360.47</ele>
        <time>2017-05-24T17:12:18.000Z</time>
      </trkpt>
      <trkpt lat="44.88147" lon="5.23908">
        <ele>1360.21</ele>
        <time>2017-05-24T17:12:26.000Z</time>
      </trkpt>
      <trkpt lat="44.88157" lon="5.23907">
        <ele>1359.84</ele>
        <time>2017-05-24T17:12:33.000Z</time>
      </trkpt>
      <trkpt lat="44.88166" lon="5.23901">
        <ele>1360.18</ele>
        <time>2017-05-24T17:12:41.000Z</time>
      </trkpt>
      <trkpt lat="44.88174" lon="5.23896">
        <ele>1360.06</ele>
        <time>2017-05-24T17:12:49.000Z</time>
      </trkpt>
      <trkpt lat="44.88184" lon="5.23891">
        <ele>1359.89</ele>
        <time>2017-05-24T17:12:57.000Z</time>
      </trkpt>
      <trkpt lat="44.88193" lon="5.23886">
        <ele>1360.46</ele>
        <time>2017-05-24T17:13:05.000Z</time>
      </trkpt>
      <trkpt lat="44.882" lon="5.23878">
        <ele>1360.31</ele>
        <time>2017-05-24T17:13:11.000Z</time>
      </trkpt>
      <trkpt lat="44.88203" lon="5.23865">
        <ele>1359.66</ele>
        <time>2017-05-24T17:13:16.000Z</time>
      </trkpt>
      <trkpt lat="44.88212" lon="5.23856">
        <ele>1358.4</ele>
        <time>2017-05-24T17:13:25.000Z</time>
      </trkpt>
      <trkpt lat="44.88219" lon="5.23847">
        <ele>1357.75</ele>
        <time>2017-05-24T17:13:31.000Z</time>
      </trkpt>
      <trkpt lat="44.88226" lon="5.23839">
        <ele>1356.84</ele>
        <time>2017-05-24T17:13:38.000Z</time>
      </trkpt>
      <trkpt lat="44.88237" lon="5.23841">
        <ele>1356</ele>
        <time>2017-05-24T17:13:44.000Z</time>
      </trkpt>
      <trkpt lat="44.88242" lon="5.2383">
        <ele>1354.71</ele>
        <time>2017-05-24T17:13:51.000Z</time>
      </trkpt>
      <trkpt lat="44.8825" lon="5.23822">
        <ele>1353.66</ele>
        <time>2017-05-24T17:13:58.000Z</time>
      </trkpt>
      <trkpt lat="44.88257" lon="5.23813">
        <ele>1353.43</ele>
        <time>2017-05-24T17:14:04.000Z</time>
      </trkpt>
      <trkpt lat="44.88262" lon="5.23801">
        <ele>1353.39</ele>
        <time>2017-05-24T17:14:16.000Z</time>
      </trkpt>
      <trkpt lat="44.88268" lon="5.2379">
        <ele>1354.36</ele>
        <time>2017-05-24T17:14:44.000Z</time>
      </trkpt>
      <trkpt lat="44.88279" lon="5.23787">
        <ele>1354.95</ele>
        <time>2017-05-24T17:14:50.000Z</time>
      </trkpt>
      <trkpt lat="44.88287" lon="5.2378">
        <ele>1354.96</ele>
        <time>2017-05-24T17:14:58.000Z</time>
      </trkpt>
      <trkpt lat="44.88296" lon="5.23773">
        <ele>1355.14</ele>
        <time>2017-05-24T17:15:06.000Z</time>
      </trkpt>
      <trkpt lat="44.88305" lon="5.23765">
        <ele>1355</ele>
        <time>2017-05-24T17:15:13.000Z</time>
      </trkpt>
      <trkpt lat="44.8831" lon="5.23755">
        <ele>1354.64</ele>
        <time>2017-05-24T17:15:23.000Z</time>
      </trkpt>
      <trkpt lat="44.88316" lon="5.23745">
        <ele>1354.37</ele>
        <time>2017-05-24T17:15:30.000Z</time>
      </trkpt>
      <trkpt lat="44.88324" lon="5.23737">
        <ele>1354.35</ele>
        <time>2017-05-24T17:15:37.000Z</time>
      </trkpt>
      <trkpt lat="44.88332" lon="5.2373">
        <ele>1354.09</ele>
        <time>2017-05-24T17:15:44.000Z</time>
      </trkpt>
      <trkpt lat="44.88342" lon="5.23728">
        <ele>1354.01</ele>
        <time>2017-05-24T17:15:49.000Z</time>
      </trkpt>
      <trkpt lat="44.88351" lon="5.23728">
        <ele>1353.79</ele>
        <time>2017-05-24T17:15:55.000Z</time>
      </trkpt>
      <trkpt lat="44.8836" lon="5.23722">
        <ele>1353.67</ele>
        <time>2017-05-24T17:16:03.000Z</time>
      </trkpt>
      <trkpt lat="44.88369" lon="5.23721">
        <ele>1353.79</ele>
        <time>2017-05-24T17:16:10.000Z</time>
      </trkpt>
      <trkpt lat="44.88379" lon="5.2372">
        <ele>1354.01</ele>
        <time>2017-05-24T17:16:17.000Z</time>
      </trkpt>
      <trkpt lat="44.88388" lon="5.23718">
        <ele>1354.12</ele>
        <time>2017-05-24T17:16:24.000Z</time>
      </trkpt>
      <trkpt lat="44.88398" lon="5.23717">
        <ele>1354.29</ele>
        <time>2017-05-24T17:16:32.000Z</time>
      </trkpt>
      <trkpt lat="44.88407" lon="5.23716">
        <ele>1354.32</ele>
        <time>2017-05-24T17:16:40.000Z</time>
      </trkpt>
      <trkpt lat="44.88416" lon="5.23715">
        <ele>1354.29</ele>
        <time>2017-05-24T17:16:48.000Z</time>
      </trkpt>
      <trkpt lat="44.88426" lon="5.23718">
        <ele>1354.04</ele>
        <time>2017-05-24T17:16:56.000Z</time>
      </trkpt>
      <trkpt lat="44.88436" lon="5.23722">
        <ele>1354.21</ele>
        <time>2017-05-24T17:17:05.000Z</time>
      </trkpt>
      <trkpt lat="44.88445" lon="5.23727">
        <ele>1353.75</ele>
        <time>2017-05-24T17:17:13.000Z</time>
      </trkpt>
      <trkpt lat="44.88455" lon="5.2373">
        <ele>1353.97</ele>
        <time>2017-05-24T17:17:21.000Z</time>
      </trkpt>
      <trkpt lat="44.88464" lon="5.23729">
        <ele>1354.53</ele>
        <time>2017-05-24T17:17:29.000Z</time>
      </trkpt>
      <trkpt lat="44.88473" lon="5.23724">
        <ele>1354.46</ele>
        <time>2017-05-24T17:17:35.000Z</time>
      </trkpt>
      <trkpt lat="44.88482" lon="5.2372">
        <ele>1354.43</ele>
        <time>2017-05-24T17:17:40.000Z</time>
      </trkpt>
      <trkpt lat="44.88492" lon="5.23714">
        <ele>1354.31</ele>
        <time>2017-05-24T17:17:48.000Z</time>
      </trkpt>
      <trkpt lat="44.88501" lon="5.23709">
        <ele>1354.55</ele>
        <time>2017-05-24T17:17:54.000Z</time>
      </trkpt>
      <trkpt lat="44.88512" lon="5.23708">
        <ele>1354.95</ele>
        <time>2017-05-24T17:18:01.000Z</time>
      </trkpt>
      <trkpt lat="44.88521" lon="5.23703">
        <ele>1354.86</ele>
        <time>2017-05-24T17:18:08.000Z</time>
      </trkpt>
      <trkpt lat="44.88529" lon="5.23697">
        <ele>1354.64</ele>
        <time>2017-05-24T17:18:15.000Z</time>
      </trkpt>
      <trkpt lat="44.88538" lon="5.2369">
        <ele>1354.82</ele>
        <time>2017-05-24T17:18:23.000Z</time>
      </trkpt>
      <trkpt lat="44.88546" lon="5.23685">
        <ele>1354.97</ele>
        <time>2017-05-24T17:18:34.000Z</time>
      </trkpt>
      <trkpt lat="44.88556" lon="5.23682">
        <ele>1355.08</ele>
        <time>2017-05-24T17:18:40.000Z</time>
      </trkpt>
      <trkpt lat="44.88564" lon="5.23676">
        <ele>1355.53</ele>
        <time>2017-05-24T17:18:46.000Z</time>
      </trkpt>
      <trkpt lat="44.88569" lon="5.23664">
        <ele>1355.75</ele>
        <time>2017-05-24T17:18:51.000Z</time>
      </trkpt>
      <trkpt lat="44.88578" lon="5.23657">
        <ele>1355.58</ele>
        <time>2017-05-24T17:18:57.000Z</time>
      </trkpt>
      <trkpt lat="44.88585" lon="5.23647">
        <ele>1354.85</ele>
        <time>2017-05-24T17:19:05.000Z</time>
      </trkpt>
      <trkpt lat="44.88592" lon="5.23638">
        <ele>1354.77</ele>
        <time>2017-05-24T17:19:12.000Z</time>
      </trkpt>
      <trkpt lat="44.88598" lon="5.23628">
        <ele>1354.67</ele>
        <time>2017-05-24T17:19:19.000Z</time>
      </trkpt>
      <trkpt lat="44.88605" lon="5.23617">
        <ele>1354.29</ele>
        <time>2017-05-24T17:19:26.000Z</time>
      </trkpt>
      <trkpt lat="44.88611" lon="5.23607">
        <ele>1353.78</ele>
        <time>2017-05-24T17:19:34.000Z</time>
      </trkpt>
      <trkpt lat="44.8862" lon="5.23598">
        <ele>1353.53</ele>
        <time>2017-05-24T17:19:42.000Z</time>
      </trkpt>
      <trkpt lat="44.88627" lon="5.23589">
        <ele>1352.96</ele>
        <time>2017-05-24T17:19:50.000Z</time>
      </trkpt>
      <trkpt lat="44.88635" lon="5.23582">
        <ele>1353.23</ele>
        <time>2017-05-24T17:19:59.000Z</time>
      </trkpt>
      <trkpt lat="44.88646" lon="5.23573">
        <ele>1352.8</ele>
        <time>2017-05-24T17:20:07.000Z</time>
      </trkpt>
      <trkpt lat="44.88656" lon="5.2357">
        <ele>1352.29</ele>
        <time>2017-05-24T17:20:15.000Z</time>
      </trkpt>
      <trkpt lat="44.88664" lon="5.23563">
        <ele>1351.47</ele>
        <time>2017-05-24T17:20:21.000Z</time>
      </trkpt>
      <trkpt lat="44.88674" lon="5.23558">
        <ele>1350.55</ele>
        <time>2017-05-24T17:20:27.000Z</time>
      </trkpt>
      <trkpt lat="44.88684" lon="5.23557">
        <ele>1350.1</ele>
        <time>2017-05-24T17:20:33.000Z</time>
      </trkpt>
      <trkpt lat="44.88693" lon="5.23551">
        <ele>1349.89</ele>
        <time>2017-05-24T17:20:39.000Z</time>
      </trkpt>
      <trkpt lat="44.88701" lon="5.23544">
        <ele>1349.93</ele>
        <time>2017-05-24T17:20:45.000Z</time>
      </trkpt>
      <trkpt lat="44.88709" lon="5.23536">
        <ele>1349.84</ele>
        <time>2017-05-24T17:20:54.000Z</time>
      </trkpt>
      <trkpt lat="44.88717" lon="5.23529">
        <ele>1349.18</ele>
        <time>2017-05-24T17:21:01.000Z</time>
      </trkpt>
      <trkpt lat="44.88728" lon="5.23528">
        <ele>1348.96</ele>
        <time>2017-05-24T17:21:07.000Z</time>
      </trkpt>
      <trkpt lat="44.88737" lon="5.23522">
        <ele>1348.79</ele>
        <time>2017-05-24T17:21:14.000Z</time>
      </trkpt>
      <trkpt lat="44.88745" lon="5.23516">
        <ele>1348.44</ele>
        <time>2017-05-24T17:21:21.000Z</time>
      </trkpt>
      <trkpt lat="44.88755" lon="5.23514">
        <ele>1347.63</ele>
        <time>2017-05-24T17:21:28.000Z</time>
      </trkpt>
      <trkpt lat="44.88763" lon="5.23509">
        <ele>1346.84</ele>
        <time>2017-05-24T17:21:34.000Z</time>
      </trkpt>
      <trkpt lat="44.88769" lon="5.23499">
        <ele>1346.33</ele>
        <time>2017-05-24T17:21:55.000Z</time>
      </trkpt>
      <trkpt lat="44.88778" lon="5.23494">
        <ele>1346.03</ele>
        <time>2017-05-24T17:22:01.000Z</time>
      </trkpt>
      <trkpt lat="44.88787" lon="5.2349">
        <ele>1345.38</ele>
        <time>2017-05-24T17:22:08.000Z</time>
      </trkpt>
      <trkpt lat="44.88797" lon="5.23489">
        <ele>1344.98</ele>
        <time>2017-05-24T17:22:15.000Z</time>
      </trkpt>
      <trkpt lat="44.88805" lon="5.23484">
        <ele>1344.63</ele>
        <time>2017-05-24T17:22:21.000Z</time>
      </trkpt>
      <trkpt lat="44.88816" lon="5.23483">
        <ele>1344.06</ele>
        <time>2017-05-24T17:22:28.000Z</time>
      </trkpt>
      <trkpt lat="44.88826" lon="5.23478">
        <ele>1343.84</ele>
        <time>2017-05-24T17:22:36.000Z</time>
      </trkpt>
      <trkpt lat="44.88835" lon="5.23474">
        <ele>1343.91</ele>
        <time>2017-05-24T17:22:43.000Z</time>
      </trkpt>
      <trkpt lat="44.88845" lon="5.23471">
        <ele>1343.71</ele>
        <time>2017-05-24T17:22:49.000Z</time>
      </trkpt>
      <trkpt lat="44.88854" lon="5.23471">
        <ele>1343.29</ele>
        <time>2017-05-24T17:22:55.000Z</time>
      </trkpt>
      <trkpt lat="44.88864" lon="5.23468">
        <ele>1342.85</ele>
        <time>2017-05-24T17:23:02.000Z</time>
      </trkpt>
      <trkpt lat="44.88874" lon="5.23464">
        <ele>1342.23</ele>
        <time>2017-05-24T17:23:10.000Z</time>
      </trkpt>
      <trkpt lat="44.88884" lon="5.23458">
        <ele>1341.65</ele>
        <time>2017-05-24T17:23:18.000Z</time>
      </trkpt>
      <trkpt lat="44.88893" lon="5.23453">
        <ele>1341.36</ele>
        <time>2017-05-24T17:23:25.000Z</time>
      </trkpt>
      <trkpt lat="44.88902" lon="5.23448">
        <ele>1341.65</ele>
        <time>2017-05-24T17:23:32.000Z</time>
      </trkpt>
      <trkpt lat="44.88911" lon="5.23443">
        <ele>1342.08</ele>
        <time>2017-05-24T17:23:38.000Z</time>
      </trkpt>
      <trkpt lat="44.88919" lon="5.2344">
        <ele>1342.05</ele>
        <time>2017-05-24T17:23:46.000Z</time>
      </trkpt>
      <trkpt lat="44.88929" lon="5.23437">
        <ele>1342.09</ele>
        <time>2017-05-24T17:23:53.000Z</time>
      </trkpt>
      <trkpt lat="44.88939" lon="5.23438">
        <ele>1342.11</ele>
        <time>2017-05-24T17:24:01.000Z</time>
      </trkpt>
      <trkpt lat="44.88948" lon="5.2344">
        <ele>1342.26</ele>
        <time>2017-05-24T17:24:09.000Z</time>
      </trkpt>
      <trkpt lat="44.88957" lon="5.23446">
        <ele>1342.16</ele>
        <time>2017-05-24T17:24:16.000Z</time>
      </trkpt>
      <trkpt lat="44.88966" lon="5.23449">
        <ele>1342</ele>
        <time>2017-05-24T17:24:23.000Z</time>
      </trkpt>
      <trkpt lat="44.88974" lon="5.23454">
        <ele>1341.81</ele>
        <time>2017-05-24T17:24:29.000Z</time>
      </trkpt>
      <trkpt lat="44.88984" lon="5.23458">
        <ele>1341.62</ele>
        <time>2017-05-24T17:24:37.000Z</time>
      </trkpt>
      <trkpt lat="44.88992" lon="5.23463">
        <ele>1341.73</ele>
        <time>2017-05-24T17:24:44.000Z</time>
      </trkpt>
      <trkpt lat="44.89001" lon="5.23468">
        <ele>1341.87</ele>
        <time>2017-05-24T17:24:51.000Z</time>
      </trkpt>
      <trkpt lat="44.89012" lon="5.23471">
        <ele>1341.68</ele>
        <time>2017-05-24T17:24:57.000Z</time>
      </trkpt>
      <trkpt lat="44.89021" lon="5.2347">
        <ele>1341.73</ele>
        <time>2017-05-24T17:25:04.000Z</time>
      </trkpt>
      <trkpt lat="44.89031" lon="5.23473">
        <ele>1342.14</ele>
        <time>2017-05-24T17:25:11.000Z</time>
      </trkpt>
      <trkpt lat="44.8904" lon="5.23476">
        <ele>1342.62</ele>
        <time>2017-05-24T17:25:19.000Z</time>
      </trkpt>
      <trkpt lat="44.8905" lon="5.23483">
        <ele>1343.07</ele>
        <time>2017-05-24T17:25:26.000Z</time>
      </trkpt>
      <trkpt lat="44.8906" lon="5.23485">
        <ele>1343.48</ele>
        <time>2017-05-24T17:25:34.000Z</time>
      </trkpt>
      <trkpt lat="44.89069" lon="5.23482">
        <ele>1343.44</ele>
        <time>2017-05-24T17:25:40.000Z</time>
      </trkpt>
      <trkpt lat="44.89077" lon="5.23475">
        <ele>1343.75</ele>
        <time>2017-05-24T17:25:47.000Z</time>
      </trkpt>
      <trkpt lat="44.89085" lon="5.23468">
        <ele>1343.98</ele>
        <time>2017-05-24T17:25:54.000Z</time>
      </trkpt>
      <trkpt lat="44.89092" lon="5.23457">
        <ele>1344.14</ele>
        <time>2017-05-24T17:26:02.000Z</time>
      </trkpt>
      <trkpt lat="44.89099" lon="5.23449">
        <ele>1344.75</ele>
        <time>2017-05-24T17:26:09.000Z</time>
      </trkpt>
      <trkpt lat="44.89108" lon="5.23444">
        <ele>1345.28</ele>
        <time>2017-05-24T17:26:17.000Z</time>
      </trkpt>
      <trkpt lat="44.89117" lon="5.23442">
        <ele>1345.8</ele>
        <time>2017-05-24T17:26:22.000Z</time>
      </trkpt>
      <trkpt lat="44.89126" lon="5.2344">
        <ele>1346.6</ele>
        <time>2017-05-24T17:26:31.000Z</time>
      </trkpt>
      <trkpt lat="44.89135" lon="5.23443">
        <ele>1347.55</ele>
        <time>2017-05-24T17:26:40.000Z</time>
      </trkpt>
      <trkpt lat="44.89146" lon="5.23447">
        <ele>1348.02</ele>
        <time>2017-05-24T17:26:47.000Z</time>
      </trkpt>
      <trkpt lat="44.89155" lon="5.23449">
        <ele>1348.66</ele>
        <time>2017-05-24T17:26:53.000Z</time>
      </trkpt>
      <trkpt lat="44.89164" lon="5.23448">
        <ele>1349.34</ele>
        <time>2017-05-24T17:27:01.000Z</time>
      </trkpt>
      <trkpt lat="44.89175" lon="5.23446">
        <ele>1350.11</ele>
        <time>2017-05-24T17:27:09.000Z</time>
      </trkpt>
      <trkpt lat="44.89185" lon="5.23444">
        <ele>1350.72</ele>
        <time>2017-05-24T17:27:16.000Z</time>
      </trkpt>
      <trkpt lat="44.89194" lon="5.23442">
        <ele>1351.92</ele>
        <time>2017-05-24T17:27:24.000Z</time>
      </trkpt>
      <trkpt lat="44.89204" lon="5.2344">
        <ele>1352.92</ele>
        <time>2017-05-24T17:27:31.000Z</time>
      </trkpt>
      <trkpt lat="44.89215" lon="5.23441">
        <ele>1353.58</ele>
        <time>2017-05-24T17:27:38.000Z</time>
      </trkpt>
      <trkpt lat="44.89224" lon="5.23443">
        <ele>1353.79</ele>
        <time>2017-05-24T17:27:47.000Z</time>
      </trkpt>
      <trkpt lat="44.89234" lon="5.23444">
        <ele>1354.05</ele>
        <time>2017-05-24T17:27:55.000Z</time>
      </trkpt>
      <trkpt lat="44.89243" lon="5.23444">
        <ele>1354.7</ele>
        <time>2017-05-24T17:28:01.000Z</time>
      </trkpt>
      <trkpt lat="44.89253" lon="5.23444">
        <ele>1355.32</ele>
        <time>2017-05-24T17:28:08.000Z</time>
      </trkpt>
      <trkpt lat="44.89264" lon="5.23443">
        <ele>1356.05</ele>
        <time>2017-05-24T17:28:14.000Z</time>
      </trkpt>
      <trkpt lat="44.89275" lon="5.23442">
        <ele>1357.29</ele>
        <time>2017-05-24T17:28:22.000Z</time>
      </trkpt>
      <trkpt lat="44.89284" lon="5.23444">
        <ele>1357.76</ele>
        <time>2017-05-24T17:28:29.000Z</time>
      </trkpt>
      <trkpt lat="44.89294" lon="5.23445">
        <ele>1358.61</ele>
        <time>2017-05-24T17:28:38.000Z</time>
      </trkpt>
      <trkpt lat="44.89304" lon="5.23444">
        <ele>1359.19</ele>
        <time>2017-05-24T17:28:43.000Z</time>
      </trkpt>
      <trkpt lat="44.89315" lon="5.23444">
        <ele>1359.64</ele>
        <time>2017-05-24T17:28:50.000Z</time>
      </trkpt>
      <trkpt lat="44.89325" lon="5.23443">
        <ele>1360.15</ele>
        <time>2017-05-24T17:28:56.000Z</time>
      </trkpt>
      <trkpt lat="44.89334" lon="5.23442">
        <ele>1360.75</ele>
        <time>2017-05-24T17:29:02.000Z</time>
      </trkpt>
      <trkpt lat="44.89343" lon="5.23439">
        <ele>1361.41</ele>
        <time>2017-05-24T17:29:09.000Z</time>
      </trkpt>
      <trkpt lat="44.89352" lon="5.23437">
        <ele>1361.84</ele>
        <time>2017-05-24T17:29:17.000Z</time>
      </trkpt>
      <trkpt lat="44.89363" lon="5.23438">
        <ele>1362.02</ele>
        <time>2017-05-24T17:29:23.000Z</time>
      </trkpt>
      <trkpt lat="44.89372" lon="5.23437">
        <ele>1362.48</ele>
        <time>2017-05-24T17:29:30.000Z</time>
      </trkpt>
      <trkpt lat="44.89381" lon="5.23437">
        <ele>1362.91</ele>
        <time>2017-05-24T17:29:40.000Z</time>
      </trkpt>
      <trkpt lat="44.8939" lon="5.23437">
        <ele>1363.59</ele>
        <time>2017-05-24T17:29:47.000Z</time>
      </trkpt>
      <trkpt lat="44.89399" lon="5.23441">
        <ele>1363.96</ele>
        <time>2017-05-24T17:29:54.000Z</time>
      </trkpt>
      <trkpt lat="44.89409" lon="5.23445">
        <ele>1363.91</ele>
        <time>2017-05-24T17:30:02.000Z</time>
      </trkpt>
      <trkpt lat="44.89419" lon="5.23446">
        <ele>1364.06</ele>
        <time>2017-05-24T17:30:10.000Z</time>
      </trkpt>
      <trkpt lat="44.89429" lon="5.23445">
        <ele>1364.12</ele>
        <time>2017-05-24T17:30:17.000Z</time>
      </trkpt>
      <trkpt lat="44.89438" lon="5.23441">
        <ele>1363.75</ele>
        <time>2017-05-24T17:30:26.000Z</time>
      </trkpt>
      <trkpt lat="44.89449" lon="5.2344">
        <ele>1363.68</ele>
        <time>2017-05-24T17:30:33.000Z</time>
      </trkpt>
      <trkpt lat="44.89459" lon="5.23439">
        <ele>1363.98</ele>
        <time>2017-05-24T17:30:40.000Z</time>
      </trkpt>
      <trkpt lat="44.89468" lon="5.23438">
        <ele>1364.2</ele>
        <time>2017-05-24T17:30:46.000Z</time>
      </trkpt>
      <trkpt lat="44.89477" lon="5.23438">
        <ele>1364.54</ele>
        <time>2017-05-24T17:30:52.000Z</time>
      </trkpt>
      <trkpt lat="44.89487" lon="5.23436">
        <ele>1364.61</ele>
        <time>2017-05-24T17:30:59.000Z</time>
      </trkpt>
      <trkpt lat="44.89497" lon="5.23434">
        <ele>1364.63</ele>
        <time>2017-05-24T17:31:08.000Z</time>
      </trkpt>
      <trkpt lat="44.89507" lon="5.23432">
        <ele>1364.76</ele>
        <time>2017-05-24T17:31:15.000Z</time>
      </trkpt>
      <trkpt lat="44.89516" lon="5.2343">
        <ele>1365.17</ele>
        <time>2017-05-24T17:31:21.000Z</time>
      </trkpt>
      <trkpt lat="44.89526" lon="5.2343">
        <ele>1365.8</ele>
        <time>2017-05-24T17:31:29.000Z</time>
      </trkpt>
      <trkpt lat="44.89536" lon="5.23429">
        <ele>1366.67</ele>
        <time>2017-05-24T17:31:37.000Z</time>
      </trkpt>
      <trkpt lat="44.89545" lon="5.23421">
        <ele>1367.18</ele>
        <time>2017-05-24T17:31:44.000Z</time>
      </trkpt>
      <trkpt lat="44.89555" lon="5.23418">
        <ele>1367.23</ele>
        <time>2017-05-24T17:31:51.000Z</time>
      </trkpt>
      <trkpt lat="44.89565" lon="5.23417">
        <ele>1367.57</ele>
        <time>2017-05-24T17:31:58.000Z</time>
      </trkpt>
      <trkpt lat="44.89574" lon="5.23416">
        <ele>1367.75</ele>
        <time>2017-05-24T17:32:04.000Z</time>
      </trkpt>
      <trkpt lat="44.89584" lon="5.23414">
        <ele>1367.9</ele>
        <time>2017-05-24T17:32:11.000Z</time>
      </trkpt>
      <trkpt lat="44.89593" lon="5.23415">
        <ele>1367.61</ele>
        <time>2017-05-24T17:32:19.000Z</time>
      </trkpt>
      <trkpt lat="44.89602" lon="5.23414">
        <ele>1367.08</ele>
        <time>2017-05-24T17:32:27.000Z</time>
      </trkpt>
      <trkpt lat="44.89611" lon="5.23416">
        <ele>1366.62</ele>
        <time>2017-05-24T17:32:32.000Z</time>
      </trkpt>
      <trkpt lat="44.8962" lon="5.23417">
        <ele>1366.01</ele>
        <time>2017-05-24T17:32:38.000Z</time>
      </trkpt>
      <trkpt lat="44.89629" lon="5.23417">
        <ele>1365.69</ele>
        <time>2017-05-24T17:32:43.000Z</time>
      </trkpt>
      <trkpt lat="44.89638" lon="5.23417">
        <ele>1365.35</ele>
        <time>2017-05-24T17:32:50.000Z</time>
      </trkpt>
      <trkpt lat="44.89648" lon="5.23413">
        <ele>1364.47</ele>
        <time>2017-05-24T17:32:57.000Z</time>
      </trkpt>
      <trkpt lat="44.89657" lon="5.23409">
        <ele>1363.82</ele>
        <time>2017-05-24T17:33:05.000Z</time>
      </trkpt>
      <trkpt lat="44.89666" lon="5.23408">
        <ele>1364.09</ele>
        <time>2017-05-24T17:33:13.000Z</time>
      </trkpt>
      <trkpt lat="44.89676" lon="5.23406">
        <ele>1364.12</ele>
        <time>2017-05-24T17:33:20.000Z</time>
      </trkpt>
      <trkpt lat="44.89685" lon="5.23404">
        <ele>1363.64</ele>
        <time>2017-05-24T17:33:28.000Z</time>
      </trkpt>
      <trkpt lat="44.89694" lon="5.23398">
        <ele>1363.63</ele>
        <time>2017-05-24T17:33:35.000Z</time>
      </trkpt>
      <trkpt lat="44.89703" lon="5.23396">
        <ele>1364.22</ele>
        <time>2017-05-24T17:33:41.000Z</time>
      </trkpt>
      <trkpt lat="44.89714" lon="5.23395">
        <ele>1364.53</ele>
        <time>2017-05-24T17:33:48.000Z</time>
      </trkpt>
      <trkpt lat="44.89724" lon="5.23394">
        <ele>1365.17</ele>
        <time>2017-05-24T17:33:56.000Z</time>
      </trkpt>
      <trkpt lat="44.89733" lon="5.23392">
        <ele>1365.06</ele>
        <time>2017-05-24T17:34:04.000Z</time>
      </trkpt>
      <trkpt lat="44.89742" lon="5.2339">
        <ele>1365.35</ele>
        <time>2017-05-24T17:34:14.000Z</time>
      </trkpt>
      <trkpt lat="44.89751" lon="5.23386">
        <ele>1365.71</ele>
        <time>2017-05-24T17:34:21.000Z</time>
      </trkpt>
      <trkpt lat="44.89762" lon="5.23386">
        <ele>1365.53</ele>
        <time>2017-05-24T17:34:29.000Z</time>
      </trkpt>
      <trkpt lat="44.89772" lon="5.23385">
        <ele>1365.32</ele>
        <time>2017-05-24T17:34:37.000Z</time>
      </trkpt>
    </trkseg>
  </trk>
</gpx>